<?xml version="1.0" encoding="UTF-8" standalone="no" ?>
<gpx xmlns="http://www.topografix.com/GPX/1/1" xmlns:xsi="http://www.w3.org/2001/XMLSchema-instance" xsi:schemaLocation="http://www.topografix.com/GPX/1/1 http://www.topografix.com/GPX/1/1/gpx.xsd" version="1.1" creator="VisuGPX - https://www.visugpx.com">
  <metadata>
    <name>Monte Renoso 2352m depuis Vizzavona</name>
    <desc><![CDATA[Départ matinal au col de Vizzavona 1160m vers les bergeries de Pozzi puis puis passage quelque peu sportif sous les Pinzi Corbini (lecture de la sente pas toujours évidente...) avec remontée sympathique où l'on pose un peu les mains I/II vers la cote 2113. Cheminement évident ensuite (par bonne visibilité) vers le Renoso.
Excellente variante du GR20. ]]></desc>
  </metadata>
  <trk>
    <name><![CDATA[20180621170349-3stsm]]></name>
    <trkseg>
      <trkpt lat="42.11207" lon="9.11231">
        <ele>1165</ele>
        <time>2018-06-18T04:54:34Z</time>
      </trkpt>
      <trkpt lat="42.11207" lon="9.11233">
        <ele>1165</ele>
        <time>2018-06-18T04:54:35Z</time>
      </trkpt>
      <trkpt lat="42.11209" lon="9.11234">
        <ele>1165</ele>
        <time>2018-06-18T04:54:39Z</time>
      </trkpt>
      <trkpt lat="42.11208" lon="9.11233">
        <ele>1165</ele>
        <time>2018-06-18T04:54:41Z</time>
      </trkpt>
      <trkpt lat="42.11208" lon="9.11233">
        <ele>1165</ele>
        <time>2018-06-18T04:54:43Z</time>
      </trkpt>
      <trkpt lat="42.11209" lon="9.11233">
        <ele>1165</ele>
        <time>2018-06-18T04:54:44Z</time>
      </trkpt>
      <trkpt lat="42.11209" lon="9.11235">
        <ele>1165</ele>
        <time>2018-06-18T04:54:56Z</time>
      </trkpt>
      <trkpt lat="42.11193" lon="9.11246">
        <ele>1165</ele>
        <time>2018-06-18T04:55:27Z</time>
      </trkpt>
      <trkpt lat="42.11205" lon="9.11255">
        <ele>1168</ele>
        <time>2018-06-18T04:55:48Z</time>
      </trkpt>
      <trkpt lat="42.11205" lon="9.11255">
        <ele>1168</ele>
        <time>2018-06-18T04:55:50Z</time>
      </trkpt>
      <trkpt lat="42.11195" lon="9.1123">
        <ele>1165</ele>
        <time>2018-06-18T04:56:13Z</time>
      </trkpt>
      <trkpt lat="42.11171" lon="9.11224">
        <ele>1164</ele>
        <time>2018-06-18T04:56:35Z</time>
      </trkpt>
      <trkpt lat="42.11168" lon="9.11223">
        <ele>1164</ele>
        <time>2018-06-18T04:56:38Z</time>
      </trkpt>
      <trkpt lat="42.11162" lon="9.11227">
        <ele>1163</ele>
        <time>2018-06-18T04:56:44Z</time>
      </trkpt>
      <trkpt lat="42.1116" lon="9.11228">
        <ele>1163</ele>
        <time>2018-06-18T04:56:47Z</time>
      </trkpt>
      <trkpt lat="42.11154" lon="9.1124">
        <ele>1164</ele>
        <time>2018-06-18T04:56:58Z</time>
      </trkpt>
      <trkpt lat="42.11142" lon="9.11257">
        <ele>1173</ele>
        <time>2018-06-18T04:57:13Z</time>
      </trkpt>
      <trkpt lat="42.11132" lon="9.11268">
        <ele>1175</ele>
        <time>2018-06-18T04:57:30Z</time>
      </trkpt>
      <trkpt lat="42.11119" lon="9.11276">
        <ele>1177</ele>
        <time>2018-06-18T04:57:50Z</time>
      </trkpt>
      <trkpt lat="42.11102" lon="9.11284">
        <ele>1179</ele>
        <time>2018-06-18T04:58:13Z</time>
      </trkpt>
      <trkpt lat="42.11084" lon="9.11294">
        <ele>1181</ele>
        <time>2018-06-18T04:58:34Z</time>
      </trkpt>
      <trkpt lat="42.11067" lon="9.11308">
        <ele>1185</ele>
        <time>2018-06-18T04:58:52Z</time>
      </trkpt>
      <trkpt lat="42.11052" lon="9.11329">
        <ele>1186</ele>
        <time>2018-06-18T04:59:11Z</time>
      </trkpt>
      <trkpt lat="42.11041" lon="9.11339">
        <ele>1193</ele>
        <time>2018-06-18T04:59:31Z</time>
      </trkpt>
      <trkpt lat="42.11028" lon="9.11356">
        <ele>1193</ele>
        <time>2018-06-18T04:59:50Z</time>
      </trkpt>
      <trkpt lat="42.11011" lon="9.11373">
        <ele>1194</ele>
        <time>2018-06-18T05:00:12Z</time>
      </trkpt>
      <trkpt lat="42.10993" lon="9.11391">
        <ele>1191</ele>
        <time>2018-06-18T05:00:32Z</time>
      </trkpt>
      <trkpt lat="42.10988" lon="9.11398">
        <ele>1191</ele>
        <time>2018-06-18T05:00:37Z</time>
      </trkpt>
      <trkpt lat="42.10972" lon="9.11413">
        <ele>1190</ele>
        <time>2018-06-18T05:00:58Z</time>
      </trkpt>
      <trkpt lat="42.1096" lon="9.11434">
        <ele>1201</ele>
        <time>2018-06-18T05:01:13Z</time>
      </trkpt>
      <trkpt lat="42.10951" lon="9.11444">
        <ele>1202</ele>
        <time>2018-06-18T05:01:29Z</time>
      </trkpt>
      <trkpt lat="42.10936" lon="9.11453">
        <ele>1203</ele>
        <time>2018-06-18T05:01:40Z</time>
      </trkpt>
      <trkpt lat="42.10917" lon="9.11459">
        <ele>1204</ele>
        <time>2018-06-18T05:01:58Z</time>
      </trkpt>
      <trkpt lat="42.10908" lon="9.1147">
        <ele>1206</ele>
        <time>2018-06-18T05:02:19Z</time>
      </trkpt>
      <trkpt lat="42.10906" lon="9.11478">
        <ele>1208</ele>
        <time>2018-06-18T05:02:34Z</time>
      </trkpt>
      <trkpt lat="42.10913" lon="9.1149">
        <ele>1213</ele>
        <time>2018-06-18T05:02:53Z</time>
      </trkpt>
      <trkpt lat="42.10913" lon="9.11502">
        <ele>1221</ele>
        <time>2018-06-18T05:03:10Z</time>
      </trkpt>
      <trkpt lat="42.10906" lon="9.11512">
        <ele>1225</ele>
        <time>2018-06-18T05:03:27Z</time>
      </trkpt>
      <trkpt lat="42.10895" lon="9.11522">
        <ele>1228</ele>
        <time>2018-06-18T05:03:46Z</time>
      </trkpt>
      <trkpt lat="42.10891" lon="9.11532">
        <ele>1230</ele>
        <time>2018-06-18T05:04:04Z</time>
      </trkpt>
      <trkpt lat="42.10895" lon="9.11545">
        <ele>1232</ele>
        <time>2018-06-18T05:04:25Z</time>
      </trkpt>
      <trkpt lat="42.10891" lon="9.1155">
        <ele>1233</ele>
        <time>2018-06-18T05:04:43Z</time>
      </trkpt>
      <trkpt lat="42.10886" lon="9.11556">
        <ele>1234</ele>
        <time>2018-06-18T05:05:01Z</time>
      </trkpt>
      <trkpt lat="42.10883" lon="9.11564">
        <ele>1235</ele>
        <time>2018-06-18T05:05:19Z</time>
      </trkpt>
      <trkpt lat="42.10885" lon="9.11575">
        <ele>1236</ele>
        <time>2018-06-18T05:05:38Z</time>
      </trkpt>
      <trkpt lat="42.10887" lon="9.11592">
        <ele>1253</ele>
        <time>2018-06-18T05:05:58Z</time>
      </trkpt>
      <trkpt lat="42.10889" lon="9.1161">
        <ele>1256</ele>
        <time>2018-06-18T05:06:19Z</time>
      </trkpt>
      <trkpt lat="42.10889" lon="9.11621">
        <ele>1258</ele>
        <time>2018-06-18T05:06:39Z</time>
      </trkpt>
      <trkpt lat="42.10888" lon="9.11623">
        <ele>1258</ele>
        <time>2018-06-18T05:06:59Z</time>
      </trkpt>
      <trkpt lat="42.10881" lon="9.11623">
        <ele>1259</ele>
        <time>2018-06-18T05:07:17Z</time>
      </trkpt>
      <trkpt lat="42.10871" lon="9.11623">
        <ele>1260</ele>
        <time>2018-06-18T05:07:36Z</time>
      </trkpt>
      <trkpt lat="42.1086" lon="9.11621">
        <ele>1261</ele>
        <time>2018-06-18T05:07:54Z</time>
      </trkpt>
      <trkpt lat="42.10852" lon="9.11619">
        <ele>1262</ele>
        <time>2018-06-18T05:08:10Z</time>
      </trkpt>
      <trkpt lat="42.10846" lon="9.11624">
        <ele>1263</ele>
        <time>2018-06-18T05:08:27Z</time>
      </trkpt>
      <trkpt lat="42.10844" lon="9.11634">
        <ele>1266</ele>
        <time>2018-06-18T05:08:45Z</time>
      </trkpt>
      <trkpt lat="42.10844" lon="9.11647">
        <ele>1271</ele>
        <time>2018-06-18T05:09:06Z</time>
      </trkpt>
      <trkpt lat="42.10844" lon="9.1166">
        <ele>1276</ele>
        <time>2018-06-18T05:09:26Z</time>
      </trkpt>
      <trkpt lat="42.10839" lon="9.11656">
        <ele>1276</ele>
        <time>2018-06-18T05:09:46Z</time>
      </trkpt>
      <trkpt lat="42.10832" lon="9.11653">
        <ele>1283</ele>
        <time>2018-06-18T05:10:06Z</time>
      </trkpt>
      <trkpt lat="42.10827" lon="9.11659">
        <ele>1284</ele>
        <time>2018-06-18T05:10:24Z</time>
      </trkpt>
      <trkpt lat="42.10819" lon="9.11658">
        <ele>1284</ele>
        <time>2018-06-18T05:10:42Z</time>
      </trkpt>
      <trkpt lat="42.10808" lon="9.11656">
        <ele>1284</ele>
        <time>2018-06-18T05:11:01Z</time>
      </trkpt>
      <trkpt lat="42.108" lon="9.11654">
        <ele>1285</ele>
        <time>2018-06-18T05:11:18Z</time>
      </trkpt>
      <trkpt lat="42.10792" lon="9.11655">
        <ele>1286</ele>
        <time>2018-06-18T05:11:35Z</time>
      </trkpt>
      <trkpt lat="42.1078" lon="9.11651">
        <ele>1288</ele>
        <time>2018-06-18T05:11:51Z</time>
      </trkpt>
      <trkpt lat="42.10776" lon="9.11651">
        <ele>1290</ele>
        <time>2018-06-18T05:11:55Z</time>
      </trkpt>
      <trkpt lat="42.1077" lon="9.11649">
        <ele>1291</ele>
        <time>2018-06-18T05:12:00Z</time>
      </trkpt>
      <trkpt lat="42.10757" lon="9.11645">
        <ele>1293</ele>
        <time>2018-06-18T05:12:16Z</time>
      </trkpt>
      <trkpt lat="42.10744" lon="9.11645">
        <ele>1302</ele>
        <time>2018-06-18T05:12:34Z</time>
      </trkpt>
      <trkpt lat="42.10728" lon="9.11647">
        <ele>1302</ele>
        <time>2018-06-18T05:12:53Z</time>
      </trkpt>
      <trkpt lat="42.10716" lon="9.1165">
        <ele>1303</ele>
        <time>2018-06-18T05:13:10Z</time>
      </trkpt>
      <trkpt lat="42.10706" lon="9.11655">
        <ele>1305</ele>
        <time>2018-06-18T05:13:29Z</time>
      </trkpt>
      <trkpt lat="42.10703" lon="9.11666">
        <ele>1307</ele>
        <time>2018-06-18T05:13:47Z</time>
      </trkpt>
      <trkpt lat="42.10695" lon="9.11672">
        <ele>1332</ele>
        <time>2018-06-18T05:14:08Z</time>
      </trkpt>
      <trkpt lat="42.10679" lon="9.11665">
        <ele>1316</ele>
        <time>2018-06-18T05:14:26Z</time>
      </trkpt>
      <trkpt lat="42.10662" lon="9.11664">
        <ele>1323</ele>
        <time>2018-06-18T05:14:47Z</time>
      </trkpt>
      <trkpt lat="42.1065" lon="9.11666">
        <ele>1319</ele>
        <time>2018-06-18T05:15:07Z</time>
      </trkpt>
      <trkpt lat="42.10636" lon="9.11666">
        <ele>1316</ele>
        <time>2018-06-18T05:15:28Z</time>
      </trkpt>
      <trkpt lat="42.10624" lon="9.11672">
        <ele>1339</ele>
        <time>2018-06-18T05:15:49Z</time>
      </trkpt>
      <trkpt lat="42.10612" lon="9.11678">
        <ele>1339</ele>
        <time>2018-06-18T05:16:08Z</time>
      </trkpt>
      <trkpt lat="42.10603" lon="9.11683">
        <ele>1339</ele>
        <time>2018-06-18T05:16:27Z</time>
      </trkpt>
      <trkpt lat="42.10595" lon="9.11689">
        <ele>1340</ele>
        <time>2018-06-18T05:16:46Z</time>
      </trkpt>
      <trkpt lat="42.10581" lon="9.11697">
        <ele>1344</ele>
        <time>2018-06-18T05:17:08Z</time>
      </trkpt>
      <trkpt lat="42.10571" lon="9.11709">
        <ele>1347</ele>
        <time>2018-06-18T05:17:26Z</time>
      </trkpt>
      <trkpt lat="42.10562" lon="9.11721">
        <ele>1350</ele>
        <time>2018-06-18T05:17:46Z</time>
      </trkpt>
      <trkpt lat="42.10555" lon="9.11733">
        <ele>1351</ele>
        <time>2018-06-18T05:18:07Z</time>
      </trkpt>
      <trkpt lat="42.10549" lon="9.11742">
        <ele>1352</ele>
        <time>2018-06-18T05:18:26Z</time>
      </trkpt>
      <trkpt lat="42.10545" lon="9.11753">
        <ele>1367</ele>
        <time>2018-06-18T05:18:43Z</time>
      </trkpt>
      <trkpt lat="42.1054" lon="9.11764">
        <ele>1367</ele>
        <time>2018-06-18T05:19:00Z</time>
      </trkpt>
      <trkpt lat="42.10532" lon="9.11772">
        <ele>1368</ele>
        <time>2018-06-18T05:19:21Z</time>
      </trkpt>
      <trkpt lat="42.10523" lon="9.11782">
        <ele>1368</ele>
        <time>2018-06-18T05:19:40Z</time>
      </trkpt>
      <trkpt lat="42.10515" lon="9.11796">
        <ele>1370</ele>
        <time>2018-06-18T05:19:59Z</time>
      </trkpt>
      <trkpt lat="42.10508" lon="9.11806">
        <ele>1371</ele>
        <time>2018-06-18T05:20:17Z</time>
      </trkpt>
      <trkpt lat="42.10504" lon="9.11818">
        <ele>1373</ele>
        <time>2018-06-18T05:20:35Z</time>
      </trkpt>
      <trkpt lat="42.10503" lon="9.11826">
        <ele>1374</ele>
        <time>2018-06-18T05:21:05Z</time>
      </trkpt>
      <trkpt lat="42.10501" lon="9.11834">
        <ele>1376</ele>
        <time>2018-06-18T05:21:24Z</time>
      </trkpt>
      <trkpt lat="42.10494" lon="9.1185">
        <ele>1380</ele>
        <time>2018-06-18T05:21:43Z</time>
      </trkpt>
      <trkpt lat="42.10487" lon="9.11874">
        <ele>1384</ele>
        <time>2018-06-18T05:22:04Z</time>
      </trkpt>
      <trkpt lat="42.10485" lon="9.11881">
        <ele>1384</ele>
        <time>2018-06-18T05:22:13Z</time>
      </trkpt>
      <trkpt lat="42.10477" lon="9.11894">
        <ele>1386</ele>
        <time>2018-06-18T05:22:29Z</time>
      </trkpt>
      <trkpt lat="42.10474" lon="9.11908">
        <ele>1387</ele>
        <time>2018-06-18T05:22:46Z</time>
      </trkpt>
      <trkpt lat="42.10474" lon="9.1192">
        <ele>1398</ele>
        <time>2018-06-18T05:23:03Z</time>
      </trkpt>
      <trkpt lat="42.1048" lon="9.11925">
        <ele>1397</ele>
        <time>2018-06-18T05:23:19Z</time>
      </trkpt>
      <trkpt lat="42.10488" lon="9.1193">
        <ele>1397</ele>
        <time>2018-06-18T05:23:37Z</time>
      </trkpt>
      <trkpt lat="42.10495" lon="9.11935">
        <ele>1397</ele>
        <time>2018-06-18T05:23:55Z</time>
      </trkpt>
      <trkpt lat="42.10493" lon="9.11941">
        <ele>1399</ele>
        <time>2018-06-18T05:24:11Z</time>
      </trkpt>
      <trkpt lat="42.10491" lon="9.11948">
        <ele>1401</ele>
        <time>2018-06-18T05:24:24Z</time>
      </trkpt>
      <trkpt lat="42.10494" lon="9.11955">
        <ele>1402</ele>
        <time>2018-06-18T05:24:42Z</time>
      </trkpt>
      <trkpt lat="42.10501" lon="9.11957">
        <ele>1409</ele>
        <time>2018-06-18T05:24:58Z</time>
      </trkpt>
      <trkpt lat="42.10509" lon="9.11959">
        <ele>1410</ele>
        <time>2018-06-18T05:25:16Z</time>
      </trkpt>
      <trkpt lat="42.10515" lon="9.1196">
        <ele>1411</ele>
        <time>2018-06-18T05:25:31Z</time>
      </trkpt>
      <trkpt lat="42.10521" lon="9.11964">
        <ele>1412</ele>
        <time>2018-06-18T05:25:47Z</time>
      </trkpt>
      <trkpt lat="42.10529" lon="9.11965">
        <ele>1413</ele>
        <time>2018-06-18T05:26:04Z</time>
      </trkpt>
      <trkpt lat="42.10529" lon="9.11973">
        <ele>1414</ele>
        <time>2018-06-18T05:26:21Z</time>
      </trkpt>
      <trkpt lat="42.10534" lon="9.11979">
        <ele>1416</ele>
        <time>2018-06-18T05:26:39Z</time>
      </trkpt>
      <trkpt lat="42.10534" lon="9.11986">
        <ele>1416</ele>
        <time>2018-06-18T05:26:58Z</time>
      </trkpt>
      <trkpt lat="42.10533" lon="9.11992">
        <ele>1417</ele>
        <time>2018-06-18T05:27:16Z</time>
      </trkpt>
      <trkpt lat="42.10539" lon="9.11996">
        <ele>1418</ele>
        <time>2018-06-18T05:27:32Z</time>
      </trkpt>
      <trkpt lat="42.10545" lon="9.12">
        <ele>1419</ele>
        <time>2018-06-18T05:27:48Z</time>
      </trkpt>
      <trkpt lat="42.10546" lon="9.12006">
        <ele>1436</ele>
        <time>2018-06-18T05:28:03Z</time>
      </trkpt>
      <trkpt lat="42.10552" lon="9.12007">
        <ele>1436</ele>
        <time>2018-06-18T05:28:17Z</time>
      </trkpt>
      <trkpt lat="42.10557" lon="9.12011">
        <ele>1437</ele>
        <time>2018-06-18T05:28:32Z</time>
      </trkpt>
      <trkpt lat="42.1056" lon="9.12014">
        <ele>1438</ele>
        <time>2018-06-18T05:28:46Z</time>
      </trkpt>
      <trkpt lat="42.10567" lon="9.12015">
        <ele>1438</ele>
        <time>2018-06-18T05:29:01Z</time>
      </trkpt>
      <trkpt lat="42.1057" lon="9.12021">
        <ele>1439</ele>
        <time>2018-06-18T05:29:16Z</time>
      </trkpt>
      <trkpt lat="42.10576" lon="9.12023">
        <ele>1439</ele>
        <time>2018-06-18T05:29:30Z</time>
      </trkpt>
      <trkpt lat="42.1058" lon="9.12026">
        <ele>1440</ele>
        <time>2018-06-18T05:29:44Z</time>
      </trkpt>
      <trkpt lat="42.10584" lon="9.12031">
        <ele>1450</ele>
        <time>2018-06-18T05:30:00Z</time>
      </trkpt>
      <trkpt lat="42.10589" lon="9.12035">
        <ele>1451</ele>
        <time>2018-06-18T05:30:16Z</time>
      </trkpt>
      <trkpt lat="42.10588" lon="9.12041">
        <ele>1453</ele>
        <time>2018-06-18T05:30:29Z</time>
      </trkpt>
      <trkpt lat="42.10591" lon="9.12048">
        <ele>1454</ele>
        <time>2018-06-18T05:30:44Z</time>
      </trkpt>
      <trkpt lat="42.10597" lon="9.12052">
        <ele>1455</ele>
        <time>2018-06-18T05:31:01Z</time>
      </trkpt>
      <trkpt lat="42.106" lon="9.12052">
        <ele>1455</ele>
        <time>2018-06-18T05:31:22Z</time>
      </trkpt>
      <trkpt lat="42.10602" lon="9.12056">
        <ele>1456</ele>
        <time>2018-06-18T05:31:37Z</time>
      </trkpt>
      <trkpt lat="42.10606" lon="9.12062">
        <ele>1457</ele>
        <time>2018-06-18T05:31:51Z</time>
      </trkpt>
      <trkpt lat="42.10614" lon="9.12064">
        <ele>1457</ele>
        <time>2018-06-18T05:32:09Z</time>
      </trkpt>
      <trkpt lat="42.1062" lon="9.12071">
        <ele>1458</ele>
        <time>2018-06-18T05:32:26Z</time>
      </trkpt>
      <trkpt lat="42.10626" lon="9.12077">
        <ele>1459</ele>
        <time>2018-06-18T05:32:43Z</time>
      </trkpt>
      <trkpt lat="42.10629" lon="9.12082">
        <ele>1459</ele>
        <time>2018-06-18T05:32:58Z</time>
      </trkpt>
      <trkpt lat="42.10637" lon="9.12084">
        <ele>1472</ele>
        <time>2018-06-18T05:33:13Z</time>
      </trkpt>
      <trkpt lat="42.10639" lon="9.12091">
        <ele>1472</ele>
        <time>2018-06-18T05:33:27Z</time>
      </trkpt>
      <trkpt lat="42.1064" lon="9.12102">
        <ele>1473</ele>
        <time>2018-06-18T05:33:43Z</time>
      </trkpt>
      <trkpt lat="42.10638" lon="9.1211">
        <ele>1474</ele>
        <time>2018-06-18T05:33:59Z</time>
      </trkpt>
      <trkpt lat="42.10641" lon="9.12122">
        <ele>1475</ele>
        <time>2018-06-18T05:34:16Z</time>
      </trkpt>
      <trkpt lat="42.10643" lon="9.12138">
        <ele>1476</ele>
        <time>2018-06-18T05:34:37Z</time>
      </trkpt>
      <trkpt lat="42.10646" lon="9.12153">
        <ele>1477</ele>
        <time>2018-06-18T05:34:56Z</time>
      </trkpt>
      <trkpt lat="42.10643" lon="9.12165">
        <ele>1478</ele>
        <time>2018-06-18T05:35:12Z</time>
      </trkpt>
      <trkpt lat="42.10636" lon="9.12175">
        <ele>1487</ele>
        <time>2018-06-18T05:35:32Z</time>
      </trkpt>
      <trkpt lat="42.10625" lon="9.12182">
        <ele>1489</ele>
        <time>2018-06-18T05:35:52Z</time>
      </trkpt>
      <trkpt lat="42.10618" lon="9.12188">
        <ele>1490</ele>
        <time>2018-06-18T05:36:09Z</time>
      </trkpt>
      <trkpt lat="42.10607" lon="9.12187">
        <ele>1491</ele>
        <time>2018-06-18T05:36:28Z</time>
      </trkpt>
      <trkpt lat="42.10599" lon="9.12189">
        <ele>1491</ele>
        <time>2018-06-18T05:36:45Z</time>
      </trkpt>
      <trkpt lat="42.10592" lon="9.1219">
        <ele>1491</ele>
        <time>2018-06-18T05:37:00Z</time>
      </trkpt>
      <trkpt lat="42.10584" lon="9.12194">
        <ele>1492</ele>
        <time>2018-06-18T05:37:17Z</time>
      </trkpt>
      <trkpt lat="42.1058" lon="9.122">
        <ele>1498</ele>
        <time>2018-06-18T05:37:32Z</time>
      </trkpt>
      <trkpt lat="42.10577" lon="9.12206">
        <ele>1500</ele>
        <time>2018-06-18T05:37:47Z</time>
      </trkpt>
      <trkpt lat="42.10573" lon="9.12214">
        <ele>1501</ele>
        <time>2018-06-18T05:38:04Z</time>
      </trkpt>
      <trkpt lat="42.10568" lon="9.12222">
        <ele>1503</ele>
        <time>2018-06-18T05:38:20Z</time>
      </trkpt>
      <trkpt lat="42.10563" lon="9.1223">
        <ele>1504</ele>
        <time>2018-06-18T05:38:37Z</time>
      </trkpt>
      <trkpt lat="42.10559" lon="9.12237">
        <ele>1505</ele>
        <time>2018-06-18T05:38:51Z</time>
      </trkpt>
      <trkpt lat="42.10555" lon="9.12245">
        <ele>1505</ele>
        <time>2018-06-18T05:39:08Z</time>
      </trkpt>
      <trkpt lat="42.1055" lon="9.12252">
        <ele>1521</ele>
        <time>2018-06-18T05:39:24Z</time>
      </trkpt>
      <trkpt lat="42.10546" lon="9.12258">
        <ele>1521</ele>
        <time>2018-06-18T05:39:39Z</time>
      </trkpt>
      <trkpt lat="42.10549" lon="9.12264">
        <ele>1522</ele>
        <time>2018-06-18T05:39:56Z</time>
      </trkpt>
      <trkpt lat="42.10544" lon="9.12271">
        <ele>1523</ele>
        <time>2018-06-18T05:40:16Z</time>
      </trkpt>
      <trkpt lat="42.10537" lon="9.12278">
        <ele>1524</ele>
        <time>2018-06-18T05:40:37Z</time>
      </trkpt>
      <trkpt lat="42.10532" lon="9.12289">
        <ele>1525</ele>
        <time>2018-06-18T05:40:55Z</time>
      </trkpt>
      <trkpt lat="42.10533" lon="9.12294">
        <ele>1526</ele>
        <time>2018-06-18T05:41:09Z</time>
      </trkpt>
      <trkpt lat="42.10536" lon="9.12302">
        <ele>1527</ele>
        <time>2018-06-18T05:41:27Z</time>
      </trkpt>
      <trkpt lat="42.10533" lon="9.12309">
        <ele>1529</ele>
        <time>2018-06-18T05:41:43Z</time>
      </trkpt>
      <trkpt lat="42.10531" lon="9.12315">
        <ele>1530</ele>
        <time>2018-06-18T05:41:58Z</time>
      </trkpt>
      <trkpt lat="42.10527" lon="9.12322">
        <ele>1531</ele>
        <time>2018-06-18T05:42:14Z</time>
      </trkpt>
      <trkpt lat="42.10523" lon="9.1233">
        <ele>1533</ele>
        <time>2018-06-18T05:42:31Z</time>
      </trkpt>
      <trkpt lat="42.10524" lon="9.12335">
        <ele>1545</ele>
        <time>2018-06-18T05:42:46Z</time>
      </trkpt>
      <trkpt lat="42.10526" lon="9.1234">
        <ele>1545</ele>
        <time>2018-06-18T05:43:00Z</time>
      </trkpt>
      <trkpt lat="42.10524" lon="9.12348">
        <ele>1546</ele>
        <time>2018-06-18T05:43:16Z</time>
      </trkpt>
      <trkpt lat="42.10521" lon="9.12357">
        <ele>1547</ele>
        <time>2018-06-18T05:43:33Z</time>
      </trkpt>
      <trkpt lat="42.10516" lon="9.12365">
        <ele>1548</ele>
        <time>2018-06-18T05:43:49Z</time>
      </trkpt>
      <trkpt lat="42.10508" lon="9.12374">
        <ele>1550</ele>
        <time>2018-06-18T05:44:07Z</time>
      </trkpt>
      <trkpt lat="42.10504" lon="9.12382">
        <ele>1552</ele>
        <time>2018-06-18T05:44:21Z</time>
      </trkpt>
      <trkpt lat="42.10501" lon="9.12392">
        <ele>1556</ele>
        <time>2018-06-18T05:44:38Z</time>
      </trkpt>
      <trkpt lat="42.10498" lon="9.12399">
        <ele>1562</ele>
        <time>2018-06-18T05:44:56Z</time>
      </trkpt>
      <trkpt lat="42.10496" lon="9.12409">
        <ele>1566</ele>
        <time>2018-06-18T05:45:14Z</time>
      </trkpt>
      <trkpt lat="42.10493" lon="9.12417">
        <ele>1572</ele>
        <time>2018-06-18T05:45:29Z</time>
      </trkpt>
      <trkpt lat="42.10485" lon="9.12425">
        <ele>1574</ele>
        <time>2018-06-18T05:45:46Z</time>
      </trkpt>
      <trkpt lat="42.1048" lon="9.12434">
        <ele>1576</ele>
        <time>2018-06-18T05:46:04Z</time>
      </trkpt>
      <trkpt lat="42.10475" lon="9.12443">
        <ele>1577</ele>
        <time>2018-06-18T05:46:22Z</time>
      </trkpt>
      <trkpt lat="42.10469" lon="9.12449">
        <ele>1578</ele>
        <time>2018-06-18T05:46:36Z</time>
      </trkpt>
      <trkpt lat="42.10462" lon="9.12453">
        <ele>1578</ele>
        <time>2018-06-18T05:46:51Z</time>
      </trkpt>
      <trkpt lat="42.10456" lon="9.12459">
        <ele>1579</ele>
        <time>2018-06-18T05:47:08Z</time>
      </trkpt>
      <trkpt lat="42.1045" lon="9.12464">
        <ele>1579</ele>
        <time>2018-06-18T05:47:23Z</time>
      </trkpt>
      <trkpt lat="42.10448" lon="9.1247">
        <ele>1580</ele>
        <time>2018-06-18T05:47:37Z</time>
      </trkpt>
      <trkpt lat="42.10438" lon="9.12475">
        <ele>1581</ele>
        <time>2018-06-18T05:47:55Z</time>
      </trkpt>
      <trkpt lat="42.10429" lon="9.12486">
        <ele>1584</ele>
        <time>2018-06-18T05:48:13Z</time>
      </trkpt>
      <trkpt lat="42.10421" lon="9.12495">
        <ele>1587</ele>
        <time>2018-06-18T05:48:31Z</time>
      </trkpt>
      <trkpt lat="42.10414" lon="9.12502">
        <ele>1590</ele>
        <time>2018-06-18T05:48:48Z</time>
      </trkpt>
      <trkpt lat="42.10404" lon="9.12505">
        <ele>1591</ele>
        <time>2018-06-18T05:49:06Z</time>
      </trkpt>
      <trkpt lat="42.10396" lon="9.12509">
        <ele>1591</ele>
        <time>2018-06-18T05:49:21Z</time>
      </trkpt>
      <trkpt lat="42.10386" lon="9.12512">
        <ele>1592</ele>
        <time>2018-06-18T05:49:39Z</time>
      </trkpt>
      <trkpt lat="42.10379" lon="9.12513">
        <ele>1593</ele>
        <time>2018-06-18T05:49:53Z</time>
      </trkpt>
      <trkpt lat="42.10369" lon="9.12507">
        <ele>1594</ele>
        <time>2018-06-18T05:50:09Z</time>
      </trkpt>
      <trkpt lat="42.10361" lon="9.12506">
        <ele>1596</ele>
        <time>2018-06-18T05:50:24Z</time>
      </trkpt>
      <trkpt lat="42.10356" lon="9.12509">
        <ele>1596</ele>
        <time>2018-06-18T05:50:39Z</time>
      </trkpt>
      <trkpt lat="42.10349" lon="9.12514">
        <ele>1597</ele>
        <time>2018-06-18T05:50:54Z</time>
      </trkpt>
      <trkpt lat="42.10338" lon="9.12516">
        <ele>1598</ele>
        <time>2018-06-18T05:51:13Z</time>
      </trkpt>
      <trkpt lat="42.10328" lon="9.12519">
        <ele>1610</ele>
        <time>2018-06-18T05:51:30Z</time>
      </trkpt>
      <trkpt lat="42.10316" lon="9.1252">
        <ele>1612</ele>
        <time>2018-06-18T05:51:51Z</time>
      </trkpt>
      <trkpt lat="42.10305" lon="9.1252">
        <ele>1614</ele>
        <time>2018-06-18T05:52:11Z</time>
      </trkpt>
      <trkpt lat="42.10296" lon="9.12519">
        <ele>1616</ele>
        <time>2018-06-18T05:52:29Z</time>
      </trkpt>
      <trkpt lat="42.10289" lon="9.12523">
        <ele>1618</ele>
        <time>2018-06-18T05:52:46Z</time>
      </trkpt>
      <trkpt lat="42.10282" lon="9.12524">
        <ele>1619</ele>
        <time>2018-06-18T05:53:02Z</time>
      </trkpt>
      <trkpt lat="42.10277" lon="9.1252">
        <ele>1621</ele>
        <time>2018-06-18T05:53:18Z</time>
      </trkpt>
      <trkpt lat="42.1027" lon="9.12515">
        <ele>1623</ele>
        <time>2018-06-18T05:53:34Z</time>
      </trkpt>
      <trkpt lat="42.10264" lon="9.12512">
        <ele>1625</ele>
        <time>2018-06-18T05:53:49Z</time>
      </trkpt>
      <trkpt lat="42.10259" lon="9.12515">
        <ele>1626</ele>
        <time>2018-06-18T05:54:05Z</time>
      </trkpt>
      <trkpt lat="42.10252" lon="9.12516">
        <ele>1627</ele>
        <time>2018-06-18T05:54:23Z</time>
      </trkpt>
      <trkpt lat="42.10245" lon="9.12511">
        <ele>1642</ele>
        <time>2018-06-18T05:54:42Z</time>
      </trkpt>
      <trkpt lat="42.1024" lon="9.12516">
        <ele>1644</ele>
        <time>2018-06-18T05:54:59Z</time>
      </trkpt>
      <trkpt lat="42.10237" lon="9.12515">
        <ele>1645</ele>
        <time>2018-06-18T05:55:14Z</time>
      </trkpt>
      <trkpt lat="42.10234" lon="9.12516">
        <ele>1646</ele>
        <time>2018-06-18T05:55:33Z</time>
      </trkpt>
      <trkpt lat="42.10227" lon="9.12513">
        <ele>1647</ele>
        <time>2018-06-18T05:55:49Z</time>
      </trkpt>
      <trkpt lat="42.10221" lon="9.12512">
        <ele>1649</ele>
        <time>2018-06-18T05:56:05Z</time>
      </trkpt>
      <trkpt lat="42.10215" lon="9.12512">
        <ele>1651</ele>
        <time>2018-06-18T05:56:21Z</time>
      </trkpt>
      <trkpt lat="42.10211" lon="9.1251">
        <ele>1653</ele>
        <time>2018-06-18T05:56:35Z</time>
      </trkpt>
      <trkpt lat="42.10208" lon="9.12518">
        <ele>1654</ele>
        <time>2018-06-18T05:56:52Z</time>
      </trkpt>
      <trkpt lat="42.10204" lon="9.12518">
        <ele>1655</ele>
        <time>2018-06-18T05:57:05Z</time>
      </trkpt>
      <trkpt lat="42.10199" lon="9.12512">
        <ele>1657</ele>
        <time>2018-06-18T05:57:22Z</time>
      </trkpt>
      <trkpt lat="42.10195" lon="9.12516">
        <ele>1658</ele>
        <time>2018-06-18T05:57:39Z</time>
      </trkpt>
      <trkpt lat="42.10191" lon="9.12514">
        <ele>1659</ele>
        <time>2018-06-18T05:57:54Z</time>
      </trkpt>
      <trkpt lat="42.10186" lon="9.1252">
        <ele>1660</ele>
        <time>2018-06-18T05:58:09Z</time>
      </trkpt>
      <trkpt lat="42.1018" lon="9.12519">
        <ele>1662</ele>
        <time>2018-06-18T05:58:24Z</time>
      </trkpt>
      <trkpt lat="42.10175" lon="9.12513">
        <ele>1665</ele>
        <time>2018-06-18T05:58:40Z</time>
      </trkpt>
      <trkpt lat="42.10171" lon="9.12513">
        <ele>1666</ele>
        <time>2018-06-18T05:58:58Z</time>
      </trkpt>
      <trkpt lat="42.10166" lon="9.12509">
        <ele>1679</ele>
        <time>2018-06-18T05:59:12Z</time>
      </trkpt>
      <trkpt lat="42.10161" lon="9.12505">
        <ele>1679</ele>
        <time>2018-06-18T05:59:27Z</time>
      </trkpt>
      <trkpt lat="42.10159" lon="9.12507">
        <ele>1680</ele>
        <time>2018-06-18T05:59:39Z</time>
      </trkpt>
      <trkpt lat="42.10156" lon="9.12506">
        <ele>1681</ele>
        <time>2018-06-18T05:59:52Z</time>
      </trkpt>
      <trkpt lat="42.10155" lon="9.1251">
        <ele>1682</ele>
        <time>2018-06-18T06:00:08Z</time>
      </trkpt>
      <trkpt lat="42.10152" lon="9.12515">
        <ele>1683</ele>
        <time>2018-06-18T06:00:22Z</time>
      </trkpt>
      <trkpt lat="42.10148" lon="9.12513">
        <ele>1684</ele>
        <time>2018-06-18T06:00:36Z</time>
      </trkpt>
      <trkpt lat="42.10144" lon="9.12513">
        <ele>1685</ele>
        <time>2018-06-18T06:00:49Z</time>
      </trkpt>
      <trkpt lat="42.10139" lon="9.12509">
        <ele>1686</ele>
        <time>2018-06-18T06:01:03Z</time>
      </trkpt>
      <trkpt lat="42.10134" lon="9.12511">
        <ele>1688</ele>
        <time>2018-06-18T06:01:18Z</time>
      </trkpt>
      <trkpt lat="42.1013" lon="9.12506">
        <ele>1689</ele>
        <time>2018-06-18T06:01:33Z</time>
      </trkpt>
      <trkpt lat="42.10125" lon="9.12501">
        <ele>1690</ele>
        <time>2018-06-18T06:01:47Z</time>
      </trkpt>
      <trkpt lat="42.10117" lon="9.125">
        <ele>1693</ele>
        <time>2018-06-18T06:02:03Z</time>
      </trkpt>
      <trkpt lat="42.10109" lon="9.12498">
        <ele>1688</ele>
        <time>2018-06-18T06:02:20Z</time>
      </trkpt>
      <trkpt lat="42.10105" lon="9.12502">
        <ele>1696</ele>
        <time>2018-06-18T06:02:35Z</time>
      </trkpt>
      <trkpt lat="42.10099" lon="9.12507">
        <ele>1698</ele>
        <time>2018-06-18T06:02:51Z</time>
      </trkpt>
      <trkpt lat="42.10091" lon="9.12504">
        <ele>1701</ele>
        <time>2018-06-18T06:03:06Z</time>
      </trkpt>
      <trkpt lat="42.10084" lon="9.12503">
        <ele>1704</ele>
        <time>2018-06-18T06:03:22Z</time>
      </trkpt>
      <trkpt lat="42.10074" lon="9.12502">
        <ele>1710</ele>
        <time>2018-06-18T06:03:41Z</time>
      </trkpt>
      <trkpt lat="42.10072" lon="9.1251">
        <ele>1711</ele>
        <time>2018-06-18T06:03:57Z</time>
      </trkpt>
      <trkpt lat="42.10063" lon="9.12512">
        <ele>1713</ele>
        <time>2018-06-18T06:04:16Z</time>
      </trkpt>
      <trkpt lat="42.10054" lon="9.12514">
        <ele>1715</ele>
        <time>2018-06-18T06:04:34Z</time>
      </trkpt>
      <trkpt lat="42.10046" lon="9.12517">
        <ele>1716</ele>
        <time>2018-06-18T06:04:50Z</time>
      </trkpt>
      <trkpt lat="42.10036" lon="9.12518">
        <ele>1718</ele>
        <time>2018-06-18T06:05:08Z</time>
      </trkpt>
      <trkpt lat="42.10026" lon="9.12516">
        <ele>1720</ele>
        <time>2018-06-18T06:05:26Z</time>
      </trkpt>
      <trkpt lat="42.10018" lon="9.12519">
        <ele>1721</ele>
        <time>2018-06-18T06:05:43Z</time>
      </trkpt>
      <trkpt lat="42.10011" lon="9.12519">
        <ele>1722</ele>
        <time>2018-06-18T06:05:59Z</time>
      </trkpt>
      <trkpt lat="42.10002" lon="9.12517">
        <ele>1724</ele>
        <time>2018-06-18T06:06:18Z</time>
      </trkpt>
      <trkpt lat="42.09998" lon="9.1252">
        <ele>1737</ele>
        <time>2018-06-18T06:06:32Z</time>
      </trkpt>
      <trkpt lat="42.09995" lon="9.12524">
        <ele>1738</ele>
        <time>2018-06-18T06:06:48Z</time>
      </trkpt>
      <trkpt lat="42.09989" lon="9.12527">
        <ele>1739</ele>
        <time>2018-06-18T06:07:03Z</time>
      </trkpt>
      <trkpt lat="42.09981" lon="9.1252">
        <ele>1739</ele>
        <time>2018-06-18T06:07:22Z</time>
      </trkpt>
      <trkpt lat="42.09972" lon="9.12516">
        <ele>1741</ele>
        <time>2018-06-18T06:07:39Z</time>
      </trkpt>
      <trkpt lat="42.09969" lon="9.12522">
        <ele>1742</ele>
        <time>2018-06-18T06:07:54Z</time>
      </trkpt>
      <trkpt lat="42.09963" lon="9.12522">
        <ele>1743</ele>
        <time>2018-06-18T06:08:07Z</time>
      </trkpt>
      <trkpt lat="42.09964" lon="9.1253">
        <ele>1743</ele>
        <time>2018-06-18T06:08:21Z</time>
      </trkpt>
      <trkpt lat="42.09958" lon="9.12534">
        <ele>1745</ele>
        <time>2018-06-18T06:08:37Z</time>
      </trkpt>
      <trkpt lat="42.09952" lon="9.12533">
        <ele>1746</ele>
        <time>2018-06-18T06:08:51Z</time>
      </trkpt>
      <trkpt lat="42.09946" lon="9.1253">
        <ele>1747</ele>
        <time>2018-06-18T06:09:06Z</time>
      </trkpt>
      <trkpt lat="42.09942" lon="9.12529">
        <ele>1747</ele>
        <time>2018-06-18T06:09:26Z</time>
      </trkpt>
      <trkpt lat="42.09938" lon="9.1253">
        <ele>1748</ele>
        <time>2018-06-18T06:09:48Z</time>
      </trkpt>
      <trkpt lat="42.0993" lon="9.1253">
        <ele>1749</ele>
        <time>2018-06-18T06:10:06Z</time>
      </trkpt>
      <trkpt lat="42.09923" lon="9.12534">
        <ele>1750</ele>
        <time>2018-06-18T06:10:25Z</time>
      </trkpt>
      <trkpt lat="42.09916" lon="9.12536">
        <ele>1769</ele>
        <time>2018-06-18T06:10:44Z</time>
      </trkpt>
      <trkpt lat="42.09908" lon="9.12535">
        <ele>1769</ele>
        <time>2018-06-18T06:11:02Z</time>
      </trkpt>
      <trkpt lat="42.09901" lon="9.12537">
        <ele>1770</ele>
        <time>2018-06-18T06:11:22Z</time>
      </trkpt>
      <trkpt lat="42.09896" lon="9.12542">
        <ele>1772</ele>
        <time>2018-06-18T06:11:39Z</time>
      </trkpt>
      <trkpt lat="42.09891" lon="9.12545">
        <ele>1772</ele>
        <time>2018-06-18T06:11:56Z</time>
      </trkpt>
      <trkpt lat="42.0989" lon="9.12554">
        <ele>1773</ele>
        <time>2018-06-18T06:12:11Z</time>
      </trkpt>
      <trkpt lat="42.09883" lon="9.12555">
        <ele>1774</ele>
        <time>2018-06-18T06:12:27Z</time>
      </trkpt>
      <trkpt lat="42.09878" lon="9.12565">
        <ele>1776</ele>
        <time>2018-06-18T06:12:44Z</time>
      </trkpt>
      <trkpt lat="42.09871" lon="9.12569">
        <ele>1778</ele>
        <time>2018-06-18T06:13:02Z</time>
      </trkpt>
      <trkpt lat="42.09865" lon="9.12566">
        <ele>1779</ele>
        <time>2018-06-18T06:13:19Z</time>
      </trkpt>
      <trkpt lat="42.09859" lon="9.12565">
        <ele>1780</ele>
        <time>2018-06-18T06:13:33Z</time>
      </trkpt>
      <trkpt lat="42.09854" lon="9.12564">
        <ele>1782</ele>
        <time>2018-06-18T06:13:47Z</time>
      </trkpt>
      <trkpt lat="42.09849" lon="9.12567">
        <ele>1784</ele>
        <time>2018-06-18T06:14:03Z</time>
      </trkpt>
      <trkpt lat="42.09844" lon="9.12574">
        <ele>1787</ele>
        <time>2018-06-18T06:14:17Z</time>
      </trkpt>
      <trkpt lat="42.09839" lon="9.12582">
        <ele>1792</ele>
        <time>2018-06-18T06:14:34Z</time>
      </trkpt>
      <trkpt lat="42.09839" lon="9.12589">
        <ele>1791</ele>
        <time>2018-06-18T06:14:52Z</time>
      </trkpt>
      <trkpt lat="42.09837" lon="9.12599">
        <ele>1788</ele>
        <time>2018-06-18T06:15:04Z</time>
      </trkpt>
      <trkpt lat="42.09835" lon="9.1261">
        <ele>1785</ele>
        <time>2018-06-18T06:15:19Z</time>
      </trkpt>
      <trkpt lat="42.0983" lon="9.1262">
        <ele>1797</ele>
        <time>2018-06-18T06:15:35Z</time>
      </trkpt>
      <trkpt lat="42.09826" lon="9.1263">
        <ele>1797</ele>
        <time>2018-06-18T06:15:50Z</time>
      </trkpt>
      <trkpt lat="42.09822" lon="9.12636">
        <ele>1797</ele>
        <time>2018-06-18T06:16:07Z</time>
      </trkpt>
      <trkpt lat="42.09819" lon="9.12646">
        <ele>1798</ele>
        <time>2018-06-18T06:16:22Z</time>
      </trkpt>
      <trkpt lat="42.09815" lon="9.12656">
        <ele>1798</ele>
        <time>2018-06-18T06:16:37Z</time>
      </trkpt>
      <trkpt lat="42.09813" lon="9.12666">
        <ele>1798</ele>
        <time>2018-06-18T06:16:51Z</time>
      </trkpt>
      <trkpt lat="42.09807" lon="9.12677">
        <ele>1798</ele>
        <time>2018-06-18T06:17:08Z</time>
      </trkpt>
      <trkpt lat="42.09801" lon="9.12686">
        <ele>1799</ele>
        <time>2018-06-18T06:17:23Z</time>
      </trkpt>
      <trkpt lat="42.09793" lon="9.12691">
        <ele>1800</ele>
        <time>2018-06-18T06:17:40Z</time>
      </trkpt>
      <trkpt lat="42.09783" lon="9.127">
        <ele>1801</ele>
        <time>2018-06-18T06:18:00Z</time>
      </trkpt>
      <trkpt lat="42.09776" lon="9.12702">
        <ele>1803</ele>
        <time>2018-06-18T06:18:15Z</time>
      </trkpt>
      <trkpt lat="42.09771" lon="9.12705">
        <ele>1803</ele>
        <time>2018-06-18T06:18:28Z</time>
      </trkpt>
      <trkpt lat="42.09766" lon="9.12704">
        <ele>1804</ele>
        <time>2018-06-18T06:18:42Z</time>
      </trkpt>
      <trkpt lat="42.09758" lon="9.12707">
        <ele>1805</ele>
        <time>2018-06-18T06:18:59Z</time>
      </trkpt>
      <trkpt lat="42.09747" lon="9.12716">
        <ele>1818</ele>
        <time>2018-06-18T06:19:19Z</time>
      </trkpt>
      <trkpt lat="42.09738" lon="9.12724">
        <ele>1818</ele>
        <time>2018-06-18T06:19:36Z</time>
      </trkpt>
      <trkpt lat="42.09728" lon="9.1273">
        <ele>1818</ele>
        <time>2018-06-18T06:19:51Z</time>
      </trkpt>
      <trkpt lat="42.09718" lon="9.12735">
        <ele>1819</ele>
        <time>2018-06-18T06:20:07Z</time>
      </trkpt>
      <trkpt lat="42.09708" lon="9.12738">
        <ele>1819</ele>
        <time>2018-06-18T06:20:22Z</time>
      </trkpt>
      <trkpt lat="42.097" lon="9.1274">
        <ele>1820</ele>
        <time>2018-06-18T06:20:37Z</time>
      </trkpt>
      <trkpt lat="42.09693" lon="9.12739">
        <ele>1821</ele>
        <time>2018-06-18T06:20:52Z</time>
      </trkpt>
      <trkpt lat="42.0968" lon="9.12744">
        <ele>1823</ele>
        <time>2018-06-18T06:21:09Z</time>
      </trkpt>
      <trkpt lat="42.09665" lon="9.12748">
        <ele>1826</ele>
        <time>2018-06-18T06:21:29Z</time>
      </trkpt>
      <trkpt lat="42.09655" lon="9.12756">
        <ele>1823</ele>
        <time>2018-06-18T06:21:46Z</time>
      </trkpt>
      <trkpt lat="42.09646" lon="9.12763">
        <ele>1820</ele>
        <time>2018-06-18T06:22:00Z</time>
      </trkpt>
      <trkpt lat="42.09631" lon="9.12766">
        <ele>1818</ele>
        <time>2018-06-18T06:22:19Z</time>
      </trkpt>
      <trkpt lat="42.09621" lon="9.12768">
        <ele>1817</ele>
        <time>2018-06-18T06:22:34Z</time>
      </trkpt>
      <trkpt lat="42.0961" lon="9.1277">
        <ele>1817</ele>
        <time>2018-06-18T06:22:49Z</time>
      </trkpt>
      <trkpt lat="42.09597" lon="9.12776">
        <ele>1816</ele>
        <time>2018-06-18T06:23:06Z</time>
      </trkpt>
      <trkpt lat="42.09584" lon="9.12784">
        <ele>1816</ele>
        <time>2018-06-18T06:23:23Z</time>
      </trkpt>
      <trkpt lat="42.09574" lon="9.12787">
        <ele>1821</ele>
        <time>2018-06-18T06:23:38Z</time>
      </trkpt>
      <trkpt lat="42.09564" lon="9.12789">
        <ele>1821</ele>
        <time>2018-06-18T06:23:53Z</time>
      </trkpt>
      <trkpt lat="42.09557" lon="9.12794">
        <ele>1822</ele>
        <time>2018-06-18T06:24:09Z</time>
      </trkpt>
      <trkpt lat="42.0955" lon="9.12797">
        <ele>1823</ele>
        <time>2018-06-18T06:24:24Z</time>
      </trkpt>
      <trkpt lat="42.09545" lon="9.12805">
        <ele>1824</ele>
        <time>2018-06-18T06:24:39Z</time>
      </trkpt>
      <trkpt lat="42.09537" lon="9.1281">
        <ele>1826</ele>
        <time>2018-06-18T06:24:54Z</time>
      </trkpt>
      <trkpt lat="42.0953" lon="9.12811">
        <ele>1827</ele>
        <time>2018-06-18T06:25:11Z</time>
      </trkpt>
      <trkpt lat="42.09525" lon="9.12818">
        <ele>1829</ele>
        <time>2018-06-18T06:25:28Z</time>
      </trkpt>
      <trkpt lat="42.09519" lon="9.1282">
        <ele>1831</ele>
        <time>2018-06-18T06:25:42Z</time>
      </trkpt>
      <trkpt lat="42.09514" lon="9.12827">
        <ele>1835</ele>
        <time>2018-06-18T06:25:57Z</time>
      </trkpt>
      <trkpt lat="42.09504" lon="9.12826">
        <ele>1839</ele>
        <time>2018-06-18T06:26:15Z</time>
      </trkpt>
      <trkpt lat="42.09499" lon="9.12832">
        <ele>1845</ele>
        <time>2018-06-18T06:26:29Z</time>
      </trkpt>
      <trkpt lat="42.09497" lon="9.12837">
        <ele>1846</ele>
        <time>2018-06-18T06:26:43Z</time>
      </trkpt>
      <trkpt lat="42.0949" lon="9.12839">
        <ele>1847</ele>
        <time>2018-06-18T06:26:58Z</time>
      </trkpt>
      <trkpt lat="42.09488" lon="9.12846">
        <ele>1847</ele>
        <time>2018-06-18T06:27:12Z</time>
      </trkpt>
      <trkpt lat="42.09482" lon="9.12849">
        <ele>1848</ele>
        <time>2018-06-18T06:27:26Z</time>
      </trkpt>
      <trkpt lat="42.09476" lon="9.12852">
        <ele>1848</ele>
        <time>2018-06-18T06:27:41Z</time>
      </trkpt>
      <trkpt lat="42.09472" lon="9.12857">
        <ele>1848</ele>
        <time>2018-06-18T06:27:56Z</time>
      </trkpt>
      <trkpt lat="42.09465" lon="9.1286">
        <ele>1848</ele>
        <time>2018-06-18T06:28:13Z</time>
      </trkpt>
      <trkpt lat="42.09456" lon="9.12862">
        <ele>1849</ele>
        <time>2018-06-18T06:28:30Z</time>
      </trkpt>
      <trkpt lat="42.09446" lon="9.12862">
        <ele>1849</ele>
        <time>2018-06-18T06:28:48Z</time>
      </trkpt>
      <trkpt lat="42.09438" lon="9.12866">
        <ele>1850</ele>
        <time>2018-06-18T06:29:05Z</time>
      </trkpt>
      <trkpt lat="42.09431" lon="9.12877">
        <ele>1851</ele>
        <time>2018-06-18T06:29:23Z</time>
      </trkpt>
      <trkpt lat="42.09427" lon="9.12891">
        <ele>1854</ele>
        <time>2018-06-18T06:29:38Z</time>
      </trkpt>
      <trkpt lat="42.09418" lon="9.12911">
        <ele>1862</ele>
        <time>2018-06-18T06:29:58Z</time>
      </trkpt>
      <trkpt lat="42.09406" lon="9.12931">
        <ele>1867</ele>
        <time>2018-06-18T06:30:20Z</time>
      </trkpt>
      <trkpt lat="42.09393" lon="9.12943">
        <ele>1868</ele>
        <time>2018-06-18T06:30:39Z</time>
      </trkpt>
      <trkpt lat="42.09385" lon="9.12951">
        <ele>1868</ele>
        <time>2018-06-18T06:30:55Z</time>
      </trkpt>
      <trkpt lat="42.09375" lon="9.12964">
        <ele>1870</ele>
        <time>2018-06-18T06:31:18Z</time>
      </trkpt>
      <trkpt lat="42.09366" lon="9.1297">
        <ele>1871</ele>
        <time>2018-06-18T06:31:36Z</time>
      </trkpt>
      <trkpt lat="42.09362" lon="9.12977">
        <ele>1873</ele>
        <time>2018-06-18T06:31:52Z</time>
      </trkpt>
      <trkpt lat="42.09359" lon="9.12985">
        <ele>1874</ele>
        <time>2018-06-18T06:32:07Z</time>
      </trkpt>
      <trkpt lat="42.09355" lon="9.12998">
        <ele>1877</ele>
        <time>2018-06-18T06:32:26Z</time>
      </trkpt>
      <trkpt lat="42.09344" lon="9.13006">
        <ele>1885</ele>
        <time>2018-06-18T06:32:45Z</time>
      </trkpt>
      <trkpt lat="42.09335" lon="9.13014">
        <ele>1886</ele>
        <time>2018-06-18T06:33:03Z</time>
      </trkpt>
      <trkpt lat="42.09327" lon="9.13021">
        <ele>1898</ele>
        <time>2018-06-18T06:33:19Z</time>
      </trkpt>
      <trkpt lat="42.09314" lon="9.13025">
        <ele>1900</ele>
        <time>2018-06-18T06:33:38Z</time>
      </trkpt>
      <trkpt lat="42.09305" lon="9.13031">
        <ele>1903</ele>
        <time>2018-06-18T06:33:54Z</time>
      </trkpt>
      <trkpt lat="42.093" lon="9.13031">
        <ele>1903</ele>
        <time>2018-06-18T06:34:00Z</time>
      </trkpt>
      <trkpt lat="42.09288" lon="9.13035">
        <ele>1905</ele>
        <time>2018-06-18T06:34:16Z</time>
      </trkpt>
      <trkpt lat="42.0928" lon="9.13036">
        <ele>1906</ele>
        <time>2018-06-18T06:34:26Z</time>
      </trkpt>
      <trkpt lat="42.09267" lon="9.13036">
        <ele>1907</ele>
        <time>2018-06-18T06:34:43Z</time>
      </trkpt>
      <trkpt lat="42.09256" lon="9.13036">
        <ele>1907</ele>
        <time>2018-06-18T06:34:59Z</time>
      </trkpt>
      <trkpt lat="42.09246" lon="9.13034">
        <ele>1916</ele>
        <time>2018-06-18T06:35:15Z</time>
      </trkpt>
      <trkpt lat="42.09233" lon="9.1303">
        <ele>1915</ele>
        <time>2018-06-18T06:35:33Z</time>
      </trkpt>
      <trkpt lat="42.09224" lon="9.13026">
        <ele>1915</ele>
        <time>2018-06-18T06:35:47Z</time>
      </trkpt>
      <trkpt lat="42.09215" lon="9.13018">
        <ele>1914</ele>
        <time>2018-06-18T06:36:03Z</time>
      </trkpt>
      <trkpt lat="42.09209" lon="9.13022">
        <ele>1915</ele>
        <time>2018-06-18T06:36:18Z</time>
      </trkpt>
      <trkpt lat="42.09209" lon="9.13023">
        <ele>1915</ele>
        <time>2018-06-18T06:36:34Z</time>
      </trkpt>
      <trkpt lat="42.09211" lon="9.13022">
        <ele>1915</ele>
        <time>2018-06-18T06:37:01Z</time>
      </trkpt>
      <trkpt lat="42.09218" lon="9.13028">
        <ele>1916</ele>
        <time>2018-06-18T06:37:37Z</time>
      </trkpt>
      <trkpt lat="42.09214" lon="9.13026">
        <ele>1916</ele>
        <time>2018-06-18T06:38:51Z</time>
      </trkpt>
      <trkpt lat="42.09211" lon="9.13022">
        <ele>1915</ele>
        <time>2018-06-18T06:39:27Z</time>
      </trkpt>
      <trkpt lat="42.09211" lon="9.13022">
        <ele>1915</ele>
        <time>2018-06-18T06:39:51Z</time>
      </trkpt>
      <trkpt lat="42.09203" lon="9.13024">
        <ele>1916</ele>
        <time>2018-06-18T06:40:19Z</time>
      </trkpt>
      <trkpt lat="42.09201" lon="9.13025">
        <ele>1916</ele>
        <time>2018-06-18T06:40:22Z</time>
      </trkpt>
      <trkpt lat="42.0919" lon="9.13026">
        <ele>1916</ele>
        <time>2018-06-18T06:40:35Z</time>
      </trkpt>
      <trkpt lat="42.09183" lon="9.13026">
        <ele>1915</ele>
        <time>2018-06-18T06:40:42Z</time>
      </trkpt>
      <trkpt lat="42.09172" lon="9.13023">
        <ele>1913</ele>
        <time>2018-06-18T06:40:58Z</time>
      </trkpt>
      <trkpt lat="42.09167" lon="9.13023">
        <ele>1913</ele>
        <time>2018-06-18T06:41:11Z</time>
      </trkpt>
      <trkpt lat="42.09162" lon="9.13023">
        <ele>1915</ele>
        <time>2018-06-18T06:41:26Z</time>
      </trkpt>
      <trkpt lat="42.09156" lon="9.13025">
        <ele>1916</ele>
        <time>2018-06-18T06:41:41Z</time>
      </trkpt>
      <trkpt lat="42.09149" lon="9.13028">
        <ele>1918</ele>
        <time>2018-06-18T06:41:53Z</time>
      </trkpt>
      <trkpt lat="42.09141" lon="9.13026">
        <ele>1918</ele>
        <time>2018-06-18T06:42:07Z</time>
      </trkpt>
      <trkpt lat="42.0913" lon="9.1303">
        <ele>1920</ele>
        <time>2018-06-18T06:42:24Z</time>
      </trkpt>
      <trkpt lat="42.09118" lon="9.13027">
        <ele>1919</ele>
        <time>2018-06-18T06:42:42Z</time>
      </trkpt>
      <trkpt lat="42.09107" lon="9.13016">
        <ele>1916</ele>
        <time>2018-06-18T06:43:02Z</time>
      </trkpt>
      <trkpt lat="42.09102" lon="9.13007">
        <ele>1913</ele>
        <time>2018-06-18T06:43:17Z</time>
      </trkpt>
      <trkpt lat="42.09099" lon="9.13006">
        <ele>1912</ele>
        <time>2018-06-18T06:43:34Z</time>
      </trkpt>
      <trkpt lat="42.09087" lon="9.13002">
        <ele>1907</ele>
        <time>2018-06-18T06:43:54Z</time>
      </trkpt>
      <trkpt lat="42.09079" lon="9.13005">
        <ele>1904</ele>
        <time>2018-06-18T06:44:11Z</time>
      </trkpt>
      <trkpt lat="42.09078" lon="9.1301">
        <ele>1904</ele>
        <time>2018-06-18T06:44:26Z</time>
      </trkpt>
      <trkpt lat="42.09075" lon="9.13012">
        <ele>1903</ele>
        <time>2018-06-18T06:44:39Z</time>
      </trkpt>
      <trkpt lat="42.09074" lon="9.13017">
        <ele>1904</ele>
        <time>2018-06-18T06:44:49Z</time>
      </trkpt>
      <trkpt lat="42.09068" lon="9.13029">
        <ele>1905</ele>
        <time>2018-06-18T06:45:03Z</time>
      </trkpt>
      <trkpt lat="42.09062" lon="9.1304">
        <ele>1906</ele>
        <time>2018-06-18T06:45:20Z</time>
      </trkpt>
      <trkpt lat="42.09054" lon="9.13041">
        <ele>1904</ele>
        <time>2018-06-18T06:45:35Z</time>
      </trkpt>
      <trkpt lat="42.09049" lon="9.13042">
        <ele>1903</ele>
        <time>2018-06-18T06:45:48Z</time>
      </trkpt>
      <trkpt lat="42.09046" lon="9.13047">
        <ele>1904</ele>
        <time>2018-06-18T06:46:04Z</time>
      </trkpt>
      <trkpt lat="42.09042" lon="9.13054">
        <ele>1904</ele>
        <time>2018-06-18T06:46:17Z</time>
      </trkpt>
      <trkpt lat="42.09039" lon="9.13058">
        <ele>1904</ele>
        <time>2018-06-18T06:46:41Z</time>
      </trkpt>
      <trkpt lat="42.09031" lon="9.1307">
        <ele>1903</ele>
        <time>2018-06-18T06:46:58Z</time>
      </trkpt>
      <trkpt lat="42.09024" lon="9.13073">
        <ele>1901</ele>
        <time>2018-06-18T06:47:11Z</time>
      </trkpt>
      <trkpt lat="42.0902" lon="9.13077">
        <ele>1900</ele>
        <time>2018-06-18T06:47:24Z</time>
      </trkpt>
      <trkpt lat="42.09018" lon="9.13079">
        <ele>1899</ele>
        <time>2018-06-18T06:47:39Z</time>
      </trkpt>
      <trkpt lat="42.09015" lon="9.13077">
        <ele>1899</ele>
        <time>2018-06-18T06:47:53Z</time>
      </trkpt>
      <trkpt lat="42.09011" lon="9.13078">
        <ele>1897</ele>
        <time>2018-06-18T06:48:07Z</time>
      </trkpt>
      <trkpt lat="42.09002" lon="9.13081">
        <ele>1895</ele>
        <time>2018-06-18T06:48:21Z</time>
      </trkpt>
      <trkpt lat="42.08999" lon="9.13081">
        <ele>1891</ele>
        <time>2018-06-18T06:48:37Z</time>
      </trkpt>
      <trkpt lat="42.08995" lon="9.13081">
        <ele>1888</ele>
        <time>2018-06-18T06:48:50Z</time>
      </trkpt>
      <trkpt lat="42.08994" lon="9.13078">
        <ele>1886</ele>
        <time>2018-06-18T06:49:04Z</time>
      </trkpt>
      <trkpt lat="42.08988" lon="9.13079">
        <ele>1882</ele>
        <time>2018-06-18T06:49:16Z</time>
      </trkpt>
      <trkpt lat="42.08986" lon="9.1308">
        <ele>1881</ele>
        <time>2018-06-18T06:49:19Z</time>
      </trkpt>
      <trkpt lat="42.08978" lon="9.1309">
        <ele>1894</ele>
        <time>2018-06-18T06:49:35Z</time>
      </trkpt>
      <trkpt lat="42.08972" lon="9.13098">
        <ele>1895</ele>
        <time>2018-06-18T06:49:50Z</time>
      </trkpt>
      <trkpt lat="42.0897" lon="9.13107">
        <ele>1896</ele>
        <time>2018-06-18T06:50:07Z</time>
      </trkpt>
      <trkpt lat="42.08967" lon="9.13116">
        <ele>1897</ele>
        <time>2018-06-18T06:50:23Z</time>
      </trkpt>
      <trkpt lat="42.08962" lon="9.1312">
        <ele>1897</ele>
        <time>2018-06-18T06:50:36Z</time>
      </trkpt>
      <trkpt lat="42.08955" lon="9.13121">
        <ele>1895</ele>
        <time>2018-06-18T06:50:49Z</time>
      </trkpt>
      <trkpt lat="42.08945" lon="9.13126">
        <ele>1894</ele>
        <time>2018-06-18T06:51:04Z</time>
      </trkpt>
      <trkpt lat="42.08936" lon="9.13125">
        <ele>1892</ele>
        <time>2018-06-18T06:51:18Z</time>
      </trkpt>
      <trkpt lat="42.08929" lon="9.13131">
        <ele>1893</ele>
        <time>2018-06-18T06:51:32Z</time>
      </trkpt>
      <trkpt lat="42.08928" lon="9.13131">
        <ele>1893</ele>
        <time>2018-06-18T06:51:34Z</time>
      </trkpt>
      <trkpt lat="42.08917" lon="9.13134">
        <ele>1892</ele>
        <time>2018-06-18T06:51:50Z</time>
      </trkpt>
      <trkpt lat="42.08913" lon="9.1314">
        <ele>1872</ele>
        <time>2018-06-18T06:52:03Z</time>
      </trkpt>
      <trkpt lat="42.0891" lon="9.13146">
        <ele>1875</ele>
        <time>2018-06-18T06:52:20Z</time>
      </trkpt>
      <trkpt lat="42.08903" lon="9.13155">
        <ele>1877</ele>
        <time>2018-06-18T06:52:35Z</time>
      </trkpt>
      <trkpt lat="42.08898" lon="9.13163">
        <ele>1877</ele>
        <time>2018-06-18T06:52:47Z</time>
      </trkpt>
      <trkpt lat="42.08893" lon="9.13174">
        <ele>1896</ele>
        <time>2018-06-18T06:53:02Z</time>
      </trkpt>
      <trkpt lat="42.08884" lon="9.1318">
        <ele>1895</ele>
        <time>2018-06-18T06:53:17Z</time>
      </trkpt>
      <trkpt lat="42.08876" lon="9.13188">
        <ele>1895</ele>
        <time>2018-06-18T06:53:31Z</time>
      </trkpt>
      <trkpt lat="42.08874" lon="9.13194">
        <ele>1895</ele>
        <time>2018-06-18T06:53:47Z</time>
      </trkpt>
      <trkpt lat="42.08868" lon="9.13201">
        <ele>1895</ele>
        <time>2018-06-18T06:53:56Z</time>
      </trkpt>
      <trkpt lat="42.08861" lon="9.13212">
        <ele>1896</ele>
        <time>2018-06-18T06:54:12Z</time>
      </trkpt>
      <trkpt lat="42.08855" lon="9.13223">
        <ele>1897</ele>
        <time>2018-06-18T06:54:28Z</time>
      </trkpt>
      <trkpt lat="42.08852" lon="9.13231">
        <ele>1897</ele>
        <time>2018-06-18T06:54:44Z</time>
      </trkpt>
      <trkpt lat="42.08856" lon="9.13236">
        <ele>1899</ele>
        <time>2018-06-18T06:54:59Z</time>
      </trkpt>
      <trkpt lat="42.08859" lon="9.13242">
        <ele>1900</ele>
        <time>2018-06-18T06:55:13Z</time>
      </trkpt>
      <trkpt lat="42.0886" lon="9.13251">
        <ele>1923</ele>
        <time>2018-06-18T06:55:27Z</time>
      </trkpt>
      <trkpt lat="42.0886" lon="9.13261">
        <ele>1925</ele>
        <time>2018-06-18T06:55:39Z</time>
      </trkpt>
      <trkpt lat="42.08856" lon="9.13265">
        <ele>1924</ele>
        <time>2018-06-18T06:55:54Z</time>
      </trkpt>
      <trkpt lat="42.08853" lon="9.13266">
        <ele>1922</ele>
        <time>2018-06-18T06:56:08Z</time>
      </trkpt>
      <trkpt lat="42.0885" lon="9.13272">
        <ele>1924</ele>
        <time>2018-06-18T06:56:18Z</time>
      </trkpt>
      <trkpt lat="42.08843" lon="9.13277">
        <ele>1923</ele>
        <time>2018-06-18T06:56:32Z</time>
      </trkpt>
      <trkpt lat="42.08837" lon="9.13285">
        <ele>1926</ele>
        <time>2018-06-18T06:56:47Z</time>
      </trkpt>
      <trkpt lat="42.0883" lon="9.13291">
        <ele>1896</ele>
        <time>2018-06-18T06:57:01Z</time>
      </trkpt>
      <trkpt lat="42.08829" lon="9.13292">
        <ele>1896</ele>
        <time>2018-06-18T06:57:03Z</time>
      </trkpt>
      <trkpt lat="42.08827" lon="9.13295">
        <ele>1897</ele>
        <time>2018-06-18T06:57:06Z</time>
      </trkpt>
      <trkpt lat="42.08821" lon="9.13304">
        <ele>1899</ele>
        <time>2018-06-18T06:57:20Z</time>
      </trkpt>
      <trkpt lat="42.08822" lon="9.13311">
        <ele>1903</ele>
        <time>2018-06-18T06:57:34Z</time>
      </trkpt>
      <trkpt lat="42.08814" lon="9.13317">
        <ele>1902</ele>
        <time>2018-06-18T06:57:49Z</time>
      </trkpt>
      <trkpt lat="42.08806" lon="9.13321">
        <ele>1900</ele>
        <time>2018-06-18T06:58:06Z</time>
      </trkpt>
      <trkpt lat="42.08798" lon="9.13325">
        <ele>1897</ele>
        <time>2018-06-18T06:58:22Z</time>
      </trkpt>
      <trkpt lat="42.08792" lon="9.13323">
        <ele>1895</ele>
        <time>2018-06-18T06:58:37Z</time>
      </trkpt>
      <trkpt lat="42.08789" lon="9.13319">
        <ele>1893</ele>
        <time>2018-06-18T06:58:50Z</time>
      </trkpt>
      <trkpt lat="42.08785" lon="9.13315">
        <ele>1892</ele>
        <time>2018-06-18T06:59:07Z</time>
      </trkpt>
      <trkpt lat="42.08779" lon="9.13315">
        <ele>1890</ele>
        <time>2018-06-18T06:59:23Z</time>
      </trkpt>
      <trkpt lat="42.08778" lon="9.13312">
        <ele>1889</ele>
        <time>2018-06-18T06:59:38Z</time>
      </trkpt>
      <trkpt lat="42.08776" lon="9.13313">
        <ele>1889</ele>
        <time>2018-06-18T06:59:53Z</time>
      </trkpt>
      <trkpt lat="42.08774" lon="9.13313">
        <ele>1889</ele>
        <time>2018-06-18T07:00:13Z</time>
      </trkpt>
      <trkpt lat="42.08772" lon="9.13316">
        <ele>1889</ele>
        <time>2018-06-18T07:00:34Z</time>
      </trkpt>
      <trkpt lat="42.08773" lon="9.13319">
        <ele>1889</ele>
        <time>2018-06-18T07:01:00Z</time>
      </trkpt>
      <trkpt lat="42.08773" lon="9.13328">
        <ele>1890</ele>
        <time>2018-06-18T07:01:20Z</time>
      </trkpt>
      <trkpt lat="42.08769" lon="9.13334">
        <ele>1908</ele>
        <time>2018-06-18T07:01:38Z</time>
      </trkpt>
      <trkpt lat="42.08767" lon="9.13338">
        <ele>1908</ele>
        <time>2018-06-18T07:01:58Z</time>
      </trkpt>
      <trkpt lat="42.08771" lon="9.1334">
        <ele>1911</ele>
        <time>2018-06-18T07:02:13Z</time>
      </trkpt>
      <trkpt lat="42.08769" lon="9.13347">
        <ele>1912</ele>
        <time>2018-06-18T07:02:30Z</time>
      </trkpt>
      <trkpt lat="42.08767" lon="9.1335">
        <ele>1912</ele>
        <time>2018-06-18T07:02:46Z</time>
      </trkpt>
      <trkpt lat="42.08771" lon="9.13351">
        <ele>1914</ele>
        <time>2018-06-18T07:03:03Z</time>
      </trkpt>
      <trkpt lat="42.08768" lon="9.13355">
        <ele>1915</ele>
        <time>2018-06-18T07:03:18Z</time>
      </trkpt>
      <trkpt lat="42.08764" lon="9.13357">
        <ele>1914</ele>
        <time>2018-06-18T07:03:36Z</time>
      </trkpt>
      <trkpt lat="42.08765" lon="9.13362">
        <ele>1917</ele>
        <time>2018-06-18T07:03:54Z</time>
      </trkpt>
      <trkpt lat="42.08766" lon="9.13364">
        <ele>1918</ele>
        <time>2018-06-18T07:04:07Z</time>
      </trkpt>
      <trkpt lat="42.08764" lon="9.13365">
        <ele>1918</ele>
        <time>2018-06-18T07:04:20Z</time>
      </trkpt>
      <trkpt lat="42.08766" lon="9.13369">
        <ele>1920</ele>
        <time>2018-06-18T07:04:43Z</time>
      </trkpt>
      <trkpt lat="42.08766" lon="9.1337">
        <ele>1920</ele>
        <time>2018-06-18T07:05:05Z</time>
      </trkpt>
      <trkpt lat="42.08765" lon="9.13378">
        <ele>1923</ele>
        <time>2018-06-18T07:05:23Z</time>
      </trkpt>
      <trkpt lat="42.08761" lon="9.13387">
        <ele>1925</ele>
        <time>2018-06-18T07:05:39Z</time>
      </trkpt>
      <trkpt lat="42.0876" lon="9.13395">
        <ele>1926</ele>
        <time>2018-06-18T07:05:54Z</time>
      </trkpt>
      <trkpt lat="42.08759" lon="9.13397">
        <ele>1927</ele>
        <time>2018-06-18T07:06:08Z</time>
      </trkpt>
      <trkpt lat="42.08761" lon="9.13397">
        <ele>1927</ele>
        <time>2018-06-18T07:06:30Z</time>
      </trkpt>
      <trkpt lat="42.08769" lon="9.13391">
        <ele>1926</ele>
        <time>2018-06-18T07:06:47Z</time>
      </trkpt>
      <trkpt lat="42.08771" lon="9.13386">
        <ele>1926</ele>
        <time>2018-06-18T07:07:03Z</time>
      </trkpt>
      <trkpt lat="42.08766" lon="9.13397">
        <ele>1927</ele>
        <time>2018-06-18T07:07:19Z</time>
      </trkpt>
      <trkpt lat="42.0876" lon="9.13413">
        <ele>1929</ele>
        <time>2018-06-18T07:07:38Z</time>
      </trkpt>
      <trkpt lat="42.08753" lon="9.13424">
        <ele>1934</ele>
        <time>2018-06-18T07:07:55Z</time>
      </trkpt>
      <trkpt lat="42.08745" lon="9.13436">
        <ele>1931</ele>
        <time>2018-06-18T07:08:14Z</time>
      </trkpt>
      <trkpt lat="42.0874" lon="9.13443">
        <ele>1932</ele>
        <time>2018-06-18T07:08:30Z</time>
      </trkpt>
      <trkpt lat="42.08733" lon="9.13447">
        <ele>1932</ele>
        <time>2018-06-18T07:08:44Z</time>
      </trkpt>
      <trkpt lat="42.08725" lon="9.13449">
        <ele>1932</ele>
        <time>2018-06-18T07:09:03Z</time>
      </trkpt>
      <trkpt lat="42.0872" lon="9.13449">
        <ele>1932</ele>
        <time>2018-06-18T07:09:17Z</time>
      </trkpt>
      <trkpt lat="42.08717" lon="9.1345">
        <ele>1932</ele>
        <time>2018-06-18T07:09:34Z</time>
      </trkpt>
      <trkpt lat="42.08713" lon="9.13456">
        <ele>1933</ele>
        <time>2018-06-18T07:09:50Z</time>
      </trkpt>
      <trkpt lat="42.0871" lon="9.1345">
        <ele>1932</ele>
        <time>2018-06-18T07:10:08Z</time>
      </trkpt>
      <trkpt lat="42.08704" lon="9.13445">
        <ele>1932</ele>
        <time>2018-06-18T07:10:26Z</time>
      </trkpt>
      <trkpt lat="42.08692" lon="9.1344">
        <ele>1931</ele>
        <time>2018-06-18T07:10:47Z</time>
      </trkpt>
      <trkpt lat="42.0868" lon="9.13439">
        <ele>1931</ele>
        <time>2018-06-18T07:11:04Z</time>
      </trkpt>
      <trkpt lat="42.0867" lon="9.13439">
        <ele>1930</ele>
        <time>2018-06-18T07:11:22Z</time>
      </trkpt>
      <trkpt lat="42.08661" lon="9.13442">
        <ele>1934</ele>
        <time>2018-06-18T07:11:37Z</time>
      </trkpt>
      <trkpt lat="42.08655" lon="9.13443">
        <ele>1934</ele>
        <time>2018-06-18T07:11:55Z</time>
      </trkpt>
      <trkpt lat="42.08648" lon="9.13442">
        <ele>1935</ele>
        <time>2018-06-18T07:12:15Z</time>
      </trkpt>
      <trkpt lat="42.08644" lon="9.1344">
        <ele>1935</ele>
        <time>2018-06-18T07:12:43Z</time>
      </trkpt>
      <trkpt lat="42.08637" lon="9.13439">
        <ele>1936</ele>
        <time>2018-06-18T07:12:59Z</time>
      </trkpt>
      <trkpt lat="42.08634" lon="9.13441">
        <ele>1937</ele>
        <time>2018-06-18T07:13:17Z</time>
      </trkpt>
      <trkpt lat="42.08629" lon="9.13441">
        <ele>1937</ele>
        <time>2018-06-18T07:13:34Z</time>
      </trkpt>
      <trkpt lat="42.08627" lon="9.13442">
        <ele>1938</ele>
        <time>2018-06-18T07:13:58Z</time>
      </trkpt>
      <trkpt lat="42.08622" lon="9.13441">
        <ele>1938</ele>
        <time>2018-06-18T07:14:14Z</time>
      </trkpt>
      <trkpt lat="42.08619" lon="9.1344">
        <ele>1939</ele>
        <time>2018-06-18T07:14:37Z</time>
      </trkpt>
      <trkpt lat="42.08613" lon="9.13441">
        <ele>1940</ele>
        <time>2018-06-18T07:14:54Z</time>
      </trkpt>
      <trkpt lat="42.08609" lon="9.13437">
        <ele>1941</ele>
        <time>2018-06-18T07:15:12Z</time>
      </trkpt>
      <trkpt lat="42.08603" lon="9.13434">
        <ele>1942</ele>
        <time>2018-06-18T07:15:32Z</time>
      </trkpt>
      <trkpt lat="42.086" lon="9.13432">
        <ele>1943</ele>
        <time>2018-06-18T07:15:49Z</time>
      </trkpt>
      <trkpt lat="42.08598" lon="9.13431">
        <ele>1943</ele>
        <time>2018-06-18T07:16:04Z</time>
      </trkpt>
      <trkpt lat="42.08607" lon="9.13422">
        <ele>1942</ele>
        <time>2018-06-18T07:16:27Z</time>
      </trkpt>
      <trkpt lat="42.08606" lon="9.13417">
        <ele>1943</ele>
        <time>2018-06-18T07:16:48Z</time>
      </trkpt>
      <trkpt lat="42.08608" lon="9.13415">
        <ele>1930</ele>
        <time>2018-06-18T07:17:09Z</time>
      </trkpt>
      <trkpt lat="42.08609" lon="9.13413">
        <ele>1930</ele>
        <time>2018-06-18T07:17:30Z</time>
      </trkpt>
      <trkpt lat="42.08609" lon="9.13412">
        <ele>1929</ele>
        <time>2018-06-18T07:17:56Z</time>
      </trkpt>
      <trkpt lat="42.08608" lon="9.13413">
        <ele>1930</ele>
        <time>2018-06-18T07:18:28Z</time>
      </trkpt>
      <trkpt lat="42.08608" lon="9.13413">
        <ele>1930</ele>
        <time>2018-06-18T07:19:04Z</time>
      </trkpt>
      <trkpt lat="42.08608" lon="9.13412">
        <ele>1930</ele>
        <time>2018-06-18T07:19:39Z</time>
      </trkpt>
      <trkpt lat="42.08608" lon="9.13413">
        <ele>1930</ele>
        <time>2018-06-18T07:20:06Z</time>
      </trkpt>
      <trkpt lat="42.08609" lon="9.13412">
        <ele>1929</ele>
        <time>2018-06-18T07:20:44Z</time>
      </trkpt>
      <trkpt lat="42.0861" lon="9.13412">
        <ele>1929</ele>
        <time>2018-06-18T07:21:13Z</time>
      </trkpt>
      <trkpt lat="42.08609" lon="9.13412">
        <ele>1929</ele>
        <time>2018-06-18T07:21:45Z</time>
      </trkpt>
      <trkpt lat="42.08606" lon="9.1341">
        <ele>1931</ele>
        <time>2018-06-18T07:21:58Z</time>
      </trkpt>
      <trkpt lat="42.08607" lon="9.1341">
        <ele>1930</ele>
        <time>2018-06-18T07:22:26Z</time>
      </trkpt>
      <trkpt lat="42.08605" lon="9.13409">
        <ele>1931</ele>
        <time>2018-06-18T07:22:44Z</time>
      </trkpt>
      <trkpt lat="42.086" lon="9.13405">
        <ele>1932</ele>
        <time>2018-06-18T07:22:57Z</time>
      </trkpt>
      <trkpt lat="42.08595" lon="9.13402">
        <ele>1933</ele>
        <time>2018-06-18T07:23:10Z</time>
      </trkpt>
      <trkpt lat="42.0859" lon="9.13399">
        <ele>1933</ele>
        <time>2018-06-18T07:23:23Z</time>
      </trkpt>
      <trkpt lat="42.0858" lon="9.13395">
        <ele>1948</ele>
        <time>2018-06-18T07:23:39Z</time>
      </trkpt>
      <trkpt lat="42.0857" lon="9.13384">
        <ele>1946</ele>
        <time>2018-06-18T07:23:58Z</time>
      </trkpt>
      <trkpt lat="42.08562" lon="9.13378">
        <ele>1945</ele>
        <time>2018-06-18T07:24:15Z</time>
      </trkpt>
      <trkpt lat="42.08546" lon="9.1337">
        <ele>1946</ele>
        <time>2018-06-18T07:24:35Z</time>
      </trkpt>
      <trkpt lat="42.08535" lon="9.13358">
        <ele>1946</ele>
        <time>2018-06-18T07:24:53Z</time>
      </trkpt>
      <trkpt lat="42.08527" lon="9.13354">
        <ele>1947</ele>
        <time>2018-06-18T07:25:04Z</time>
      </trkpt>
      <trkpt lat="42.0852" lon="9.13349">
        <ele>1947</ele>
        <time>2018-06-18T07:25:22Z</time>
      </trkpt>
      <trkpt lat="42.08519" lon="9.13349">
        <ele>1947</ele>
        <time>2018-06-18T07:25:23Z</time>
      </trkpt>
      <trkpt lat="42.08515" lon="9.13342">
        <ele>1947</ele>
        <time>2018-06-18T07:25:43Z</time>
      </trkpt>
      <trkpt lat="42.08509" lon="9.13339">
        <ele>1948</ele>
        <time>2018-06-18T07:26:00Z</time>
      </trkpt>
      <trkpt lat="42.08506" lon="9.13338">
        <ele>1948</ele>
        <time>2018-06-18T07:26:17Z</time>
      </trkpt>
      <trkpt lat="42.08507" lon="9.13343">
        <ele>1948</ele>
        <time>2018-06-18T07:26:37Z</time>
      </trkpt>
      <trkpt lat="42.08505" lon="9.13343">
        <ele>1948</ele>
        <time>2018-06-18T07:26:59Z</time>
      </trkpt>
      <trkpt lat="42.08506" lon="9.1334">
        <ele>1948</ele>
        <time>2018-06-18T07:27:20Z</time>
      </trkpt>
      <trkpt lat="42.08506" lon="9.13341">
        <ele>1948</ele>
        <time>2018-06-18T07:27:50Z</time>
      </trkpt>
      <trkpt lat="42.08502" lon="9.13341">
        <ele>1948</ele>
        <time>2018-06-18T07:28:07Z</time>
      </trkpt>
      <trkpt lat="42.085" lon="9.13347">
        <ele>1948</ele>
        <time>2018-06-18T07:28:25Z</time>
      </trkpt>
      <trkpt lat="42.085" lon="9.13352">
        <ele>1949</ele>
        <time>2018-06-18T07:28:41Z</time>
      </trkpt>
      <trkpt lat="42.08496" lon="9.13352">
        <ele>1966</ele>
        <time>2018-06-18T07:28:58Z</time>
      </trkpt>
      <trkpt lat="42.08489" lon="9.13349">
        <ele>1967</ele>
        <time>2018-06-18T07:29:16Z</time>
      </trkpt>
      <trkpt lat="42.08486" lon="9.13345">
        <ele>1966</ele>
        <time>2018-06-18T07:29:34Z</time>
      </trkpt>
      <trkpt lat="42.08482" lon="9.13342">
        <ele>1967</ele>
        <time>2018-06-18T07:29:52Z</time>
      </trkpt>
      <trkpt lat="42.0848" lon="9.13341">
        <ele>1968</ele>
        <time>2018-06-18T07:30:11Z</time>
      </trkpt>
      <trkpt lat="42.08483" lon="9.13341">
        <ele>1966</ele>
        <time>2018-06-18T07:30:31Z</time>
      </trkpt>
      <trkpt lat="42.08481" lon="9.13337">
        <ele>1967</ele>
        <time>2018-06-18T07:30:49Z</time>
      </trkpt>
      <trkpt lat="42.08481" lon="9.13335">
        <ele>1967</ele>
        <time>2018-06-18T07:31:11Z</time>
      </trkpt>
      <trkpt lat="42.0848" lon="9.13334">
        <ele>1967</ele>
        <time>2018-06-18T07:31:41Z</time>
      </trkpt>
      <trkpt lat="42.08477" lon="9.13336">
        <ele>1969</ele>
        <time>2018-06-18T07:31:59Z</time>
      </trkpt>
      <trkpt lat="42.08476" lon="9.13337">
        <ele>1970</ele>
        <time>2018-06-18T07:32:19Z</time>
      </trkpt>
      <trkpt lat="42.08469" lon="9.13336">
        <ele>1973</ele>
        <time>2018-06-18T07:32:35Z</time>
      </trkpt>
      <trkpt lat="42.08468" lon="9.13337">
        <ele>1974</ele>
        <time>2018-06-18T07:32:57Z</time>
      </trkpt>
      <trkpt lat="42.08467" lon="9.13335">
        <ele>1974</ele>
        <time>2018-06-18T07:33:18Z</time>
      </trkpt>
      <trkpt lat="42.08468" lon="9.13335">
        <ele>1974</ele>
        <time>2018-06-18T07:33:21Z</time>
      </trkpt>
      <trkpt lat="42.08467" lon="9.13338">
        <ele>1974</ele>
        <time>2018-06-18T07:33:42Z</time>
      </trkpt>
      <trkpt lat="42.08464" lon="9.1334">
        <ele>1976</ele>
        <time>2018-06-18T07:34:00Z</time>
      </trkpt>
      <trkpt lat="42.08462" lon="9.1334">
        <ele>1976</ele>
        <time>2018-06-18T07:34:22Z</time>
      </trkpt>
      <trkpt lat="42.0846" lon="9.13344">
        <ele>1978</ele>
        <time>2018-06-18T07:34:42Z</time>
      </trkpt>
      <trkpt lat="42.08459" lon="9.13348">
        <ele>1978</ele>
        <time>2018-06-18T07:34:59Z</time>
      </trkpt>
      <trkpt lat="42.0846" lon="9.13349">
        <ele>1978</ele>
        <time>2018-06-18T07:35:07Z</time>
      </trkpt>
      <trkpt lat="42.08459" lon="9.13352">
        <ele>1979</ele>
        <time>2018-06-18T07:35:25Z</time>
      </trkpt>
      <trkpt lat="42.08455" lon="9.13352">
        <ele>1980</ele>
        <time>2018-06-18T07:35:48Z</time>
      </trkpt>
      <trkpt lat="42.08455" lon="9.13355">
        <ele>1981</ele>
        <time>2018-06-18T07:36:06Z</time>
      </trkpt>
      <trkpt lat="42.08455" lon="9.13356">
        <ele>1981</ele>
        <time>2018-06-18T07:36:25Z</time>
      </trkpt>
      <trkpt lat="42.08454" lon="9.13359">
        <ele>1982</ele>
        <time>2018-06-18T07:36:42Z</time>
      </trkpt>
      <trkpt lat="42.08452" lon="9.13361">
        <ele>1982</ele>
        <time>2018-06-18T07:37:02Z</time>
      </trkpt>
      <trkpt lat="42.08451" lon="9.13367">
        <ele>1984</ele>
        <time>2018-06-18T07:37:22Z</time>
      </trkpt>
      <trkpt lat="42.08451" lon="9.13369">
        <ele>1984</ele>
        <time>2018-06-18T07:37:40Z</time>
      </trkpt>
      <trkpt lat="42.08448" lon="9.13376">
        <ele>1986</ele>
        <time>2018-06-18T07:38:03Z</time>
      </trkpt>
      <trkpt lat="42.0845" lon="9.13383">
        <ele>1987</ele>
        <time>2018-06-18T07:38:19Z</time>
      </trkpt>
      <trkpt lat="42.08458" lon="9.13393">
        <ele>1987</ele>
        <time>2018-06-18T07:38:38Z</time>
      </trkpt>
      <trkpt lat="42.08465" lon="9.13396">
        <ele>1985</ele>
        <time>2018-06-18T07:38:55Z</time>
      </trkpt>
      <trkpt lat="42.08465" lon="9.13398">
        <ele>1986</ele>
        <time>2018-06-18T07:39:15Z</time>
      </trkpt>
      <trkpt lat="42.0846" lon="9.13396">
        <ele>1987</ele>
        <time>2018-06-18T07:39:30Z</time>
      </trkpt>
      <trkpt lat="42.08465" lon="9.13397">
        <ele>1985</ele>
        <time>2018-06-18T07:39:52Z</time>
      </trkpt>
      <trkpt lat="42.0847" lon="9.13398">
        <ele>1984</ele>
        <time>2018-06-18T07:40:09Z</time>
      </trkpt>
      <trkpt lat="42.08473" lon="9.13396">
        <ele>1983</ele>
        <time>2018-06-18T07:40:35Z</time>
      </trkpt>
      <trkpt lat="42.08473" lon="9.13396">
        <ele>1983</ele>
        <time>2018-06-18T07:41:06Z</time>
      </trkpt>
      <trkpt lat="42.08473" lon="9.13396">
        <ele>1983</ele>
        <time>2018-06-18T07:41:40Z</time>
      </trkpt>
      <trkpt lat="42.08469" lon="9.13398">
        <ele>1984</ele>
        <time>2018-06-18T07:41:56Z</time>
      </trkpt>
      <trkpt lat="42.0846" lon="9.13395">
        <ele>1987</ele>
        <time>2018-06-18T07:42:11Z</time>
      </trkpt>
      <trkpt lat="42.0845" lon="9.13393">
        <ele>1990</ele>
        <time>2018-06-18T07:42:28Z</time>
      </trkpt>
      <trkpt lat="42.08448" lon="9.13398">
        <ele>1992</ele>
        <time>2018-06-18T07:42:43Z</time>
      </trkpt>
      <trkpt lat="42.08449" lon="9.13403">
        <ele>1992</ele>
        <time>2018-06-18T07:42:58Z</time>
      </trkpt>
      <trkpt lat="42.08448" lon="9.13404">
        <ele>1993</ele>
        <time>2018-06-18T07:43:19Z</time>
      </trkpt>
      <trkpt lat="42.08449" lon="9.13409">
        <ele>1993</ele>
        <time>2018-06-18T07:43:34Z</time>
      </trkpt>
      <trkpt lat="42.08453" lon="9.13413">
        <ele>1992</ele>
        <time>2018-06-18T07:43:57Z</time>
      </trkpt>
      <trkpt lat="42.08448" lon="9.13412">
        <ele>1994</ele>
        <time>2018-06-18T07:44:11Z</time>
      </trkpt>
      <trkpt lat="42.0845" lon="9.13416">
        <ele>1993</ele>
        <time>2018-06-18T07:44:29Z</time>
      </trkpt>
      <trkpt lat="42.0845" lon="9.13417">
        <ele>2000</ele>
        <time>2018-06-18T07:44:46Z</time>
      </trkpt>
      <trkpt lat="42.08448" lon="9.13418">
        <ele>2001</ele>
        <time>2018-06-18T07:45:02Z</time>
      </trkpt>
      <trkpt lat="42.0845" lon="9.13418">
        <ele>2000</ele>
        <time>2018-06-18T07:45:30Z</time>
      </trkpt>
      <trkpt lat="42.08448" lon="9.13417">
        <ele>2001</ele>
        <time>2018-06-18T07:45:59Z</time>
      </trkpt>
      <trkpt lat="42.08447" lon="9.13417">
        <ele>2001</ele>
        <time>2018-06-18T07:46:19Z</time>
      </trkpt>
      <trkpt lat="42.08444" lon="9.13421">
        <ele>2002</ele>
        <time>2018-06-18T07:46:37Z</time>
      </trkpt>
      <trkpt lat="42.08443" lon="9.13423">
        <ele>2003</ele>
        <time>2018-06-18T07:46:53Z</time>
      </trkpt>
      <trkpt lat="42.0844" lon="9.13424">
        <ele>2004</ele>
        <time>2018-06-18T07:47:07Z</time>
      </trkpt>
      <trkpt lat="42.08437" lon="9.13424">
        <ele>2005</ele>
        <time>2018-06-18T07:47:22Z</time>
      </trkpt>
      <trkpt lat="42.08436" lon="9.13424">
        <ele>2006</ele>
        <time>2018-06-18T07:47:40Z</time>
      </trkpt>
      <trkpt lat="42.08433" lon="9.13415">
        <ele>2004</ele>
        <time>2018-06-18T07:47:58Z</time>
      </trkpt>
      <trkpt lat="42.08431" lon="9.13418">
        <ele>2010</ele>
        <time>2018-06-18T07:48:22Z</time>
      </trkpt>
      <trkpt lat="42.08429" lon="9.1342">
        <ele>2011</ele>
        <time>2018-06-18T07:48:39Z</time>
      </trkpt>
      <trkpt lat="42.08427" lon="9.13419">
        <ele>2013</ele>
        <time>2018-06-18T07:48:54Z</time>
      </trkpt>
      <trkpt lat="42.08425" lon="9.13416">
        <ele>2012</ele>
        <time>2018-06-18T07:49:08Z</time>
      </trkpt>
      <trkpt lat="42.08424" lon="9.13417">
        <ele>2015</ele>
        <time>2018-06-18T07:49:24Z</time>
      </trkpt>
      <trkpt lat="42.08422" lon="9.13415">
        <ele>2015</ele>
        <time>2018-06-18T07:49:53Z</time>
      </trkpt>
      <trkpt lat="42.08418" lon="9.13417">
        <ele>2021</ele>
        <time>2018-06-18T07:50:06Z</time>
      </trkpt>
      <trkpt lat="42.08414" lon="9.13414">
        <ele>2024</ele>
        <time>2018-06-18T07:50:22Z</time>
      </trkpt>
      <trkpt lat="42.0841" lon="9.13412">
        <ele>2025</ele>
        <time>2018-06-18T07:50:44Z</time>
      </trkpt>
      <trkpt lat="42.08409" lon="9.13417">
        <ele>2028</ele>
        <time>2018-06-18T07:50:57Z</time>
      </trkpt>
      <trkpt lat="42.08407" lon="9.13419">
        <ele>2029</ele>
        <time>2018-06-18T07:51:12Z</time>
      </trkpt>
      <trkpt lat="42.08403" lon="9.13418">
        <ele>2031</ele>
        <time>2018-06-18T07:51:30Z</time>
      </trkpt>
      <trkpt lat="42.08401" lon="9.13417">
        <ele>2032</ele>
        <time>2018-06-18T07:51:49Z</time>
      </trkpt>
      <trkpt lat="42.08395" lon="9.13417">
        <ele>2035</ele>
        <time>2018-06-18T07:52:08Z</time>
      </trkpt>
      <trkpt lat="42.08392" lon="9.13414">
        <ele>2031</ele>
        <time>2018-06-18T07:52:22Z</time>
      </trkpt>
      <trkpt lat="42.08391" lon="9.13415">
        <ele>2031</ele>
        <time>2018-06-18T07:52:37Z</time>
      </trkpt>
      <trkpt lat="42.08389" lon="9.13415">
        <ele>2032</ele>
        <time>2018-06-18T07:53:00Z</time>
      </trkpt>
      <trkpt lat="42.08385" lon="9.13416">
        <ele>2033</ele>
        <time>2018-06-18T07:53:15Z</time>
      </trkpt>
      <trkpt lat="42.08383" lon="9.13422">
        <ele>2040</ele>
        <time>2018-06-18T07:53:30Z</time>
      </trkpt>
      <trkpt lat="42.08383" lon="9.13423">
        <ele>2040</ele>
        <time>2018-06-18T07:53:50Z</time>
      </trkpt>
      <trkpt lat="42.08383" lon="9.13429">
        <ele>2040</ele>
        <time>2018-06-18T07:54:08Z</time>
      </trkpt>
      <trkpt lat="42.0838" lon="9.13427">
        <ele>2041</ele>
        <time>2018-06-18T07:54:26Z</time>
      </trkpt>
      <trkpt lat="42.08377" lon="9.13425">
        <ele>2043</ele>
        <time>2018-06-18T07:54:42Z</time>
      </trkpt>
      <trkpt lat="42.08377" lon="9.13426">
        <ele>2043</ele>
        <time>2018-06-18T07:55:12Z</time>
      </trkpt>
      <trkpt lat="42.08374" lon="9.13426">
        <ele>2044</ele>
        <time>2018-06-18T07:55:25Z</time>
      </trkpt>
      <trkpt lat="42.08373" lon="9.13429">
        <ele>2044</ele>
        <time>2018-06-18T07:55:39Z</time>
      </trkpt>
      <trkpt lat="42.08373" lon="9.13431">
        <ele>2044</ele>
        <time>2018-06-18T07:55:57Z</time>
      </trkpt>
      <trkpt lat="42.0837" lon="9.13429">
        <ele>2046</ele>
        <time>2018-06-18T07:56:21Z</time>
      </trkpt>
      <trkpt lat="42.08368" lon="9.13428">
        <ele>2047</ele>
        <time>2018-06-18T07:56:40Z</time>
      </trkpt>
      <trkpt lat="42.08365" lon="9.1343">
        <ele>2048</ele>
        <time>2018-06-18T07:56:58Z</time>
      </trkpt>
      <trkpt lat="42.08366" lon="9.13435">
        <ele>2047</ele>
        <time>2018-06-18T07:57:15Z</time>
      </trkpt>
      <trkpt lat="42.08363" lon="9.13434">
        <ele>2048</ele>
        <time>2018-06-18T07:57:40Z</time>
      </trkpt>
      <trkpt lat="42.08359" lon="9.1343">
        <ele>2051</ele>
        <time>2018-06-18T07:57:58Z</time>
      </trkpt>
      <trkpt lat="42.08356" lon="9.1343">
        <ele>2052</ele>
        <time>2018-06-18T07:58:10Z</time>
      </trkpt>
      <trkpt lat="42.08355" lon="9.1343">
        <ele>2052</ele>
        <time>2018-06-18T07:58:31Z</time>
      </trkpt>
      <trkpt lat="42.08349" lon="9.13425">
        <ele>2057</ele>
        <time>2018-06-18T07:58:54Z</time>
      </trkpt>
      <trkpt lat="42.08346" lon="9.13424">
        <ele>2059</ele>
        <time>2018-06-18T07:59:07Z</time>
      </trkpt>
      <trkpt lat="42.08341" lon="9.13422">
        <ele>2063</ele>
        <time>2018-06-18T07:59:27Z</time>
      </trkpt>
      <trkpt lat="42.08338" lon="9.13421">
        <ele>2065</ele>
        <time>2018-06-18T07:59:52Z</time>
      </trkpt>
      <trkpt lat="42.08335" lon="9.13419">
        <ele>2069</ele>
        <time>2018-06-18T08:00:10Z</time>
      </trkpt>
      <trkpt lat="42.08332" lon="9.13416">
        <ele>2072</ele>
        <time>2018-06-18T08:00:30Z</time>
      </trkpt>
      <trkpt lat="42.08333" lon="9.13421">
        <ele>2073</ele>
        <time>2018-06-18T08:00:45Z</time>
      </trkpt>
      <trkpt lat="42.08332" lon="9.13424">
        <ele>2074</ele>
        <time>2018-06-18T08:01:03Z</time>
      </trkpt>
      <trkpt lat="42.08329" lon="9.13428">
        <ele>2075</ele>
        <time>2018-06-18T08:01:24Z</time>
      </trkpt>
      <trkpt lat="42.08322" lon="9.13432">
        <ele>2077</ele>
        <time>2018-06-18T08:01:42Z</time>
      </trkpt>
      <trkpt lat="42.08316" lon="9.13432">
        <ele>2077</ele>
        <time>2018-06-18T08:01:55Z</time>
      </trkpt>
      <trkpt lat="42.08314" lon="9.13431">
        <ele>2078</ele>
        <time>2018-06-18T08:02:15Z</time>
      </trkpt>
      <trkpt lat="42.08315" lon="9.13437">
        <ele>2078</ele>
        <time>2018-06-18T08:02:32Z</time>
      </trkpt>
      <trkpt lat="42.08316" lon="9.13437">
        <ele>2078</ele>
        <time>2018-06-18T08:03:16Z</time>
      </trkpt>
      <trkpt lat="42.08315" lon="9.13436">
        <ele>2078</ele>
        <time>2018-06-18T08:04:23Z</time>
      </trkpt>
      <trkpt lat="42.08314" lon="9.13436">
        <ele>2078</ele>
        <time>2018-06-18T08:06:15Z</time>
      </trkpt>
      <trkpt lat="42.08314" lon="9.13436">
        <ele>2078</ele>
        <time>2018-06-18T08:08:41Z</time>
      </trkpt>
      <trkpt lat="42.08311" lon="9.13434">
        <ele>2078</ele>
        <time>2018-06-18T08:08:55Z</time>
      </trkpt>
      <trkpt lat="42.08305" lon="9.13433">
        <ele>2079</ele>
        <time>2018-06-18T08:09:12Z</time>
      </trkpt>
      <trkpt lat="42.08299" lon="9.13434">
        <ele>2080</ele>
        <time>2018-06-18T08:09:43Z</time>
      </trkpt>
      <trkpt lat="42.08294" lon="9.13436">
        <ele>2081</ele>
        <time>2018-06-18T08:10:02Z</time>
      </trkpt>
      <trkpt lat="42.08293" lon="9.1344">
        <ele>2081</ele>
        <time>2018-06-18T08:10:18Z</time>
      </trkpt>
      <trkpt lat="42.08291" lon="9.13444">
        <ele>2081</ele>
        <time>2018-06-18T08:10:39Z</time>
      </trkpt>
      <trkpt lat="42.08291" lon="9.13447">
        <ele>2081</ele>
        <time>2018-06-18T08:11:03Z</time>
      </trkpt>
      <trkpt lat="42.08292" lon="9.1345">
        <ele>2081</ele>
        <time>2018-06-18T08:11:21Z</time>
      </trkpt>
      <trkpt lat="42.08291" lon="9.13453">
        <ele>2081</ele>
        <time>2018-06-18T08:11:40Z</time>
      </trkpt>
      <trkpt lat="42.08284" lon="9.13455">
        <ele>2082</ele>
        <time>2018-06-18T08:11:58Z</time>
      </trkpt>
      <trkpt lat="42.08276" lon="9.13455">
        <ele>2083</ele>
        <time>2018-06-18T08:12:14Z</time>
      </trkpt>
      <trkpt lat="42.08274" lon="9.13457">
        <ele>2083</ele>
        <time>2018-06-18T08:12:31Z</time>
      </trkpt>
      <trkpt lat="42.08266" lon="9.13459">
        <ele>2084</ele>
        <time>2018-06-18T08:12:54Z</time>
      </trkpt>
      <trkpt lat="42.08253" lon="9.13451">
        <ele>2085</ele>
        <time>2018-06-18T08:13:14Z</time>
      </trkpt>
      <trkpt lat="42.08246" lon="9.13451">
        <ele>2093</ele>
        <time>2018-06-18T08:13:21Z</time>
      </trkpt>
      <trkpt lat="42.08227" lon="9.13442">
        <ele>2094</ele>
        <time>2018-06-18T08:13:46Z</time>
      </trkpt>
      <trkpt lat="42.08215" lon="9.13437">
        <ele>2095</ele>
        <time>2018-06-18T08:14:04Z</time>
      </trkpt>
      <trkpt lat="42.0821" lon="9.13435">
        <ele>2095</ele>
        <time>2018-06-18T08:14:18Z</time>
      </trkpt>
      <trkpt lat="42.08203" lon="9.1343">
        <ele>2097</ele>
        <time>2018-06-18T08:14:31Z</time>
      </trkpt>
      <trkpt lat="42.082" lon="9.13428">
        <ele>2097</ele>
        <time>2018-06-18T08:14:43Z</time>
      </trkpt>
      <trkpt lat="42.08191" lon="9.13428">
        <ele>2098</ele>
        <time>2018-06-18T08:15:00Z</time>
      </trkpt>
      <trkpt lat="42.08181" lon="9.13423">
        <ele>2101</ele>
        <time>2018-06-18T08:15:14Z</time>
      </trkpt>
      <trkpt lat="42.08178" lon="9.13419">
        <ele>2103</ele>
        <time>2018-06-18T08:15:19Z</time>
      </trkpt>
      <trkpt lat="42.08167" lon="9.13407">
        <ele>2100</ele>
        <time>2018-06-18T08:15:37Z</time>
      </trkpt>
      <trkpt lat="42.0815" lon="9.13405">
        <ele>2100</ele>
        <time>2018-06-18T08:15:58Z</time>
      </trkpt>
      <trkpt lat="42.08147" lon="9.13405">
        <ele>2100</ele>
        <time>2018-06-18T08:16:01Z</time>
      </trkpt>
      <trkpt lat="42.08135" lon="9.13401">
        <ele>2099</ele>
        <time>2018-06-18T08:16:18Z</time>
      </trkpt>
      <trkpt lat="42.08119" lon="9.13409">
        <ele>2101</ele>
        <time>2018-06-18T08:16:37Z</time>
      </trkpt>
      <trkpt lat="42.08106" lon="9.13413">
        <ele>2104</ele>
        <time>2018-06-18T08:16:53Z</time>
      </trkpt>
      <trkpt lat="42.08092" lon="9.13418">
        <ele>2112</ele>
        <time>2018-06-18T08:17:10Z</time>
      </trkpt>
      <trkpt lat="42.08084" lon="9.13418">
        <ele>2115</ele>
        <time>2018-06-18T08:17:20Z</time>
      </trkpt>
      <trkpt lat="42.08077" lon="9.13418">
        <ele>2114</ele>
        <time>2018-06-18T08:17:29Z</time>
      </trkpt>
      <trkpt lat="42.08059" lon="9.1342">
        <ele>2111</ele>
        <time>2018-06-18T08:17:49Z</time>
      </trkpt>
      <trkpt lat="42.08048" lon="9.13421">
        <ele>2111</ele>
        <time>2018-06-18T08:18:03Z</time>
      </trkpt>
      <trkpt lat="42.08041" lon="9.1342">
        <ele>2111</ele>
        <time>2018-06-18T08:18:11Z</time>
      </trkpt>
      <trkpt lat="42.08022" lon="9.13412">
        <ele>2112</ele>
        <time>2018-06-18T08:18:31Z</time>
      </trkpt>
      <trkpt lat="42.08003" lon="9.1341">
        <ele>2116</ele>
        <time>2018-06-18T08:18:52Z</time>
      </trkpt>
      <trkpt lat="42.07991" lon="9.13406">
        <ele>2117</ele>
        <time>2018-06-18T08:19:09Z</time>
      </trkpt>
      <trkpt lat="42.07983" lon="9.13401">
        <ele>2117</ele>
        <time>2018-06-18T08:19:22Z</time>
      </trkpt>
      <trkpt lat="42.07977" lon="9.13387">
        <ele>2116</ele>
        <time>2018-06-18T08:19:38Z</time>
      </trkpt>
      <trkpt lat="42.07968" lon="9.13374">
        <ele>2116</ele>
        <time>2018-06-18T08:19:57Z</time>
      </trkpt>
      <trkpt lat="42.07954" lon="9.13369">
        <ele>2117</ele>
        <time>2018-06-18T08:20:15Z</time>
      </trkpt>
      <trkpt lat="42.07947" lon="9.13361">
        <ele>2117</ele>
        <time>2018-06-18T08:20:31Z</time>
      </trkpt>
      <trkpt lat="42.07945" lon="9.1336">
        <ele>2117</ele>
        <time>2018-06-18T08:20:45Z</time>
      </trkpt>
      <trkpt lat="42.07944" lon="9.13354">
        <ele>2117</ele>
        <time>2018-06-18T08:21:21Z</time>
      </trkpt>
      <trkpt lat="42.07937" lon="9.13344">
        <ele>2118</ele>
        <time>2018-06-18T08:21:38Z</time>
      </trkpt>
      <trkpt lat="42.07928" lon="9.13343">
        <ele>2119</ele>
        <time>2018-06-18T08:21:54Z</time>
      </trkpt>
      <trkpt lat="42.07919" lon="9.13345">
        <ele>2120</ele>
        <time>2018-06-18T08:22:08Z</time>
      </trkpt>
      <trkpt lat="42.07906" lon="9.13348">
        <ele>2118</ele>
        <time>2018-06-18T08:22:26Z</time>
      </trkpt>
      <trkpt lat="42.07897" lon="9.13341">
        <ele>2117</ele>
        <time>2018-06-18T08:22:43Z</time>
      </trkpt>
      <trkpt lat="42.07885" lon="9.13337">
        <ele>2116</ele>
        <time>2018-06-18T08:22:58Z</time>
      </trkpt>
      <trkpt lat="42.07876" lon="9.13321">
        <ele>2115</ele>
        <time>2018-06-18T08:23:15Z</time>
      </trkpt>
      <trkpt lat="42.07868" lon="9.13307">
        <ele>2115</ele>
        <time>2018-06-18T08:23:33Z</time>
      </trkpt>
      <trkpt lat="42.07859" lon="9.13296">
        <ele>2114</ele>
        <time>2018-06-18T08:23:50Z</time>
      </trkpt>
      <trkpt lat="42.07848" lon="9.13291">
        <ele>2115</ele>
        <time>2018-06-18T08:24:08Z</time>
      </trkpt>
      <trkpt lat="42.07839" lon="9.1329">
        <ele>2115</ele>
        <time>2018-06-18T08:24:23Z</time>
      </trkpt>
      <trkpt lat="42.07835" lon="9.13281">
        <ele>2115</ele>
        <time>2018-06-18T08:24:36Z</time>
      </trkpt>
      <trkpt lat="42.07825" lon="9.13273">
        <ele>2120</ele>
        <time>2018-06-18T08:24:54Z</time>
      </trkpt>
      <trkpt lat="42.07814" lon="9.13266">
        <ele>2120</ele>
        <time>2018-06-18T08:25:10Z</time>
      </trkpt>
      <trkpt lat="42.07801" lon="9.13261">
        <ele>2121</ele>
        <time>2018-06-18T08:25:29Z</time>
      </trkpt>
      <trkpt lat="42.07789" lon="9.13275">
        <ele>2121</ele>
        <time>2018-06-18T08:25:49Z</time>
      </trkpt>
      <trkpt lat="42.07779" lon="9.13286">
        <ele>2122</ele>
        <time>2018-06-18T08:26:07Z</time>
      </trkpt>
      <trkpt lat="42.07773" lon="9.13298">
        <ele>2122</ele>
        <time>2018-06-18T08:26:22Z</time>
      </trkpt>
      <trkpt lat="42.07762" lon="9.13296">
        <ele>2123</ele>
        <time>2018-06-18T08:26:38Z</time>
      </trkpt>
      <trkpt lat="42.07753" lon="9.13299">
        <ele>2123</ele>
        <time>2018-06-18T08:26:54Z</time>
      </trkpt>
      <trkpt lat="42.07742" lon="9.133">
        <ele>2122</ele>
        <time>2018-06-18T08:27:10Z</time>
      </trkpt>
      <trkpt lat="42.0774" lon="9.13301">
        <ele>2122</ele>
        <time>2018-06-18T08:27:32Z</time>
      </trkpt>
      <trkpt lat="42.07739" lon="9.133">
        <ele>2121</ele>
        <time>2018-06-18T08:28:12Z</time>
      </trkpt>
      <trkpt lat="42.07733" lon="9.13298">
        <ele>2121</ele>
        <time>2018-06-18T08:28:27Z</time>
      </trkpt>
      <trkpt lat="42.07726" lon="9.13299">
        <ele>2121</ele>
        <time>2018-06-18T08:28:44Z</time>
      </trkpt>
      <trkpt lat="42.07718" lon="9.13302">
        <ele>2120</ele>
        <time>2018-06-18T08:29:02Z</time>
      </trkpt>
      <trkpt lat="42.07709" lon="9.13304">
        <ele>2120</ele>
        <time>2018-06-18T08:29:18Z</time>
      </trkpt>
      <trkpt lat="42.07696" lon="9.1331">
        <ele>2119</ele>
        <time>2018-06-18T08:29:35Z</time>
      </trkpt>
      <trkpt lat="42.07681" lon="9.13311">
        <ele>2119</ele>
        <time>2018-06-18T08:29:55Z</time>
      </trkpt>
      <trkpt lat="42.07677" lon="9.13297">
        <ele>2118</ele>
        <time>2018-06-18T08:30:10Z</time>
      </trkpt>
      <trkpt lat="42.0767" lon="9.1329">
        <ele>2117</ele>
        <time>2018-06-18T08:30:26Z</time>
      </trkpt>
      <trkpt lat="42.07662" lon="9.13285">
        <ele>2113</ele>
        <time>2018-06-18T08:30:42Z</time>
      </trkpt>
      <trkpt lat="42.07654" lon="9.13283">
        <ele>2113</ele>
        <time>2018-06-18T08:30:58Z</time>
      </trkpt>
      <trkpt lat="42.07644" lon="9.13286">
        <ele>2113</ele>
        <time>2018-06-18T08:31:14Z</time>
      </trkpt>
      <trkpt lat="42.07643" lon="9.13288">
        <ele>2114</ele>
        <time>2018-06-18T08:31:27Z</time>
      </trkpt>
      <trkpt lat="42.07634" lon="9.13286">
        <ele>2113</ele>
        <time>2018-06-18T08:31:40Z</time>
      </trkpt>
      <trkpt lat="42.07622" lon="9.13287">
        <ele>2114</ele>
        <time>2018-06-18T08:31:57Z</time>
      </trkpt>
      <trkpt lat="42.07613" lon="9.13288">
        <ele>2114</ele>
        <time>2018-06-18T08:32:12Z</time>
      </trkpt>
      <trkpt lat="42.07611" lon="9.13289">
        <ele>2114</ele>
        <time>2018-06-18T08:32:24Z</time>
      </trkpt>
      <trkpt lat="42.07604" lon="9.1329">
        <ele>2114</ele>
        <time>2018-06-18T08:32:45Z</time>
      </trkpt>
      <trkpt lat="42.07592" lon="9.1329">
        <ele>2114</ele>
        <time>2018-06-18T08:33:02Z</time>
      </trkpt>
      <trkpt lat="42.07581" lon="9.13284">
        <ele>2114</ele>
        <time>2018-06-18T08:33:20Z</time>
      </trkpt>
      <trkpt lat="42.07578" lon="9.13286">
        <ele>2114</ele>
        <time>2018-06-18T08:33:35Z</time>
      </trkpt>
      <trkpt lat="42.07575" lon="9.13289">
        <ele>2114</ele>
        <time>2018-06-18T08:33:51Z</time>
      </trkpt>
      <trkpt lat="42.07568" lon="9.13284">
        <ele>2114</ele>
        <time>2018-06-18T08:34:06Z</time>
      </trkpt>
      <trkpt lat="42.07564" lon="9.13282">
        <ele>2114</ele>
        <time>2018-06-18T08:34:25Z</time>
      </trkpt>
      <trkpt lat="42.07562" lon="9.13282">
        <ele>2114</ele>
        <time>2018-06-18T08:34:47Z</time>
      </trkpt>
      <trkpt lat="42.07552" lon="9.13277">
        <ele>2114</ele>
        <time>2018-06-18T08:35:03Z</time>
      </trkpt>
      <trkpt lat="42.07541" lon="9.13276">
        <ele>2114</ele>
        <time>2018-06-18T08:35:18Z</time>
      </trkpt>
      <trkpt lat="42.07537" lon="9.13276">
        <ele>2114</ele>
        <time>2018-06-18T08:35:33Z</time>
      </trkpt>
      <trkpt lat="42.07536" lon="9.13276">
        <ele>2114</ele>
        <time>2018-06-18T08:36:00Z</time>
      </trkpt>
      <trkpt lat="42.07532" lon="9.13271">
        <ele>2115</ele>
        <time>2018-06-18T08:36:17Z</time>
      </trkpt>
      <trkpt lat="42.07526" lon="9.13269">
        <ele>2115</ele>
        <time>2018-06-18T08:36:34Z</time>
      </trkpt>
      <trkpt lat="42.07518" lon="9.13266">
        <ele>2116</ele>
        <time>2018-06-18T08:36:51Z</time>
      </trkpt>
      <trkpt lat="42.07512" lon="9.13264">
        <ele>2117</ele>
        <time>2018-06-18T08:37:04Z</time>
      </trkpt>
      <trkpt lat="42.07513" lon="9.13254">
        <ele>2118</ele>
        <time>2018-06-18T08:37:22Z</time>
      </trkpt>
      <trkpt lat="42.07515" lon="9.13246">
        <ele>2111</ele>
        <time>2018-06-18T08:37:38Z</time>
      </trkpt>
      <trkpt lat="42.07509" lon="9.13241">
        <ele>2112</ele>
        <time>2018-06-18T08:37:56Z</time>
      </trkpt>
      <trkpt lat="42.07508" lon="9.13235">
        <ele>2110</ele>
        <time>2018-06-18T08:38:12Z</time>
      </trkpt>
      <trkpt lat="42.07504" lon="9.13228">
        <ele>2108</ele>
        <time>2018-06-18T08:38:32Z</time>
      </trkpt>
      <trkpt lat="42.075" lon="9.13225">
        <ele>2107</ele>
        <time>2018-06-18T08:38:46Z</time>
      </trkpt>
      <trkpt lat="42.07495" lon="9.1322">
        <ele>2109</ele>
        <time>2018-06-18T08:39:01Z</time>
      </trkpt>
      <trkpt lat="42.0749" lon="9.13216">
        <ele>2108</ele>
        <time>2018-06-18T08:39:11Z</time>
      </trkpt>
      <trkpt lat="42.0748" lon="9.13205">
        <ele>2105</ele>
        <time>2018-06-18T08:39:29Z</time>
      </trkpt>
      <trkpt lat="42.07473" lon="9.13194">
        <ele>2104</ele>
        <time>2018-06-18T08:39:49Z</time>
      </trkpt>
      <trkpt lat="42.07463" lon="9.13187">
        <ele>2104</ele>
        <time>2018-06-18T08:40:08Z</time>
      </trkpt>
      <trkpt lat="42.07448" lon="9.13183">
        <ele>2106</ele>
        <time>2018-06-18T08:40:29Z</time>
      </trkpt>
      <trkpt lat="42.07443" lon="9.13179">
        <ele>2106</ele>
        <time>2018-06-18T08:40:47Z</time>
      </trkpt>
      <trkpt lat="42.07434" lon="9.13172">
        <ele>2107</ele>
        <time>2018-06-18T08:41:04Z</time>
      </trkpt>
      <trkpt lat="42.07422" lon="9.13167">
        <ele>2110</ele>
        <time>2018-06-18T08:41:24Z</time>
      </trkpt>
      <trkpt lat="42.07414" lon="9.13159">
        <ele>2112</ele>
        <time>2018-06-18T08:41:40Z</time>
      </trkpt>
      <trkpt lat="42.07406" lon="9.13154">
        <ele>2113</ele>
        <time>2018-06-18T08:41:55Z</time>
      </trkpt>
      <trkpt lat="42.07405" lon="9.13153">
        <ele>2113</ele>
        <time>2018-06-18T08:42:15Z</time>
      </trkpt>
      <trkpt lat="42.07402" lon="9.13157">
        <ele>2114</ele>
        <time>2018-06-18T08:42:35Z</time>
      </trkpt>
      <trkpt lat="42.07399" lon="9.13156">
        <ele>2114</ele>
        <time>2018-06-18T08:42:52Z</time>
      </trkpt>
      <trkpt lat="42.07393" lon="9.13154">
        <ele>2115</ele>
        <time>2018-06-18T08:43:11Z</time>
      </trkpt>
      <trkpt lat="42.07393" lon="9.13157">
        <ele>2115</ele>
        <time>2018-06-18T08:43:28Z</time>
      </trkpt>
      <trkpt lat="42.07391" lon="9.13159">
        <ele>2116</ele>
        <time>2018-06-18T08:43:40Z</time>
      </trkpt>
      <trkpt lat="42.07386" lon="9.13157">
        <ele>2117</ele>
        <time>2018-06-18T08:44:03Z</time>
      </trkpt>
      <trkpt lat="42.07382" lon="9.13153">
        <ele>2117</ele>
        <time>2018-06-18T08:44:18Z</time>
      </trkpt>
      <trkpt lat="42.07381" lon="9.13153">
        <ele>2117</ele>
        <time>2018-06-18T08:44:39Z</time>
      </trkpt>
      <trkpt lat="42.07379" lon="9.13155">
        <ele>2118</ele>
        <time>2018-06-18T08:44:53Z</time>
      </trkpt>
      <trkpt lat="42.07374" lon="9.13157">
        <ele>2120</ele>
        <time>2018-06-18T08:45:13Z</time>
      </trkpt>
      <trkpt lat="42.07374" lon="9.13161">
        <ele>2120</ele>
        <time>2018-06-18T08:45:31Z</time>
      </trkpt>
      <trkpt lat="42.07373" lon="9.13161">
        <ele>2120</ele>
        <time>2018-06-18T08:45:55Z</time>
      </trkpt>
      <trkpt lat="42.07373" lon="9.1316">
        <ele>2120</ele>
        <time>2018-06-18T08:46:17Z</time>
      </trkpt>
      <trkpt lat="42.0737" lon="9.13154">
        <ele>2120</ele>
        <time>2018-06-18T08:46:39Z</time>
      </trkpt>
      <trkpt lat="42.07367" lon="9.13149">
        <ele>2121</ele>
        <time>2018-06-18T08:46:55Z</time>
      </trkpt>
      <trkpt lat="42.07366" lon="9.13145">
        <ele>2121</ele>
        <time>2018-06-18T08:47:12Z</time>
      </trkpt>
      <trkpt lat="42.07364" lon="9.13144">
        <ele>2121</ele>
        <time>2018-06-18T08:47:31Z</time>
      </trkpt>
      <trkpt lat="42.07363" lon="9.13146">
        <ele>2121</ele>
        <time>2018-06-18T08:47:57Z</time>
      </trkpt>
      <trkpt lat="42.07362" lon="9.13142">
        <ele>2121</ele>
        <time>2018-06-18T08:48:15Z</time>
      </trkpt>
      <trkpt lat="42.0736" lon="9.13141">
        <ele>2121</ele>
        <time>2018-06-18T08:48:34Z</time>
      </trkpt>
      <trkpt lat="42.07359" lon="9.13143">
        <ele>2122</ele>
        <time>2018-06-18T08:48:48Z</time>
      </trkpt>
      <trkpt lat="42.07357" lon="9.1314">
        <ele>2122</ele>
        <time>2018-06-18T08:49:06Z</time>
      </trkpt>
      <trkpt lat="42.07354" lon="9.13138">
        <ele>2122</ele>
        <time>2018-06-18T08:49:21Z</time>
      </trkpt>
      <trkpt lat="42.07353" lon="9.13139">
        <ele>2123</ele>
        <time>2018-06-18T08:49:39Z</time>
      </trkpt>
      <trkpt lat="42.07351" lon="9.13135">
        <ele>2122</ele>
        <time>2018-06-18T08:49:53Z</time>
      </trkpt>
      <trkpt lat="42.07349" lon="9.13135">
        <ele>2123</ele>
        <time>2018-06-18T08:50:20Z</time>
      </trkpt>
      <trkpt lat="42.07347" lon="9.13135">
        <ele>2123</ele>
        <time>2018-06-18T08:50:40Z</time>
      </trkpt>
      <trkpt lat="42.07345" lon="9.13128">
        <ele>2122</ele>
        <time>2018-06-18T08:50:54Z</time>
      </trkpt>
      <trkpt lat="42.07342" lon="9.13128">
        <ele>2123</ele>
        <time>2018-06-18T08:51:07Z</time>
      </trkpt>
      <trkpt lat="42.0734" lon="9.13126">
        <ele>2123</ele>
        <time>2018-06-18T08:51:31Z</time>
      </trkpt>
      <trkpt lat="42.07336" lon="9.13118">
        <ele>2122</ele>
        <time>2018-06-18T08:51:47Z</time>
      </trkpt>
      <trkpt lat="42.07332" lon="9.13116">
        <ele>2144</ele>
        <time>2018-06-18T08:52:04Z</time>
      </trkpt>
      <trkpt lat="42.07328" lon="9.13115">
        <ele>2144</ele>
        <time>2018-06-18T08:52:22Z</time>
      </trkpt>
      <trkpt lat="42.07325" lon="9.13121">
        <ele>2145</ele>
        <time>2018-06-18T08:52:37Z</time>
      </trkpt>
      <trkpt lat="42.07316" lon="9.13121">
        <ele>2146</ele>
        <time>2018-06-18T08:52:53Z</time>
      </trkpt>
      <trkpt lat="42.07305" lon="9.13119">
        <ele>2148</ele>
        <time>2018-06-18T08:53:11Z</time>
      </trkpt>
      <trkpt lat="42.07301" lon="9.13119">
        <ele>2149</ele>
        <time>2018-06-18T08:53:31Z</time>
      </trkpt>
      <trkpt lat="42.07294" lon="9.13124">
        <ele>2150</ele>
        <time>2018-06-18T08:53:47Z</time>
      </trkpt>
      <trkpt lat="42.07282" lon="9.13127">
        <ele>2153</ele>
        <time>2018-06-18T08:54:05Z</time>
      </trkpt>
      <trkpt lat="42.07271" lon="9.13127">
        <ele>2155</ele>
        <time>2018-06-18T08:54:22Z</time>
      </trkpt>
      <trkpt lat="42.07261" lon="9.13125">
        <ele>2156</ele>
        <time>2018-06-18T08:54:37Z</time>
      </trkpt>
      <trkpt lat="42.07249" lon="9.13121">
        <ele>2169</ele>
        <time>2018-06-18T08:54:53Z</time>
      </trkpt>
      <trkpt lat="42.07237" lon="9.13123">
        <ele>2170</ele>
        <time>2018-06-18T08:55:11Z</time>
      </trkpt>
      <trkpt lat="42.07225" lon="9.13123">
        <ele>2170</ele>
        <time>2018-06-18T08:55:29Z</time>
      </trkpt>
      <trkpt lat="42.07215" lon="9.13132">
        <ele>2171</ele>
        <time>2018-06-18T08:55:48Z</time>
      </trkpt>
      <trkpt lat="42.07204" lon="9.13132">
        <ele>2171</ele>
        <time>2018-06-18T08:56:05Z</time>
      </trkpt>
      <trkpt lat="42.07192" lon="9.13133">
        <ele>2172</ele>
        <time>2018-06-18T08:56:21Z</time>
      </trkpt>
      <trkpt lat="42.07177" lon="9.13133">
        <ele>2172</ele>
        <time>2018-06-18T08:56:41Z</time>
      </trkpt>
      <trkpt lat="42.07166" lon="9.13129">
        <ele>2175</ele>
        <time>2018-06-18T08:56:57Z</time>
      </trkpt>
      <trkpt lat="42.07149" lon="9.13127">
        <ele>2175</ele>
        <time>2018-06-18T08:57:18Z</time>
      </trkpt>
      <trkpt lat="42.07136" lon="9.13125">
        <ele>2175</ele>
        <time>2018-06-18T08:57:36Z</time>
      </trkpt>
      <trkpt lat="42.07125" lon="9.13117">
        <ele>2175</ele>
        <time>2018-06-18T08:57:55Z</time>
      </trkpt>
      <trkpt lat="42.07114" lon="9.1311">
        <ele>2176</ele>
        <time>2018-06-18T08:58:10Z</time>
      </trkpt>
      <trkpt lat="42.07102" lon="9.13102">
        <ele>2176</ele>
        <time>2018-06-18T08:58:27Z</time>
      </trkpt>
      <trkpt lat="42.07091" lon="9.13093">
        <ele>2177</ele>
        <time>2018-06-18T08:58:45Z</time>
      </trkpt>
      <trkpt lat="42.07087" lon="9.13087">
        <ele>2178</ele>
        <time>2018-06-18T08:59:02Z</time>
      </trkpt>
      <trkpt lat="42.07081" lon="9.13086">
        <ele>2178</ele>
        <time>2018-06-18T08:59:23Z</time>
      </trkpt>
      <trkpt lat="42.07073" lon="9.13081">
        <ele>2176</ele>
        <time>2018-06-18T08:59:36Z</time>
      </trkpt>
      <trkpt lat="42.07065" lon="9.13085">
        <ele>2175</ele>
        <time>2018-06-18T08:59:49Z</time>
      </trkpt>
      <trkpt lat="42.07061" lon="9.13087">
        <ele>2174</ele>
        <time>2018-06-18T09:00:04Z</time>
      </trkpt>
      <trkpt lat="42.0706" lon="9.13087">
        <ele>2174</ele>
        <time>2018-06-18T09:00:39Z</time>
      </trkpt>
      <trkpt lat="42.07054" lon="9.13086">
        <ele>2173</ele>
        <time>2018-06-18T09:01:07Z</time>
      </trkpt>
      <trkpt lat="42.07049" lon="9.13084">
        <ele>2173</ele>
        <time>2018-06-18T09:01:22Z</time>
      </trkpt>
      <trkpt lat="42.07039" lon="9.13079">
        <ele>2173</ele>
        <time>2018-06-18T09:01:38Z</time>
      </trkpt>
      <trkpt lat="42.07024" lon="9.1307">
        <ele>2173</ele>
        <time>2018-06-18T09:01:57Z</time>
      </trkpt>
      <trkpt lat="42.07013" lon="9.13054">
        <ele>2172</ele>
        <time>2018-06-18T09:02:19Z</time>
      </trkpt>
      <trkpt lat="42.07006" lon="9.13043">
        <ele>2172</ele>
        <time>2018-06-18T09:02:36Z</time>
      </trkpt>
      <trkpt lat="42.07001" lon="9.13035">
        <ele>2172</ele>
        <time>2018-06-18T09:02:53Z</time>
      </trkpt>
      <trkpt lat="42.0699" lon="9.13025">
        <ele>2174</ele>
        <time>2018-06-18T09:03:09Z</time>
      </trkpt>
      <trkpt lat="42.06979" lon="9.13011">
        <ele>2174</ele>
        <time>2018-06-18T09:03:30Z</time>
      </trkpt>
      <trkpt lat="42.06974" lon="9.13004">
        <ele>2174</ele>
        <time>2018-06-18T09:03:45Z</time>
      </trkpt>
      <trkpt lat="42.06966" lon="9.12993">
        <ele>2173</ele>
        <time>2018-06-18T09:04:01Z</time>
      </trkpt>
      <trkpt lat="42.06955" lon="9.12989">
        <ele>2174</ele>
        <time>2018-06-18T09:04:17Z</time>
      </trkpt>
      <trkpt lat="42.06943" lon="9.1298">
        <ele>2175</ele>
        <time>2018-06-18T09:04:35Z</time>
      </trkpt>
      <trkpt lat="42.06935" lon="9.12973">
        <ele>2176</ele>
        <time>2018-06-18T09:04:50Z</time>
      </trkpt>
      <trkpt lat="42.06924" lon="9.1297">
        <ele>2177</ele>
        <time>2018-06-18T09:05:07Z</time>
      </trkpt>
      <trkpt lat="42.06912" lon="9.12968">
        <ele>2188</ele>
        <time>2018-06-18T09:05:25Z</time>
      </trkpt>
      <trkpt lat="42.06906" lon="9.12962">
        <ele>2188</ele>
        <time>2018-06-18T09:05:39Z</time>
      </trkpt>
      <trkpt lat="42.06899" lon="9.12952">
        <ele>2188</ele>
        <time>2018-06-18T09:05:56Z</time>
      </trkpt>
      <trkpt lat="42.06892" lon="9.12943">
        <ele>2189</ele>
        <time>2018-06-18T09:06:13Z</time>
      </trkpt>
      <trkpt lat="42.06888" lon="9.12927">
        <ele>2189</ele>
        <time>2018-06-18T09:06:31Z</time>
      </trkpt>
      <trkpt lat="42.06879" lon="9.12923">
        <ele>2190</ele>
        <time>2018-06-18T09:06:48Z</time>
      </trkpt>
      <trkpt lat="42.06868" lon="9.12927">
        <ele>2192</ele>
        <time>2018-06-18T09:07:05Z</time>
      </trkpt>
      <trkpt lat="42.06865" lon="9.12927">
        <ele>2192</ele>
        <time>2018-06-18T09:07:23Z</time>
      </trkpt>
      <trkpt lat="42.0686" lon="9.12917">
        <ele>2193</ele>
        <time>2018-06-18T09:07:40Z</time>
      </trkpt>
      <trkpt lat="42.06851" lon="9.12911">
        <ele>2198</ele>
        <time>2018-06-18T09:07:57Z</time>
      </trkpt>
      <trkpt lat="42.06844" lon="9.12904">
        <ele>2199</ele>
        <time>2018-06-18T09:08:12Z</time>
      </trkpt>
      <trkpt lat="42.06837" lon="9.12894">
        <ele>2199</ele>
        <time>2018-06-18T09:08:28Z</time>
      </trkpt>
      <trkpt lat="42.06833" lon="9.12892">
        <ele>2206</ele>
        <time>2018-06-18T09:08:45Z</time>
      </trkpt>
      <trkpt lat="42.06828" lon="9.12897">
        <ele>2206</ele>
        <time>2018-06-18T09:09:08Z</time>
      </trkpt>
      <trkpt lat="42.06817" lon="9.12899">
        <ele>2206</ele>
        <time>2018-06-18T09:09:25Z</time>
      </trkpt>
      <trkpt lat="42.06817" lon="9.12886">
        <ele>2207</ele>
        <time>2018-06-18T09:09:40Z</time>
      </trkpt>
      <trkpt lat="42.06819" lon="9.12877">
        <ele>2208</ele>
        <time>2018-06-18T09:09:54Z</time>
      </trkpt>
      <trkpt lat="42.06816" lon="9.12874">
        <ele>2208</ele>
        <time>2018-06-18T09:10:13Z</time>
      </trkpt>
      <trkpt lat="42.06816" lon="9.12862">
        <ele>2209</ele>
        <time>2018-06-18T09:10:35Z</time>
      </trkpt>
      <trkpt lat="42.06808" lon="9.12858">
        <ele>2210</ele>
        <time>2018-06-18T09:10:50Z</time>
      </trkpt>
      <trkpt lat="42.06804" lon="9.12851">
        <ele>2210</ele>
        <time>2018-06-18T09:11:05Z</time>
      </trkpt>
      <trkpt lat="42.06794" lon="9.12847">
        <ele>2211</ele>
        <time>2018-06-18T09:11:22Z</time>
      </trkpt>
      <trkpt lat="42.06784" lon="9.12843">
        <ele>2212</ele>
        <time>2018-06-18T09:11:38Z</time>
      </trkpt>
      <trkpt lat="42.06775" lon="9.12846">
        <ele>2213</ele>
        <time>2018-06-18T09:11:55Z</time>
      </trkpt>
      <trkpt lat="42.06762" lon="9.12838">
        <ele>2217</ele>
        <time>2018-06-18T09:12:14Z</time>
      </trkpt>
      <trkpt lat="42.06751" lon="9.12836">
        <ele>2221</ele>
        <time>2018-06-18T09:12:30Z</time>
      </trkpt>
      <trkpt lat="42.06741" lon="9.12833">
        <ele>2225</ele>
        <time>2018-06-18T09:12:47Z</time>
      </trkpt>
      <trkpt lat="42.06736" lon="9.12828">
        <ele>2227</ele>
        <time>2018-06-18T09:13:05Z</time>
      </trkpt>
      <trkpt lat="42.06731" lon="9.12824">
        <ele>2228</ele>
        <time>2018-06-18T09:13:29Z</time>
      </trkpt>
      <trkpt lat="42.06725" lon="9.1282">
        <ele>2228</ele>
        <time>2018-06-18T09:13:43Z</time>
      </trkpt>
      <trkpt lat="42.06715" lon="9.12821">
        <ele>2229</ele>
        <time>2018-06-18T09:13:59Z</time>
      </trkpt>
      <trkpt lat="42.06706" lon="9.12825">
        <ele>2230</ele>
        <time>2018-06-18T09:14:12Z</time>
      </trkpt>
      <trkpt lat="42.0669" lon="9.12831">
        <ele>2232</ele>
        <time>2018-06-18T09:14:33Z</time>
      </trkpt>
      <trkpt lat="42.0668" lon="9.12834">
        <ele>2227</ele>
        <time>2018-06-18T09:14:47Z</time>
      </trkpt>
      <trkpt lat="42.06675" lon="9.12833">
        <ele>2234</ele>
        <time>2018-06-18T09:14:54Z</time>
      </trkpt>
      <trkpt lat="42.06663" lon="9.12836">
        <ele>2233</ele>
        <time>2018-06-18T09:15:11Z</time>
      </trkpt>
      <trkpt lat="42.06653" lon="9.12842">
        <ele>2231</ele>
        <time>2018-06-18T09:15:26Z</time>
      </trkpt>
      <trkpt lat="42.06634" lon="9.12842">
        <ele>2230</ele>
        <time>2018-06-18T09:15:46Z</time>
      </trkpt>
      <trkpt lat="42.06632" lon="9.12842">
        <ele>2230</ele>
        <time>2018-06-18T09:15:48Z</time>
      </trkpt>
      <trkpt lat="42.06617" lon="9.12844">
        <ele>2230</ele>
        <time>2018-06-18T09:16:06Z</time>
      </trkpt>
      <trkpt lat="42.06607" lon="9.12853">
        <ele>2231</ele>
        <time>2018-06-18T09:16:23Z</time>
      </trkpt>
      <trkpt lat="42.06597" lon="9.12862">
        <ele>2230</ele>
        <time>2018-06-18T09:16:39Z</time>
      </trkpt>
      <trkpt lat="42.06583" lon="9.12866">
        <ele>2236</ele>
        <time>2018-06-18T09:16:56Z</time>
      </trkpt>
      <trkpt lat="42.06572" lon="9.12874">
        <ele>2235</ele>
        <time>2018-06-18T09:17:11Z</time>
      </trkpt>
      <trkpt lat="42.0656" lon="9.12884">
        <ele>2235</ele>
        <time>2018-06-18T09:17:29Z</time>
      </trkpt>
      <trkpt lat="42.06545" lon="9.12891">
        <ele>2236</ele>
        <time>2018-06-18T09:17:48Z</time>
      </trkpt>
      <trkpt lat="42.06541" lon="9.12891">
        <ele>2236</ele>
        <time>2018-06-18T09:17:53Z</time>
      </trkpt>
      <trkpt lat="42.06524" lon="9.12891">
        <ele>2238</ele>
        <time>2018-06-18T09:18:11Z</time>
      </trkpt>
      <trkpt lat="42.06519" lon="9.12892">
        <ele>2239</ele>
        <time>2018-06-18T09:18:17Z</time>
      </trkpt>
      <trkpt lat="42.06506" lon="9.12902">
        <ele>2241</ele>
        <time>2018-06-18T09:18:34Z</time>
      </trkpt>
      <trkpt lat="42.06492" lon="9.12909">
        <ele>2244</ele>
        <time>2018-06-18T09:18:52Z</time>
      </trkpt>
      <trkpt lat="42.06471" lon="9.12922">
        <ele>2243</ele>
        <time>2018-06-18T09:19:14Z</time>
      </trkpt>
      <trkpt lat="42.06456" lon="9.12932">
        <ele>2243</ele>
        <time>2018-06-18T09:19:32Z</time>
      </trkpt>
      <trkpt lat="42.06436" lon="9.12938">
        <ele>2244</ele>
        <time>2018-06-18T09:19:54Z</time>
      </trkpt>
      <trkpt lat="42.06415" lon="9.12955">
        <ele>2245</ele>
        <time>2018-06-18T09:20:19Z</time>
      </trkpt>
      <trkpt lat="42.06401" lon="9.12958">
        <ele>2245</ele>
        <time>2018-06-18T09:20:34Z</time>
      </trkpt>
      <trkpt lat="42.06386" lon="9.12958">
        <ele>2245</ele>
        <time>2018-06-18T09:20:50Z</time>
      </trkpt>
      <trkpt lat="42.06368" lon="9.12957">
        <ele>2245</ele>
        <time>2018-06-18T09:21:07Z</time>
      </trkpt>
      <trkpt lat="42.06342" lon="9.12959">
        <ele>2245</ele>
        <time>2018-06-18T09:21:31Z</time>
      </trkpt>
      <trkpt lat="42.06319" lon="9.12967">
        <ele>2246</ele>
        <time>2018-06-18T09:21:53Z</time>
      </trkpt>
      <trkpt lat="42.06297" lon="9.12972">
        <ele>2246</ele>
        <time>2018-06-18T09:22:14Z</time>
      </trkpt>
      <trkpt lat="42.06281" lon="9.12978">
        <ele>2247</ele>
        <time>2018-06-18T09:22:31Z</time>
      </trkpt>
      <trkpt lat="42.0627" lon="9.12984">
        <ele>2248</ele>
        <time>2018-06-18T09:22:45Z</time>
      </trkpt>
      <trkpt lat="42.0625" lon="9.12991">
        <ele>2250</ele>
        <time>2018-06-18T09:23:07Z</time>
      </trkpt>
      <trkpt lat="42.06237" lon="9.12999">
        <ele>2250</ele>
        <time>2018-06-18T09:23:24Z</time>
      </trkpt>
      <trkpt lat="42.06223" lon="9.13002">
        <ele>2251</ele>
        <time>2018-06-18T09:23:41Z</time>
      </trkpt>
      <trkpt lat="42.06218" lon="9.13006">
        <ele>2251</ele>
        <time>2018-06-18T09:23:54Z</time>
      </trkpt>
      <trkpt lat="42.06211" lon="9.13009">
        <ele>2251</ele>
        <time>2018-06-18T09:24:01Z</time>
      </trkpt>
      <trkpt lat="42.06202" lon="9.13012">
        <ele>2252</ele>
        <time>2018-06-18T09:24:14Z</time>
      </trkpt>
      <trkpt lat="42.06196" lon="9.13018">
        <ele>2252</ele>
        <time>2018-06-18T09:24:27Z</time>
      </trkpt>
      <trkpt lat="42.06188" lon="9.13022">
        <ele>2253</ele>
        <time>2018-06-18T09:24:38Z</time>
      </trkpt>
      <trkpt lat="42.06186" lon="9.13023">
        <ele>2253</ele>
        <time>2018-06-18T09:24:40Z</time>
      </trkpt>
      <trkpt lat="42.06177" lon="9.13026">
        <ele>2253</ele>
        <time>2018-06-18T09:24:51Z</time>
      </trkpt>
      <trkpt lat="42.06162" lon="9.1303">
        <ele>2261</ele>
        <time>2018-06-18T09:25:09Z</time>
      </trkpt>
      <trkpt lat="42.06146" lon="9.13034">
        <ele>2263</ele>
        <time>2018-06-18T09:25:27Z</time>
      </trkpt>
      <trkpt lat="42.0614" lon="9.13039">
        <ele>2263</ele>
        <time>2018-06-18T09:25:40Z</time>
      </trkpt>
      <trkpt lat="42.06129" lon="9.13047">
        <ele>2265</ele>
        <time>2018-06-18T09:25:57Z</time>
      </trkpt>
      <trkpt lat="42.06114" lon="9.13055">
        <ele>2267</ele>
        <time>2018-06-18T09:26:16Z</time>
      </trkpt>
      <trkpt lat="42.06108" lon="9.13056">
        <ele>2268</ele>
        <time>2018-06-18T09:26:31Z</time>
      </trkpt>
      <trkpt lat="42.06102" lon="9.13062">
        <ele>2270</ele>
        <time>2018-06-18T09:26:48Z</time>
      </trkpt>
      <trkpt lat="42.06101" lon="9.13069">
        <ele>2271</ele>
        <time>2018-06-18T09:27:02Z</time>
      </trkpt>
      <trkpt lat="42.06093" lon="9.13075">
        <ele>2275</ele>
        <time>2018-06-18T09:27:15Z</time>
      </trkpt>
      <trkpt lat="42.06084" lon="9.13081">
        <ele>2280</ele>
        <time>2018-06-18T09:27:32Z</time>
      </trkpt>
      <trkpt lat="42.06078" lon="9.13089">
        <ele>2284</ele>
        <time>2018-06-18T09:27:47Z</time>
      </trkpt>
      <trkpt lat="42.06069" lon="9.13094">
        <ele>2286</ele>
        <time>2018-06-18T09:28:04Z</time>
      </trkpt>
      <trkpt lat="42.06059" lon="9.13099">
        <ele>2287</ele>
        <time>2018-06-18T09:28:19Z</time>
      </trkpt>
      <trkpt lat="42.06056" lon="9.13101">
        <ele>2288</ele>
        <time>2018-06-18T09:28:24Z</time>
      </trkpt>
      <trkpt lat="42.06043" lon="9.13112">
        <ele>2289</ele>
        <time>2018-06-18T09:28:45Z</time>
      </trkpt>
      <trkpt lat="42.06032" lon="9.13115">
        <ele>2289</ele>
        <time>2018-06-18T09:29:01Z</time>
      </trkpt>
      <trkpt lat="42.0603" lon="9.13122">
        <ele>2290</ele>
        <time>2018-06-18T09:29:17Z</time>
      </trkpt>
      <trkpt lat="42.06026" lon="9.13133">
        <ele>2291</ele>
        <time>2018-06-18T09:29:34Z</time>
      </trkpt>
      <trkpt lat="42.06017" lon="9.13142">
        <ele>2293</ele>
        <time>2018-06-18T09:29:50Z</time>
      </trkpt>
      <trkpt lat="42.06008" lon="9.13152">
        <ele>2295</ele>
        <time>2018-06-18T09:30:07Z</time>
      </trkpt>
      <trkpt lat="42.05999" lon="9.13163">
        <ele>2299</ele>
        <time>2018-06-18T09:30:24Z</time>
      </trkpt>
      <trkpt lat="42.05994" lon="9.13178">
        <ele>2304</ele>
        <time>2018-06-18T09:30:41Z</time>
      </trkpt>
      <trkpt lat="42.05999" lon="9.13187">
        <ele>2306</ele>
        <time>2018-06-18T09:30:56Z</time>
      </trkpt>
      <trkpt lat="42.06002" lon="9.13193">
        <ele>2303</ele>
        <time>2018-06-18T09:31:09Z</time>
      </trkpt>
      <trkpt lat="42.06002" lon="9.13193">
        <ele>2303</ele>
        <time>2018-06-18T09:31:34Z</time>
      </trkpt>
      <trkpt lat="42.06002" lon="9.13197">
        <ele>2304</ele>
        <time>2018-06-18T09:31:53Z</time>
      </trkpt>
      <trkpt lat="42.06007" lon="9.13204">
        <ele>2304</ele>
        <time>2018-06-18T09:32:11Z</time>
      </trkpt>
      <trkpt lat="42.06" lon="9.13213">
        <ele>2306</ele>
        <time>2018-06-18T09:32:27Z</time>
      </trkpt>
      <trkpt lat="42.05992" lon="9.13221">
        <ele>2312</ele>
        <time>2018-06-18T09:32:43Z</time>
      </trkpt>
      <trkpt lat="42.05982" lon="9.13228">
        <ele>2313</ele>
        <time>2018-06-18T09:33:00Z</time>
      </trkpt>
      <trkpt lat="42.05983" lon="9.13235">
        <ele>2314</ele>
        <time>2018-06-18T09:33:14Z</time>
      </trkpt>
      <trkpt lat="42.05985" lon="9.13241">
        <ele>2315</ele>
        <time>2018-06-18T09:33:32Z</time>
      </trkpt>
      <trkpt lat="42.05987" lon="9.13253">
        <ele>2321</ele>
        <time>2018-06-18T09:33:49Z</time>
      </trkpt>
      <trkpt lat="42.05985" lon="9.13257">
        <ele>2322</ele>
        <time>2018-06-18T09:34:07Z</time>
      </trkpt>
      <trkpt lat="42.05982" lon="9.13266">
        <ele>2323</ele>
        <time>2018-06-18T09:34:21Z</time>
      </trkpt>
      <trkpt lat="42.05978" lon="9.13272">
        <ele>2323</ele>
        <time>2018-06-18T09:34:35Z</time>
      </trkpt>
      <trkpt lat="42.05975" lon="9.13283">
        <ele>2324</ele>
        <time>2018-06-18T09:34:51Z</time>
      </trkpt>
      <trkpt lat="42.05975" lon="9.13289">
        <ele>2325</ele>
        <time>2018-06-18T09:35:09Z</time>
      </trkpt>
      <trkpt lat="42.05979" lon="9.13292">
        <ele>2325</ele>
        <time>2018-06-18T09:35:26Z</time>
      </trkpt>
      <trkpt lat="42.05976" lon="9.13303">
        <ele>2326</ele>
        <time>2018-06-18T09:35:46Z</time>
      </trkpt>
      <trkpt lat="42.05973" lon="9.13318">
        <ele>2327</ele>
        <time>2018-06-18T09:36:05Z</time>
      </trkpt>
      <trkpt lat="42.0598" lon="9.13333">
        <ele>2328</ele>
        <time>2018-06-18T09:36:24Z</time>
      </trkpt>
      <trkpt lat="42.05988" lon="9.13335">
        <ele>2328</ele>
        <time>2018-06-18T09:36:39Z</time>
      </trkpt>
      <trkpt lat="42.05986" lon="9.13345">
        <ele>2327</ele>
        <time>2018-06-18T09:36:54Z</time>
      </trkpt>
      <trkpt lat="42.05979" lon="9.13349">
        <ele>2326</ele>
        <time>2018-06-18T09:37:09Z</time>
      </trkpt>
      <trkpt lat="42.05977" lon="9.13356">
        <ele>2325</ele>
        <time>2018-06-18T09:37:24Z</time>
      </trkpt>
      <trkpt lat="42.05983" lon="9.13369">
        <ele>2324</ele>
        <time>2018-06-18T09:37:40Z</time>
      </trkpt>
      <trkpt lat="42.05986" lon="9.1338">
        <ele>2323</ele>
        <time>2018-06-18T09:37:58Z</time>
      </trkpt>
      <trkpt lat="42.05981" lon="9.13371">
        <ele>2324</ele>
        <time>2018-06-18T09:38:17Z</time>
      </trkpt>
      <trkpt lat="42.05975" lon="9.13372">
        <ele>2324</ele>
        <time>2018-06-18T09:38:30Z</time>
      </trkpt>
      <trkpt lat="42.05975" lon="9.13376">
        <ele>2323</ele>
        <time>2018-06-18T09:38:43Z</time>
      </trkpt>
      <trkpt lat="42.05974" lon="9.1338">
        <ele>2323</ele>
        <time>2018-06-18T09:38:56Z</time>
      </trkpt>
      <trkpt lat="42.05972" lon="9.13382">
        <ele>2323</ele>
        <time>2018-06-18T09:39:11Z</time>
      </trkpt>
      <trkpt lat="42.05972" lon="9.13382">
        <ele>2323</ele>
        <time>2018-06-18T09:39:48Z</time>
      </trkpt>
      <trkpt lat="42.05972" lon="9.13382">
        <ele>2323</ele>
        <time>2018-06-18T09:41:02Z</time>
      </trkpt>
      <trkpt lat="42.05974" lon="9.13382">
        <ele>2323</ele>
        <time>2018-06-18T09:41:35Z</time>
      </trkpt>
      <trkpt lat="42.05975" lon="9.13382">
        <ele>2323</ele>
        <time>2018-06-18T09:42:04Z</time>
      </trkpt>
      <trkpt lat="42.05975" lon="9.1338">
        <ele>2323</ele>
        <time>2018-06-18T09:42:29Z</time>
      </trkpt>
      <trkpt lat="42.05974" lon="9.1338">
        <ele>2323</ele>
        <time>2018-06-18T09:42:58Z</time>
      </trkpt>
      <trkpt lat="42.05973" lon="9.13379">
        <ele>2323</ele>
        <time>2018-06-18T09:43:26Z</time>
      </trkpt>
      <trkpt lat="42.05973" lon="9.1338">
        <ele>2323</ele>
        <time>2018-06-18T09:44:12Z</time>
      </trkpt>
      <trkpt lat="42.05973" lon="9.13381">
        <ele>2323</ele>
        <time>2018-06-18T09:44:38Z</time>
      </trkpt>
      <trkpt lat="42.05973" lon="9.13379">
        <ele>2323</ele>
        <time>2018-06-18T09:45:59Z</time>
      </trkpt>
      <trkpt lat="42.05972" lon="9.1338">
        <ele>2323</ele>
        <time>2018-06-18T09:46:37Z</time>
      </trkpt>
      <trkpt lat="42.05973" lon="9.1338">
        <ele>2323</ele>
        <time>2018-06-18T09:47:01Z</time>
      </trkpt>
      <trkpt lat="42.05973" lon="9.13381">
        <ele>2323</ele>
        <time>2018-06-18T09:47:30Z</time>
      </trkpt>
      <trkpt lat="42.05974" lon="9.13381">
        <ele>2323</ele>
        <time>2018-06-18T09:48:01Z</time>
      </trkpt>
      <trkpt lat="42.05974" lon="9.13382">
        <ele>2323</ele>
        <time>2018-06-18T09:48:30Z</time>
      </trkpt>
      <trkpt lat="42.05974" lon="9.13378">
        <ele>2323</ele>
        <time>2018-06-18T09:49:00Z</time>
      </trkpt>
      <trkpt lat="42.05975" lon="9.13378">
        <ele>2323</ele>
        <time>2018-06-18T09:49:32Z</time>
      </trkpt>
      <trkpt lat="42.05974" lon="9.13381">
        <ele>2323</ele>
        <time>2018-06-18T09:49:57Z</time>
      </trkpt>
      <trkpt lat="42.05973" lon="9.13382">
        <ele>2323</ele>
        <time>2018-06-18T09:50:37Z</time>
      </trkpt>
      <trkpt lat="42.05973" lon="9.13381">
        <ele>2323</ele>
        <time>2018-06-18T09:51:00Z</time>
      </trkpt>
      <trkpt lat="42.05973" lon="9.1338">
        <ele>2323</ele>
        <time>2018-06-18T09:51:24Z</time>
      </trkpt>
      <trkpt lat="42.05973" lon="9.13381">
        <ele>2323</ele>
        <time>2018-06-18T09:51:51Z</time>
      </trkpt>
      <trkpt lat="42.05976" lon="9.13375">
        <ele>2324</ele>
        <time>2018-06-18T09:52:16Z</time>
      </trkpt>
      <trkpt lat="42.05978" lon="9.1337">
        <ele>2324</ele>
        <time>2018-06-18T09:52:34Z</time>
      </trkpt>
      <trkpt lat="42.05984" lon="9.13369">
        <ele>2324</ele>
        <time>2018-06-18T09:52:50Z</time>
      </trkpt>
      <trkpt lat="42.05985" lon="9.13367">
        <ele>2325</ele>
        <time>2018-06-18T09:53:17Z</time>
      </trkpt>
      <trkpt lat="42.05986" lon="9.13366">
        <ele>2325</ele>
        <time>2018-06-18T09:54:04Z</time>
      </trkpt>
      <trkpt lat="42.05985" lon="9.13353">
        <ele>2326</ele>
        <time>2018-06-18T09:54:23Z</time>
      </trkpt>
      <trkpt lat="42.05988" lon="9.13339">
        <ele>2328</ele>
        <time>2018-06-18T09:54:43Z</time>
      </trkpt>
      <trkpt lat="42.05986" lon="9.13328">
        <ele>2328</ele>
        <time>2018-06-18T09:54:56Z</time>
      </trkpt>
      <trkpt lat="42.0598" lon="9.13322">
        <ele>2327</ele>
        <time>2018-06-18T09:55:11Z</time>
      </trkpt>
      <trkpt lat="42.05982" lon="9.13304">
        <ele>2326</ele>
        <time>2018-06-18T09:55:27Z</time>
      </trkpt>
      <trkpt lat="42.05984" lon="9.13297">
        <ele>2325</ele>
        <time>2018-06-18T09:55:47Z</time>
      </trkpt>
      <trkpt lat="42.05983" lon="9.13296">
        <ele>2325</ele>
        <time>2018-06-18T09:56:15Z</time>
      </trkpt>
      <trkpt lat="42.05983" lon="9.1329">
        <ele>2325</ele>
        <time>2018-06-18T09:56:34Z</time>
      </trkpt>
      <trkpt lat="42.05985" lon="9.13285">
        <ele>2324</ele>
        <time>2018-06-18T09:56:48Z</time>
      </trkpt>
      <trkpt lat="42.05992" lon="9.13271">
        <ele>2323</ele>
        <time>2018-06-18T09:57:02Z</time>
      </trkpt>
      <trkpt lat="42.05997" lon="9.13261">
        <ele>2321</ele>
        <time>2018-06-18T09:57:17Z</time>
      </trkpt>
      <trkpt lat="42.06006" lon="9.13257">
        <ele>2316</ele>
        <time>2018-06-18T09:57:33Z</time>
      </trkpt>
      <trkpt lat="42.06013" lon="9.13247">
        <ele>2312</ele>
        <time>2018-06-18T09:57:45Z</time>
      </trkpt>
      <trkpt lat="42.06017" lon="9.13243">
        <ele>2310</ele>
        <time>2018-06-18T09:57:52Z</time>
      </trkpt>
      <trkpt lat="42.06025" lon="9.13236">
        <ele>2307</ele>
        <time>2018-06-18T09:58:04Z</time>
      </trkpt>
      <trkpt lat="42.06033" lon="9.13226">
        <ele>2305</ele>
        <time>2018-06-18T09:58:17Z</time>
      </trkpt>
      <trkpt lat="42.06037" lon="9.13221">
        <ele>2304</ele>
        <time>2018-06-18T09:58:24Z</time>
      </trkpt>
      <trkpt lat="42.06051" lon="9.13216">
        <ele>2302</ele>
        <time>2018-06-18T09:58:38Z</time>
      </trkpt>
      <trkpt lat="42.06057" lon="9.13208">
        <ele>2301</ele>
        <time>2018-06-18T09:58:49Z</time>
      </trkpt>
      <trkpt lat="42.06062" lon="9.13199">
        <ele>2300</ele>
        <time>2018-06-18T09:59:04Z</time>
      </trkpt>
      <trkpt lat="42.06067" lon="9.13185">
        <ele>2299</ele>
        <time>2018-06-18T09:59:18Z</time>
      </trkpt>
      <trkpt lat="42.06068" lon="9.13181">
        <ele>2299</ele>
        <time>2018-06-18T09:59:21Z</time>
      </trkpt>
      <trkpt lat="42.06072" lon="9.13171">
        <ele>2298</ele>
        <time>2018-06-18T09:59:29Z</time>
      </trkpt>
      <trkpt lat="42.06076" lon="9.13159">
        <ele>2293</ele>
        <time>2018-06-18T09:59:38Z</time>
      </trkpt>
      <trkpt lat="42.06078" lon="9.13154">
        <ele>2293</ele>
        <time>2018-06-18T09:59:42Z</time>
      </trkpt>
      <trkpt lat="42.06081" lon="9.13144">
        <ele>2292</ele>
        <time>2018-06-18T09:59:50Z</time>
      </trkpt>
      <trkpt lat="42.06083" lon="9.13142">
        <ele>2291</ele>
        <time>2018-06-18T09:59:52Z</time>
      </trkpt>
      <trkpt lat="42.06087" lon="9.13131">
        <ele>2277</ele>
        <time>2018-06-18T10:00:02Z</time>
      </trkpt>
      <trkpt lat="42.06092" lon="9.1312">
        <ele>2276</ele>
        <time>2018-06-18T10:00:15Z</time>
      </trkpt>
      <trkpt lat="42.06099" lon="9.13114">
        <ele>2275</ele>
        <time>2018-06-18T10:00:29Z</time>
      </trkpt>
      <trkpt lat="42.06104" lon="9.13108">
        <ele>2274</ele>
        <time>2018-06-18T10:00:42Z</time>
      </trkpt>
      <trkpt lat="42.06114" lon="9.1311">
        <ele>2272</ele>
        <time>2018-06-18T10:01:00Z</time>
      </trkpt>
      <trkpt lat="42.06116" lon="9.13102">
        <ele>2272</ele>
        <time>2018-06-18T10:01:14Z</time>
      </trkpt>
      <trkpt lat="42.06116" lon="9.13095">
        <ele>2272</ele>
        <time>2018-06-18T10:01:30Z</time>
      </trkpt>
      <trkpt lat="42.06131" lon="9.13098">
        <ele>2269</ele>
        <time>2018-06-18T10:01:47Z</time>
      </trkpt>
      <trkpt lat="42.06134" lon="9.13094">
        <ele>2269</ele>
        <time>2018-06-18T10:01:52Z</time>
      </trkpt>
      <trkpt lat="42.06141" lon="9.13091">
        <ele>2267</ele>
        <time>2018-06-18T10:02:06Z</time>
      </trkpt>
      <trkpt lat="42.06141" lon="9.13075">
        <ele>2265</ele>
        <time>2018-06-18T10:02:22Z</time>
      </trkpt>
      <trkpt lat="42.06152" lon="9.13075">
        <ele>2264</ele>
        <time>2018-06-18T10:02:35Z</time>
      </trkpt>
      <trkpt lat="42.06159" lon="9.13076">
        <ele>2263</ele>
        <time>2018-06-18T10:02:42Z</time>
      </trkpt>
      <trkpt lat="42.06164" lon="9.13076">
        <ele>2263</ele>
        <time>2018-06-18T10:02:47Z</time>
      </trkpt>
      <trkpt lat="42.06168" lon="9.13077">
        <ele>2259</ele>
        <time>2018-06-18T10:02:51Z</time>
      </trkpt>
      <trkpt lat="42.06171" lon="9.13074">
        <ele>2258</ele>
        <time>2018-06-18T10:02:55Z</time>
      </trkpt>
      <trkpt lat="42.06177" lon="9.13065">
        <ele>2255</ele>
        <time>2018-06-18T10:03:04Z</time>
      </trkpt>
      <trkpt lat="42.06182" lon="9.13055">
        <ele>2254</ele>
        <time>2018-06-18T10:03:13Z</time>
      </trkpt>
      <trkpt lat="42.06187" lon="9.13046">
        <ele>2253</ele>
        <time>2018-06-18T10:03:25Z</time>
      </trkpt>
      <trkpt lat="42.06199" lon="9.13041">
        <ele>2252</ele>
        <time>2018-06-18T10:03:39Z</time>
      </trkpt>
      <trkpt lat="42.06204" lon="9.1304">
        <ele>2251</ele>
        <time>2018-06-18T10:03:43Z</time>
      </trkpt>
      <trkpt lat="42.06223" lon="9.13032">
        <ele>2250</ele>
        <time>2018-06-18T10:04:02Z</time>
      </trkpt>
      <trkpt lat="42.06235" lon="9.13022">
        <ele>2250</ele>
        <time>2018-06-18T10:04:16Z</time>
      </trkpt>
      <trkpt lat="42.06239" lon="9.13011">
        <ele>2250</ele>
        <time>2018-06-18T10:04:26Z</time>
      </trkpt>
      <trkpt lat="42.06236" lon="9.13004">
        <ele>2251</ele>
        <time>2018-06-18T10:04:40Z</time>
      </trkpt>
      <trkpt lat="42.06236" lon="9.13003">
        <ele>2251</ele>
        <time>2018-06-18T10:04:58Z</time>
      </trkpt>
      <trkpt lat="42.06237" lon="9.13003">
        <ele>2251</ele>
        <time>2018-06-18T10:04:59Z</time>
      </trkpt>
      <trkpt lat="42.06239" lon="9.13003">
        <ele>2251</ele>
        <time>2018-06-18T10:05:01Z</time>
      </trkpt>
      <trkpt lat="42.06241" lon="9.13">
        <ele>2251</ele>
        <time>2018-06-18T10:05:04Z</time>
      </trkpt>
      <trkpt lat="42.06245" lon="9.12997">
        <ele>2251</ele>
        <time>2018-06-18T10:05:08Z</time>
      </trkpt>
      <trkpt lat="42.06267" lon="9.12985">
        <ele>2248</ele>
        <time>2018-06-18T10:05:26Z</time>
      </trkpt>
      <trkpt lat="42.06278" lon="9.12981">
        <ele>2247</ele>
        <time>2018-06-18T10:05:35Z</time>
      </trkpt>
      <trkpt lat="42.0628" lon="9.12981">
        <ele>2247</ele>
        <time>2018-06-18T10:05:37Z</time>
      </trkpt>
      <trkpt lat="42.06304" lon="9.12971">
        <ele>2246</ele>
        <time>2018-06-18T10:05:57Z</time>
      </trkpt>
      <trkpt lat="42.06331" lon="9.12962">
        <ele>2246</ele>
        <time>2018-06-18T10:06:19Z</time>
      </trkpt>
      <trkpt lat="42.06361" lon="9.12956">
        <ele>2245</ele>
        <time>2018-06-18T10:06:43Z</time>
      </trkpt>
      <trkpt lat="42.06397" lon="9.12958">
        <ele>2245</ele>
        <time>2018-06-18T10:07:12Z</time>
      </trkpt>
      <trkpt lat="42.06406" lon="9.12958">
        <ele>2245</ele>
        <time>2018-06-18T10:07:20Z</time>
      </trkpt>
      <trkpt lat="42.06411" lon="9.12956">
        <ele>2245</ele>
        <time>2018-06-18T10:07:25Z</time>
      </trkpt>
      <trkpt lat="42.06434" lon="9.12944">
        <ele>2244</ele>
        <time>2018-06-18T10:07:47Z</time>
      </trkpt>
      <trkpt lat="42.06458" lon="9.12933">
        <ele>2243</ele>
        <time>2018-06-18T10:08:08Z</time>
      </trkpt>
      <trkpt lat="42.06482" lon="9.12919">
        <ele>2244</ele>
        <time>2018-06-18T10:08:31Z</time>
      </trkpt>
      <trkpt lat="42.06504" lon="9.12903">
        <ele>2241</ele>
        <time>2018-06-18T10:08:53Z</time>
      </trkpt>
      <trkpt lat="42.0651" lon="9.12901">
        <ele>2240</ele>
        <time>2018-06-18T10:08:58Z</time>
      </trkpt>
      <trkpt lat="42.06512" lon="9.12901">
        <ele>2240</ele>
        <time>2018-06-18T10:09:00Z</time>
      </trkpt>
      <trkpt lat="42.06518" lon="9.12898">
        <ele>2239</ele>
        <time>2018-06-18T10:09:06Z</time>
      </trkpt>
      <trkpt lat="42.06537" lon="9.12888">
        <ele>2237</ele>
        <time>2018-06-18T10:09:24Z</time>
      </trkpt>
      <trkpt lat="42.06549" lon="9.1289">
        <ele>2235</ele>
        <time>2018-06-18T10:09:35Z</time>
      </trkpt>
      <trkpt lat="42.06558" lon="9.12888">
        <ele>2235</ele>
        <time>2018-06-18T10:09:43Z</time>
      </trkpt>
      <trkpt lat="42.06572" lon="9.12878">
        <ele>2235</ele>
        <time>2018-06-18T10:09:57Z</time>
      </trkpt>
      <trkpt lat="42.06574" lon="9.12875">
        <ele>2235</ele>
        <time>2018-06-18T10:10:00Z</time>
      </trkpt>
      <trkpt lat="42.06592" lon="9.12863">
        <ele>2230</ele>
        <time>2018-06-18T10:10:19Z</time>
      </trkpt>
      <trkpt lat="42.06595" lon="9.12862">
        <ele>2230</ele>
        <time>2018-06-18T10:10:21Z</time>
      </trkpt>
      <trkpt lat="42.06612" lon="9.12857">
        <ele>2229</ele>
        <time>2018-06-18T10:10:39Z</time>
      </trkpt>
      <trkpt lat="42.06618" lon="9.12852">
        <ele>2230</ele>
        <time>2018-06-18T10:10:46Z</time>
      </trkpt>
      <trkpt lat="42.06627" lon="9.12844">
        <ele>2230</ele>
        <time>2018-06-18T10:10:57Z</time>
      </trkpt>
      <trkpt lat="42.06645" lon="9.1284">
        <ele>2230</ele>
        <time>2018-06-18T10:11:14Z</time>
      </trkpt>
      <trkpt lat="42.06667" lon="9.1284">
        <ele>2230</ele>
        <time>2018-06-18T10:11:35Z</time>
      </trkpt>
      <trkpt lat="42.06669" lon="9.12837">
        <ele>2232</ele>
        <time>2018-06-18T10:11:38Z</time>
      </trkpt>
      <trkpt lat="42.0667" lon="9.12835">
        <ele>2232</ele>
        <time>2018-06-18T10:11:40Z</time>
      </trkpt>
      <trkpt lat="42.06673" lon="9.12833">
        <ele>2234</ele>
        <time>2018-06-18T10:11:43Z</time>
      </trkpt>
      <trkpt lat="42.06679" lon="9.12831">
        <ele>2233</ele>
        <time>2018-06-18T10:11:50Z</time>
      </trkpt>
      <trkpt lat="42.06692" lon="9.12834">
        <ele>2224</ele>
        <time>2018-06-18T10:12:02Z</time>
      </trkpt>
      <trkpt lat="42.06704" lon="9.12829">
        <ele>2230</ele>
        <time>2018-06-18T10:12:17Z</time>
      </trkpt>
      <trkpt lat="42.06717" lon="9.12825">
        <ele>2229</ele>
        <time>2018-06-18T10:12:30Z</time>
      </trkpt>
      <trkpt lat="42.06719" lon="9.12824">
        <ele>2229</ele>
        <time>2018-06-18T10:12:33Z</time>
      </trkpt>
      <trkpt lat="42.06732" lon="9.12819">
        <ele>2228</ele>
        <time>2018-06-18T10:12:48Z</time>
      </trkpt>
      <trkpt lat="42.0674" lon="9.12819">
        <ele>2227</ele>
        <time>2018-06-18T10:12:57Z</time>
      </trkpt>
      <trkpt lat="42.0674" lon="9.12829">
        <ele>2226</ele>
        <time>2018-06-18T10:13:05Z</time>
      </trkpt>
      <trkpt lat="42.06742" lon="9.12833">
        <ele>2225</ele>
        <time>2018-06-18T10:13:10Z</time>
      </trkpt>
      <trkpt lat="42.06751" lon="9.12836">
        <ele>2221</ele>
        <time>2018-06-18T10:13:19Z</time>
      </trkpt>
      <trkpt lat="42.06774" lon="9.12833">
        <ele>2221</ele>
        <time>2018-06-18T10:13:40Z</time>
      </trkpt>
      <trkpt lat="42.06781" lon="9.12835">
        <ele>2213</ele>
        <time>2018-06-18T10:13:47Z</time>
      </trkpt>
      <trkpt lat="42.06794" lon="9.12842">
        <ele>2212</ele>
        <time>2018-06-18T10:14:02Z</time>
      </trkpt>
      <trkpt lat="42.06803" lon="9.12858">
        <ele>2210</ele>
        <time>2018-06-18T10:14:18Z</time>
      </trkpt>
      <trkpt lat="42.06805" lon="9.12861">
        <ele>2210</ele>
        <time>2018-06-18T10:14:21Z</time>
      </trkpt>
      <trkpt lat="42.06813" lon="9.12869">
        <ele>2209</ele>
        <time>2018-06-18T10:14:32Z</time>
      </trkpt>
      <trkpt lat="42.06814" lon="9.12875">
        <ele>2208</ele>
        <time>2018-06-18T10:14:37Z</time>
      </trkpt>
      <trkpt lat="42.06817" lon="9.12878">
        <ele>2208</ele>
        <time>2018-06-18T10:14:41Z</time>
      </trkpt>
      <trkpt lat="42.0682" lon="9.12887">
        <ele>2207</ele>
        <time>2018-06-18T10:14:50Z</time>
      </trkpt>
      <trkpt lat="42.06822" lon="9.12902">
        <ele>2205</ele>
        <time>2018-06-18T10:15:03Z</time>
      </trkpt>
      <trkpt lat="42.06826" lon="9.12905">
        <ele>2205</ele>
        <time>2018-06-18T10:15:08Z</time>
      </trkpt>
      <trkpt lat="42.06833" lon="9.12903">
        <ele>2205</ele>
        <time>2018-06-18T10:15:15Z</time>
      </trkpt>
      <trkpt lat="42.06838" lon="9.12906">
        <ele>2200</ele>
        <time>2018-06-18T10:15:22Z</time>
      </trkpt>
      <trkpt lat="42.06836" lon="9.1291">
        <ele>2200</ele>
        <time>2018-06-18T10:15:25Z</time>
      </trkpt>
      <trkpt lat="42.06837" lon="9.12925">
        <ele>2198</ele>
        <time>2018-06-18T10:15:41Z</time>
      </trkpt>
      <trkpt lat="42.06841" lon="9.12925">
        <ele>2197</ele>
        <time>2018-06-18T10:15:48Z</time>
      </trkpt>
      <trkpt lat="42.06843" lon="9.12935">
        <ele>2194</ele>
        <time>2018-06-18T10:15:56Z</time>
      </trkpt>
      <trkpt lat="42.06856" lon="9.12939">
        <ele>2192</ele>
        <time>2018-06-18T10:16:12Z</time>
      </trkpt>
      <trkpt lat="42.06869" lon="9.12949">
        <ele>2190</ele>
        <time>2018-06-18T10:16:27Z</time>
      </trkpt>
      <trkpt lat="42.06876" lon="9.12955">
        <ele>2189</ele>
        <time>2018-06-18T10:16:36Z</time>
      </trkpt>
      <trkpt lat="42.0688" lon="9.12965">
        <ele>2189</ele>
        <time>2018-06-18T10:16:54Z</time>
      </trkpt>
      <trkpt lat="42.06883" lon="9.12967">
        <ele>2188</ele>
        <time>2018-06-18T10:16:58Z</time>
      </trkpt>
      <trkpt lat="42.06896" lon="9.12981">
        <ele>2187</ele>
        <time>2018-06-18T10:17:16Z</time>
      </trkpt>
      <trkpt lat="42.06897" lon="9.12983">
        <ele>2187</ele>
        <time>2018-06-18T10:17:19Z</time>
      </trkpt>
      <trkpt lat="42.06915" lon="9.12985">
        <ele>2187</ele>
        <time>2018-06-18T10:17:35Z</time>
      </trkpt>
      <trkpt lat="42.06917" lon="9.12986">
        <ele>2180</ele>
        <time>2018-06-18T10:17:37Z</time>
      </trkpt>
      <trkpt lat="42.06921" lon="9.12988">
        <ele>2180</ele>
        <time>2018-06-18T10:17:41Z</time>
      </trkpt>
      <trkpt lat="42.06932" lon="9.12994">
        <ele>2179</ele>
        <time>2018-06-18T10:17:55Z</time>
      </trkpt>
      <trkpt lat="42.06945" lon="9.13">
        <ele>2177</ele>
        <time>2018-06-18T10:18:10Z</time>
      </trkpt>
      <trkpt lat="42.06954" lon="9.13014">
        <ele>2175</ele>
        <time>2018-06-18T10:18:25Z</time>
      </trkpt>
      <trkpt lat="42.06971" lon="9.13019">
        <ele>2174</ele>
        <time>2018-06-18T10:18:41Z</time>
      </trkpt>
      <trkpt lat="42.06977" lon="9.13019">
        <ele>2174</ele>
        <time>2018-06-18T10:18:47Z</time>
      </trkpt>
      <trkpt lat="42.06993" lon="9.13021">
        <ele>2173</ele>
        <time>2018-06-18T10:19:03Z</time>
      </trkpt>
      <trkpt lat="42.07008" lon="9.13025">
        <ele>2171</ele>
        <time>2018-06-18T10:19:19Z</time>
      </trkpt>
      <trkpt lat="42.07017" lon="9.13034">
        <ele>2171</ele>
        <time>2018-06-18T10:19:36Z</time>
      </trkpt>
      <trkpt lat="42.07017" lon="9.13053">
        <ele>2172</ele>
        <time>2018-06-18T10:19:53Z</time>
      </trkpt>
      <trkpt lat="42.07022" lon="9.13062">
        <ele>2173</ele>
        <time>2018-06-18T10:20:03Z</time>
      </trkpt>
      <trkpt lat="42.07026" lon="9.13071">
        <ele>2173</ele>
        <time>2018-06-18T10:20:12Z</time>
      </trkpt>
      <trkpt lat="42.0704" lon="9.13078">
        <ele>2173</ele>
        <time>2018-06-18T10:20:28Z</time>
      </trkpt>
      <trkpt lat="42.07052" lon="9.13087">
        <ele>2173</ele>
        <time>2018-06-18T10:20:46Z</time>
      </trkpt>
      <trkpt lat="42.07065" lon="9.13086">
        <ele>2175</ele>
        <time>2018-06-18T10:21:03Z</time>
      </trkpt>
      <trkpt lat="42.07075" lon="9.13088">
        <ele>2176</ele>
        <time>2018-06-18T10:21:18Z</time>
      </trkpt>
      <trkpt lat="42.07089" lon="9.1309">
        <ele>2178</ele>
        <time>2018-06-18T10:21:34Z</time>
      </trkpt>
      <trkpt lat="42.07104" lon="9.13098">
        <ele>2176</ele>
        <time>2018-06-18T10:21:50Z</time>
      </trkpt>
      <trkpt lat="42.07121" lon="9.13115">
        <ele>2175</ele>
        <time>2018-06-18T10:22:11Z</time>
      </trkpt>
      <trkpt lat="42.07139" lon="9.13127">
        <ele>2175</ele>
        <time>2018-06-18T10:22:29Z</time>
      </trkpt>
      <trkpt lat="42.07159" lon="9.1313">
        <ele>2175</ele>
        <time>2018-06-18T10:22:48Z</time>
      </trkpt>
      <trkpt lat="42.07181" lon="9.13126">
        <ele>2172</ele>
        <time>2018-06-18T10:23:08Z</time>
      </trkpt>
      <trkpt lat="42.07203" lon="9.13125">
        <ele>2171</ele>
        <time>2018-06-18T10:23:28Z</time>
      </trkpt>
      <trkpt lat="42.0722" lon="9.13127">
        <ele>2171</ele>
        <time>2018-06-18T10:23:46Z</time>
      </trkpt>
      <trkpt lat="42.07223" lon="9.13127">
        <ele>2170</ele>
        <time>2018-06-18T10:23:49Z</time>
      </trkpt>
      <trkpt lat="42.07238" lon="9.13134">
        <ele>2170</ele>
        <time>2018-06-18T10:24:06Z</time>
      </trkpt>
      <trkpt lat="42.07255" lon="9.13143">
        <ele>2159</ele>
        <time>2018-06-18T10:24:23Z</time>
      </trkpt>
      <trkpt lat="42.0727" lon="9.13149">
        <ele>2157</ele>
        <time>2018-06-18T10:24:38Z</time>
      </trkpt>
      <trkpt lat="42.07289" lon="9.13159">
        <ele>2153</ele>
        <time>2018-06-18T10:24:57Z</time>
      </trkpt>
      <trkpt lat="42.0729" lon="9.13159">
        <ele>2153</ele>
        <time>2018-06-18T10:24:58Z</time>
      </trkpt>
      <trkpt lat="42.07293" lon="9.13155">
        <ele>2152</ele>
        <time>2018-06-18T10:25:03Z</time>
      </trkpt>
      <trkpt lat="42.07297" lon="9.13144">
        <ele>2151</ele>
        <time>2018-06-18T10:25:12Z</time>
      </trkpt>
      <trkpt lat="42.07298" lon="9.13142">
        <ele>2151</ele>
        <time>2018-06-18T10:25:14Z</time>
      </trkpt>
      <trkpt lat="42.073" lon="9.13139">
        <ele>2150</ele>
        <time>2018-06-18T10:25:17Z</time>
      </trkpt>
      <trkpt lat="42.07316" lon="9.13124">
        <ele>2147</ele>
        <time>2018-06-18T10:25:37Z</time>
      </trkpt>
      <trkpt lat="42.07326" lon="9.13122">
        <ele>2145</ele>
        <time>2018-06-18T10:25:49Z</time>
      </trkpt>
      <trkpt lat="42.07331" lon="9.13119">
        <ele>2144</ele>
        <time>2018-06-18T10:26:00Z</time>
      </trkpt>
      <trkpt lat="42.07336" lon="9.13118">
        <ele>2122</ele>
        <time>2018-06-18T10:26:13Z</time>
      </trkpt>
      <trkpt lat="42.07343" lon="9.13125">
        <ele>2122</ele>
        <time>2018-06-18T10:26:31Z</time>
      </trkpt>
      <trkpt lat="42.07349" lon="9.1313">
        <ele>2122</ele>
        <time>2018-06-18T10:26:49Z</time>
      </trkpt>
      <trkpt lat="42.07352" lon="9.13135">
        <ele>2122</ele>
        <time>2018-06-18T10:27:05Z</time>
      </trkpt>
      <trkpt lat="42.07356" lon="9.13141">
        <ele>2122</ele>
        <time>2018-06-18T10:27:24Z</time>
      </trkpt>
      <trkpt lat="42.07358" lon="9.13148">
        <ele>2123</ele>
        <time>2018-06-18T10:27:44Z</time>
      </trkpt>
      <trkpt lat="42.07363" lon="9.13151">
        <ele>2122</ele>
        <time>2018-06-18T10:28:02Z</time>
      </trkpt>
      <trkpt lat="42.07364" lon="9.13152">
        <ele>2122</ele>
        <time>2018-06-18T10:28:20Z</time>
      </trkpt>
      <trkpt lat="42.07367" lon="9.1315">
        <ele>2121</ele>
        <time>2018-06-18T10:28:41Z</time>
      </trkpt>
      <trkpt lat="42.0737" lon="9.13152">
        <ele>2120</ele>
        <time>2018-06-18T10:29:00Z</time>
      </trkpt>
      <trkpt lat="42.07374" lon="9.13151">
        <ele>2119</ele>
        <time>2018-06-18T10:29:17Z</time>
      </trkpt>
      <trkpt lat="42.07377" lon="9.13151">
        <ele>2118</ele>
        <time>2018-06-18T10:29:41Z</time>
      </trkpt>
      <trkpt lat="42.07382" lon="9.13155">
        <ele>2117</ele>
        <time>2018-06-18T10:30:00Z</time>
      </trkpt>
      <trkpt lat="42.07391" lon="9.13155">
        <ele>2115</ele>
        <time>2018-06-18T10:30:18Z</time>
      </trkpt>
      <trkpt lat="42.07398" lon="9.1316">
        <ele>2114</ele>
        <time>2018-06-18T10:30:34Z</time>
      </trkpt>
      <trkpt lat="42.07405" lon="9.13165">
        <ele>2113</ele>
        <time>2018-06-18T10:31:02Z</time>
      </trkpt>
      <trkpt lat="42.07408" lon="9.13167">
        <ele>2113</ele>
        <time>2018-06-18T10:31:23Z</time>
      </trkpt>
      <trkpt lat="42.07413" lon="9.13168">
        <ele>2112</ele>
        <time>2018-06-18T10:31:40Z</time>
      </trkpt>
      <trkpt lat="42.07413" lon="9.13168">
        <ele>2112</ele>
        <time>2018-06-18T10:32:05Z</time>
      </trkpt>
      <trkpt lat="42.07414" lon="9.13166">
        <ele>2111</ele>
        <time>2018-06-18T10:33:01Z</time>
      </trkpt>
      <trkpt lat="42.07414" lon="9.13166">
        <ele>2111</ele>
        <time>2018-06-18T10:33:57Z</time>
      </trkpt>
      <trkpt lat="42.07417" lon="9.13166">
        <ele>2110</ele>
        <time>2018-06-18T10:35:31Z</time>
      </trkpt>
      <trkpt lat="42.07417" lon="9.13164">
        <ele>2108</ele>
        <time>2018-06-18T10:35:49Z</time>
      </trkpt>
      <trkpt lat="42.0742" lon="9.13162">
        <ele>2105</ele>
        <time>2018-06-18T10:36:05Z</time>
      </trkpt>
      <trkpt lat="42.07432" lon="9.13165">
        <ele>2098</ele>
        <time>2018-06-18T10:36:24Z</time>
      </trkpt>
      <trkpt lat="42.07441" lon="9.13172">
        <ele>2106</ele>
        <time>2018-06-18T10:36:40Z</time>
      </trkpt>
      <trkpt lat="42.07454" lon="9.13178">
        <ele>2105</ele>
        <time>2018-06-18T10:37:02Z</time>
      </trkpt>
      <trkpt lat="42.07468" lon="9.13183">
        <ele>2103</ele>
        <time>2018-06-18T10:37:21Z</time>
      </trkpt>
      <trkpt lat="42.07477" lon="9.13192">
        <ele>2103</ele>
        <time>2018-06-18T10:37:39Z</time>
      </trkpt>
      <trkpt lat="42.07486" lon="9.13207">
        <ele>2106</ele>
        <time>2018-06-18T10:38:00Z</time>
      </trkpt>
      <trkpt lat="42.07497" lon="9.13216">
        <ele>2108</ele>
        <time>2018-06-18T10:38:18Z</time>
      </trkpt>
      <trkpt lat="42.07507" lon="9.13223">
        <ele>2105</ele>
        <time>2018-06-18T10:38:36Z</time>
      </trkpt>
      <trkpt lat="42.07514" lon="9.13234">
        <ele>2108</ele>
        <time>2018-06-18T10:38:56Z</time>
      </trkpt>
      <trkpt lat="42.07519" lon="9.13237">
        <ele>2108</ele>
        <time>2018-06-18T10:39:13Z</time>
      </trkpt>
      <trkpt lat="42.07525" lon="9.13242">
        <ele>2107</ele>
        <time>2018-06-18T10:39:30Z</time>
      </trkpt>
      <trkpt lat="42.07529" lon="9.13246">
        <ele>2107</ele>
        <time>2018-06-18T10:39:50Z</time>
      </trkpt>
      <trkpt lat="42.07532" lon="9.13252">
        <ele>2116</ele>
        <time>2018-06-18T10:40:06Z</time>
      </trkpt>
      <trkpt lat="42.07535" lon="9.13254">
        <ele>2115</ele>
        <time>2018-06-18T10:40:25Z</time>
      </trkpt>
      <trkpt lat="42.07536" lon="9.13257">
        <ele>2115</ele>
        <time>2018-06-18T10:40:42Z</time>
      </trkpt>
      <trkpt lat="42.07543" lon="9.1326">
        <ele>2115</ele>
        <time>2018-06-18T10:41:00Z</time>
      </trkpt>
      <trkpt lat="42.07553" lon="9.13268">
        <ele>2114</ele>
        <time>2018-06-18T10:41:17Z</time>
      </trkpt>
      <trkpt lat="42.07563" lon="9.13273">
        <ele>2114</ele>
        <time>2018-06-18T10:41:33Z</time>
      </trkpt>
      <trkpt lat="42.07571" lon="9.13279">
        <ele>2114</ele>
        <time>2018-06-18T10:41:46Z</time>
      </trkpt>
      <trkpt lat="42.07578" lon="9.13283">
        <ele>2114</ele>
        <time>2018-06-18T10:42:04Z</time>
      </trkpt>
      <trkpt lat="42.0759" lon="9.13285">
        <ele>2113</ele>
        <time>2018-06-18T10:42:20Z</time>
      </trkpt>
      <trkpt lat="42.07591" lon="9.13285">
        <ele>2113</ele>
        <time>2018-06-18T10:42:21Z</time>
      </trkpt>
      <trkpt lat="42.07602" lon="9.13285">
        <ele>2113</ele>
        <time>2018-06-18T10:42:35Z</time>
      </trkpt>
      <trkpt lat="42.07615" lon="9.13285">
        <ele>2113</ele>
        <time>2018-06-18T10:42:53Z</time>
      </trkpt>
      <trkpt lat="42.07628" lon="9.13285">
        <ele>2113</ele>
        <time>2018-06-18T10:43:09Z</time>
      </trkpt>
      <trkpt lat="42.07639" lon="9.13285">
        <ele>2113</ele>
        <time>2018-06-18T10:43:25Z</time>
      </trkpt>
      <trkpt lat="42.07649" lon="9.13279">
        <ele>2113</ele>
        <time>2018-06-18T10:43:42Z</time>
      </trkpt>
      <trkpt lat="42.07657" lon="9.13277">
        <ele>2112</ele>
        <time>2018-06-18T10:43:57Z</time>
      </trkpt>
      <trkpt lat="42.07665" lon="9.13272">
        <ele>2112</ele>
        <time>2018-06-18T10:44:13Z</time>
      </trkpt>
      <trkpt lat="42.07675" lon="9.13273">
        <ele>2115</ele>
        <time>2018-06-18T10:44:30Z</time>
      </trkpt>
      <trkpt lat="42.0768" lon="9.13273">
        <ele>2116</ele>
        <time>2018-06-18T10:44:35Z</time>
      </trkpt>
      <trkpt lat="42.07701" lon="9.13271">
        <ele>2118</ele>
        <time>2018-06-18T10:44:56Z</time>
      </trkpt>
      <trkpt lat="42.07714" lon="9.13269">
        <ele>2119</ele>
        <time>2018-06-18T10:45:13Z</time>
      </trkpt>
      <trkpt lat="42.07724" lon="9.13266">
        <ele>2119</ele>
        <time>2018-06-18T10:45:29Z</time>
      </trkpt>
      <trkpt lat="42.07731" lon="9.1326">
        <ele>2120</ele>
        <time>2018-06-18T10:45:38Z</time>
      </trkpt>
      <trkpt lat="42.07742" lon="9.13251">
        <ele>2121</ele>
        <time>2018-06-18T10:45:53Z</time>
      </trkpt>
      <trkpt lat="42.07752" lon="9.13248">
        <ele>2120</ele>
        <time>2018-06-18T10:46:08Z</time>
      </trkpt>
      <trkpt lat="42.07764" lon="9.13249">
        <ele>2114</ele>
        <time>2018-06-18T10:46:27Z</time>
      </trkpt>
      <trkpt lat="42.07773" lon="9.13243">
        <ele>2110</ele>
        <time>2018-06-18T10:46:43Z</time>
      </trkpt>
      <trkpt lat="42.07783" lon="9.13238">
        <ele>2108</ele>
        <time>2018-06-18T10:46:58Z</time>
      </trkpt>
      <trkpt lat="42.07795" lon="9.13238">
        <ele>2108</ele>
        <time>2018-06-18T10:47:16Z</time>
      </trkpt>
      <trkpt lat="42.07806" lon="9.1325">
        <ele>2120</ele>
        <time>2018-06-18T10:47:34Z</time>
      </trkpt>
      <trkpt lat="42.07815" lon="9.13266">
        <ele>2120</ele>
        <time>2018-06-18T10:47:53Z</time>
      </trkpt>
      <trkpt lat="42.07826" lon="9.13276">
        <ele>2120</ele>
        <time>2018-06-18T10:48:10Z</time>
      </trkpt>
      <trkpt lat="42.07828" lon="9.13279">
        <ele>2120</ele>
        <time>2018-06-18T10:48:13Z</time>
      </trkpt>
      <trkpt lat="42.07838" lon="9.13289">
        <ele>2115</ele>
        <time>2018-06-18T10:48:30Z</time>
      </trkpt>
      <trkpt lat="42.07849" lon="9.13299">
        <ele>2115</ele>
        <time>2018-06-18T10:48:46Z</time>
      </trkpt>
      <trkpt lat="42.07861" lon="9.13313">
        <ele>2115</ele>
        <time>2018-06-18T10:49:04Z</time>
      </trkpt>
      <trkpt lat="42.07867" lon="9.13321">
        <ele>2116</ele>
        <time>2018-06-18T10:49:16Z</time>
      </trkpt>
      <trkpt lat="42.0788" lon="9.13338">
        <ele>2116</ele>
        <time>2018-06-18T10:49:34Z</time>
      </trkpt>
      <trkpt lat="42.07893" lon="9.13359">
        <ele>2115</ele>
        <time>2018-06-18T10:49:54Z</time>
      </trkpt>
      <trkpt lat="42.07904" lon="9.13379">
        <ele>2114</ele>
        <time>2018-06-18T10:50:12Z</time>
      </trkpt>
      <trkpt lat="42.07905" lon="9.13382">
        <ele>2114</ele>
        <time>2018-06-18T10:50:15Z</time>
      </trkpt>
      <trkpt lat="42.07907" lon="9.13384">
        <ele>2114</ele>
        <time>2018-06-18T10:50:18Z</time>
      </trkpt>
      <trkpt lat="42.0791" lon="9.13389">
        <ele>2114</ele>
        <time>2018-06-18T10:50:22Z</time>
      </trkpt>
      <trkpt lat="42.07916" lon="9.13396">
        <ele>2114</ele>
        <time>2018-06-18T10:50:32Z</time>
      </trkpt>
      <trkpt lat="42.07922" lon="9.13401">
        <ele>2116</ele>
        <time>2018-06-18T10:50:39Z</time>
      </trkpt>
      <trkpt lat="42.07927" lon="9.13407">
        <ele>2116</ele>
        <time>2018-06-18T10:50:46Z</time>
      </trkpt>
      <trkpt lat="42.07945" lon="9.13415">
        <ele>2116</ele>
        <time>2018-06-18T10:51:07Z</time>
      </trkpt>
      <trkpt lat="42.07959" lon="9.13414">
        <ele>2117</ele>
        <time>2018-06-18T10:51:23Z</time>
      </trkpt>
      <trkpt lat="42.07974" lon="9.13416">
        <ele>2117</ele>
        <time>2018-06-18T10:51:41Z</time>
      </trkpt>
      <trkpt lat="42.07989" lon="9.13419">
        <ele>2113</ele>
        <time>2018-06-18T10:52:00Z</time>
      </trkpt>
      <trkpt lat="42.08003" lon="9.13418">
        <ele>2117</ele>
        <time>2018-06-18T10:52:16Z</time>
      </trkpt>
      <trkpt lat="42.08018" lon="9.13423">
        <ele>2113</ele>
        <time>2018-06-18T10:52:31Z</time>
      </trkpt>
      <trkpt lat="42.08035" lon="9.13426">
        <ele>2111</ele>
        <time>2018-06-18T10:52:48Z</time>
      </trkpt>
      <trkpt lat="42.08055" lon="9.13425">
        <ele>2111</ele>
        <time>2018-06-18T10:53:08Z</time>
      </trkpt>
      <trkpt lat="42.08066" lon="9.13431">
        <ele>2111</ele>
        <time>2018-06-18T10:53:21Z</time>
      </trkpt>
      <trkpt lat="42.08085" lon="9.1343">
        <ele>2110</ele>
        <time>2018-06-18T10:53:41Z</time>
      </trkpt>
      <trkpt lat="42.08099" lon="9.13431">
        <ele>2108</ele>
        <time>2018-06-18T10:53:59Z</time>
      </trkpt>
      <trkpt lat="42.08101" lon="9.13432">
        <ele>2107</ele>
        <time>2018-06-18T10:54:01Z</time>
      </trkpt>
      <trkpt lat="42.08104" lon="9.13431">
        <ele>2107</ele>
        <time>2018-06-18T10:54:05Z</time>
      </trkpt>
      <trkpt lat="42.08125" lon="9.13422">
        <ele>2105</ele>
        <time>2018-06-18T10:54:26Z</time>
      </trkpt>
      <trkpt lat="42.08134" lon="9.13416">
        <ele>2100</ele>
        <time>2018-06-18T10:54:43Z</time>
      </trkpt>
      <trkpt lat="42.08149" lon="9.13412">
        <ele>2101</ele>
        <time>2018-06-18T10:55:00Z</time>
      </trkpt>
      <trkpt lat="42.08165" lon="9.13415">
        <ele>2107</ele>
        <time>2018-06-18T10:55:17Z</time>
      </trkpt>
      <trkpt lat="42.0818" lon="9.13423">
        <ele>2102</ele>
        <time>2018-06-18T10:55:34Z</time>
      </trkpt>
      <trkpt lat="42.08192" lon="9.13429">
        <ele>2098</ele>
        <time>2018-06-18T10:55:52Z</time>
      </trkpt>
      <trkpt lat="42.08202" lon="9.1343">
        <ele>2097</ele>
        <time>2018-06-18T10:56:07Z</time>
      </trkpt>
      <trkpt lat="42.08213" lon="9.13429">
        <ele>2095</ele>
        <time>2018-06-18T10:56:23Z</time>
      </trkpt>
      <trkpt lat="42.08221" lon="9.13439">
        <ele>2094</ele>
        <time>2018-06-18T10:56:37Z</time>
      </trkpt>
      <trkpt lat="42.08228" lon="9.13447">
        <ele>2094</ele>
        <time>2018-06-18T10:56:48Z</time>
      </trkpt>
      <trkpt lat="42.08247" lon="9.13451">
        <ele>2093</ele>
        <time>2018-06-18T10:57:07Z</time>
      </trkpt>
      <trkpt lat="42.08265" lon="9.13445">
        <ele>2084</ele>
        <time>2018-06-18T10:57:25Z</time>
      </trkpt>
      <trkpt lat="42.08273" lon="9.13446">
        <ele>2083</ele>
        <time>2018-06-18T10:57:40Z</time>
      </trkpt>
      <trkpt lat="42.08277" lon="9.13451">
        <ele>2083</ele>
        <time>2018-06-18T10:57:57Z</time>
      </trkpt>
      <trkpt lat="42.08278" lon="9.13451">
        <ele>2083</ele>
        <time>2018-06-18T10:58:17Z</time>
      </trkpt>
      <trkpt lat="42.0828" lon="9.13463">
        <ele>2083</ele>
        <time>2018-06-18T10:58:32Z</time>
      </trkpt>
      <trkpt lat="42.08289" lon="9.13467">
        <ele>2081</ele>
        <time>2018-06-18T10:58:49Z</time>
      </trkpt>
      <trkpt lat="42.08293" lon="9.13467">
        <ele>2081</ele>
        <time>2018-06-18T10:59:04Z</time>
      </trkpt>
      <trkpt lat="42.08297" lon="9.13466">
        <ele>2080</ele>
        <time>2018-06-18T10:59:15Z</time>
      </trkpt>
      <trkpt lat="42.08302" lon="9.13454">
        <ele>2080</ele>
        <time>2018-06-18T10:59:33Z</time>
      </trkpt>
      <trkpt lat="42.08304" lon="9.13446">
        <ele>2079</ele>
        <time>2018-06-18T10:59:51Z</time>
      </trkpt>
      <trkpt lat="42.08306" lon="9.13438">
        <ele>2079</ele>
        <time>2018-06-18T11:00:06Z</time>
      </trkpt>
      <trkpt lat="42.08314" lon="9.13433">
        <ele>2078</ele>
        <time>2018-06-18T11:00:23Z</time>
      </trkpt>
      <trkpt lat="42.08322" lon="9.13429">
        <ele>2076</ele>
        <time>2018-06-18T11:00:39Z</time>
      </trkpt>
      <trkpt lat="42.08324" lon="9.13422">
        <ele>2075</ele>
        <time>2018-06-18T11:00:54Z</time>
      </trkpt>
      <trkpt lat="42.08325" lon="9.1342">
        <ele>2075</ele>
        <time>2018-06-18T11:01:16Z</time>
      </trkpt>
      <trkpt lat="42.08326" lon="9.13416">
        <ele>2071</ele>
        <time>2018-06-18T11:01:35Z</time>
      </trkpt>
      <trkpt lat="42.08328" lon="9.13413">
        <ele>2071</ele>
        <time>2018-06-18T11:01:52Z</time>
      </trkpt>
      <trkpt lat="42.08331" lon="9.13415">
        <ele>2072</ele>
        <time>2018-06-18T11:02:09Z</time>
      </trkpt>
      <trkpt lat="42.08337" lon="9.13416">
        <ele>2066</ele>
        <time>2018-06-18T11:02:25Z</time>
      </trkpt>
      <trkpt lat="42.08342" lon="9.13418">
        <ele>2063</ele>
        <time>2018-06-18T11:02:38Z</time>
      </trkpt>
      <trkpt lat="42.08348" lon="9.13425">
        <ele>2057</ele>
        <time>2018-06-18T11:02:54Z</time>
      </trkpt>
      <trkpt lat="42.08348" lon="9.13428">
        <ele>2056</ele>
        <time>2018-06-18T11:03:19Z</time>
      </trkpt>
      <trkpt lat="42.08353" lon="9.13428">
        <ele>2054</ele>
        <time>2018-06-18T11:03:41Z</time>
      </trkpt>
      <trkpt lat="42.08358" lon="9.13428">
        <ele>2051</ele>
        <time>2018-06-18T11:03:46Z</time>
      </trkpt>
      <trkpt lat="42.0836" lon="9.13423">
        <ele>2051</ele>
        <time>2018-06-18T11:04:01Z</time>
      </trkpt>
      <trkpt lat="42.08365" lon="9.13424">
        <ele>2048</ele>
        <time>2018-06-18T11:04:21Z</time>
      </trkpt>
      <trkpt lat="42.08364" lon="9.13423">
        <ele>2049</ele>
        <time>2018-06-18T11:04:41Z</time>
      </trkpt>
      <trkpt lat="42.0837" lon="9.13422">
        <ele>2046</ele>
        <time>2018-06-18T11:04:58Z</time>
      </trkpt>
      <trkpt lat="42.08371" lon="9.13424">
        <ele>2046</ele>
        <time>2018-06-18T11:05:13Z</time>
      </trkpt>
      <trkpt lat="42.08378" lon="9.13429">
        <ele>2042</ele>
        <time>2018-06-18T11:05:29Z</time>
      </trkpt>
      <trkpt lat="42.08383" lon="9.1343">
        <ele>2040</ele>
        <time>2018-06-18T11:05:47Z</time>
      </trkpt>
      <trkpt lat="42.08386" lon="9.13425">
        <ele>2039</ele>
        <time>2018-06-18T11:05:57Z</time>
      </trkpt>
      <trkpt lat="42.0839" lon="9.13422">
        <ele>2037</ele>
        <time>2018-06-18T11:06:09Z</time>
      </trkpt>
      <trkpt lat="42.08391" lon="9.13417">
        <ele>2037</ele>
        <time>2018-06-18T11:06:20Z</time>
      </trkpt>
      <trkpt lat="42.08395" lon="9.13413">
        <ele>2029</ele>
        <time>2018-06-18T11:06:35Z</time>
      </trkpt>
      <trkpt lat="42.08401" lon="9.13414">
        <ele>2028</ele>
        <time>2018-06-18T11:06:49Z</time>
      </trkpt>
      <trkpt lat="42.08407" lon="9.13413">
        <ele>2026</ele>
        <time>2018-06-18T11:07:03Z</time>
      </trkpt>
      <trkpt lat="42.08411" lon="9.13415">
        <ele>2025</ele>
        <time>2018-06-18T11:07:18Z</time>
      </trkpt>
      <trkpt lat="42.08418" lon="9.13415">
        <ele>2020</ele>
        <time>2018-06-18T11:07:35Z</time>
      </trkpt>
      <trkpt lat="42.08419" lon="9.13417">
        <ele>2020</ele>
        <time>2018-06-18T11:07:58Z</time>
      </trkpt>
      <trkpt lat="42.08422" lon="9.13418">
        <ele>2017</ele>
        <time>2018-06-18T11:08:19Z</time>
      </trkpt>
      <trkpt lat="42.08426" lon="9.13421">
        <ele>2013</ele>
        <time>2018-06-18T11:08:37Z</time>
      </trkpt>
      <trkpt lat="42.08428" lon="9.13418">
        <ele>2012</ele>
        <time>2018-06-18T11:08:48Z</time>
      </trkpt>
      <trkpt lat="42.08431" lon="9.13421">
        <ele>2009</ele>
        <time>2018-06-18T11:09:06Z</time>
      </trkpt>
      <trkpt lat="42.08434" lon="9.13424">
        <ele>2007</ele>
        <time>2018-06-18T11:09:27Z</time>
      </trkpt>
      <trkpt lat="42.08437" lon="9.1342">
        <ele>2006</ele>
        <time>2018-06-18T11:09:52Z</time>
      </trkpt>
      <trkpt lat="42.0844" lon="9.13417">
        <ele>2005</ele>
        <time>2018-06-18T11:10:14Z</time>
      </trkpt>
      <trkpt lat="42.08443" lon="9.1342">
        <ele>2003</ele>
        <time>2018-06-18T11:10:34Z</time>
      </trkpt>
      <trkpt lat="42.08445" lon="9.1342">
        <ele>2002</ele>
        <time>2018-06-18T11:10:51Z</time>
      </trkpt>
      <trkpt lat="42.08447" lon="9.13418">
        <ele>2001</ele>
        <time>2018-06-18T11:11:08Z</time>
      </trkpt>
      <trkpt lat="42.08446" lon="9.13415">
        <ele>1995</ele>
        <time>2018-06-18T11:11:30Z</time>
      </trkpt>
      <trkpt lat="42.08448" lon="9.13414">
        <ele>1994</ele>
        <time>2018-06-18T11:11:57Z</time>
      </trkpt>
      <trkpt lat="42.08449" lon="9.13411">
        <ele>1993</ele>
        <time>2018-06-18T11:12:18Z</time>
      </trkpt>
      <trkpt lat="42.08452" lon="9.13413">
        <ele>1992</ele>
        <time>2018-06-18T11:12:42Z</time>
      </trkpt>
      <trkpt lat="42.08452" lon="9.13413">
        <ele>1992</ele>
        <time>2018-06-18T11:13:08Z</time>
      </trkpt>
      <trkpt lat="42.0845" lon="9.13409">
        <ele>1993</ele>
        <time>2018-06-18T11:13:24Z</time>
      </trkpt>
      <trkpt lat="42.08447" lon="9.13407">
        <ele>1994</ele>
        <time>2018-06-18T11:13:48Z</time>
      </trkpt>
      <trkpt lat="42.08446" lon="9.13404">
        <ele>1994</ele>
        <time>2018-06-18T11:14:10Z</time>
      </trkpt>
      <trkpt lat="42.08442" lon="9.13402">
        <ele>1995</ele>
        <time>2018-06-18T11:14:32Z</time>
      </trkpt>
      <trkpt lat="42.08441" lon="9.13399">
        <ele>1995</ele>
        <time>2018-06-18T11:14:50Z</time>
      </trkpt>
      <trkpt lat="42.08443" lon="9.13401">
        <ele>1994</ele>
        <time>2018-06-18T11:14:57Z</time>
      </trkpt>
      <trkpt lat="42.08444" lon="9.13397">
        <ele>1993</ele>
        <time>2018-06-18T11:15:18Z</time>
      </trkpt>
      <trkpt lat="42.08445" lon="9.1339">
        <ele>1991</ele>
        <time>2018-06-18T11:15:37Z</time>
      </trkpt>
      <trkpt lat="42.08446" lon="9.13387">
        <ele>1989</ele>
        <time>2018-06-18T11:15:52Z</time>
      </trkpt>
      <trkpt lat="42.08454" lon="9.13386">
        <ele>1987</ele>
        <time>2018-06-18T11:16:07Z</time>
      </trkpt>
      <trkpt lat="42.0846" lon="9.1338">
        <ele>1984</ele>
        <time>2018-06-18T11:16:26Z</time>
      </trkpt>
      <trkpt lat="42.08458" lon="9.13377">
        <ele>1984</ele>
        <time>2018-06-18T11:16:46Z</time>
      </trkpt>
      <trkpt lat="42.0846" lon="9.13374">
        <ele>1983</ele>
        <time>2018-06-18T11:17:05Z</time>
      </trkpt>
      <trkpt lat="42.08464" lon="9.1337">
        <ele>1981</ele>
        <time>2018-06-18T11:17:24Z</time>
      </trkpt>
      <trkpt lat="42.08464" lon="9.13367">
        <ele>1980</ele>
        <time>2018-06-18T11:17:41Z</time>
      </trkpt>
      <trkpt lat="42.08464" lon="9.13363">
        <ele>1980</ele>
        <time>2018-06-18T11:18:02Z</time>
      </trkpt>
      <trkpt lat="42.08467" lon="9.13362">
        <ele>1979</ele>
        <time>2018-06-18T11:18:25Z</time>
      </trkpt>
      <trkpt lat="42.0847" lon="9.1336">
        <ele>1977</ele>
        <time>2018-06-18T11:18:42Z</time>
      </trkpt>
      <trkpt lat="42.0847" lon="9.13356">
        <ele>1976</ele>
        <time>2018-06-18T11:18:58Z</time>
      </trkpt>
      <trkpt lat="42.08474" lon="9.13351">
        <ele>1974</ele>
        <time>2018-06-18T11:19:20Z</time>
      </trkpt>
      <trkpt lat="42.08478" lon="9.1335">
        <ele>1972</ele>
        <time>2018-06-18T11:19:37Z</time>
      </trkpt>
      <trkpt lat="42.08478" lon="9.13343">
        <ele>1970</ele>
        <time>2018-06-18T11:19:59Z</time>
      </trkpt>
      <trkpt lat="42.08477" lon="9.13342">
        <ele>1970</ele>
        <time>2018-06-18T11:20:26Z</time>
      </trkpt>
      <trkpt lat="42.08472" lon="9.13338">
        <ele>1972</ele>
        <time>2018-06-18T11:20:45Z</time>
      </trkpt>
      <trkpt lat="42.08472" lon="9.13336">
        <ele>1972</ele>
        <time>2018-06-18T11:21:12Z</time>
      </trkpt>
      <trkpt lat="42.08473" lon="9.13337">
        <ele>1971</ele>
        <time>2018-06-18T11:21:31Z</time>
      </trkpt>
      <trkpt lat="42.08474" lon="9.13337">
        <ele>1971</ele>
        <time>2018-06-18T11:21:59Z</time>
      </trkpt>
      <trkpt lat="42.08476" lon="9.13334">
        <ele>1969</ele>
        <time>2018-06-18T11:22:16Z</time>
      </trkpt>
      <trkpt lat="42.08479" lon="9.13334">
        <ele>1968</ele>
        <time>2018-06-18T11:22:33Z</time>
      </trkpt>
      <trkpt lat="42.08483" lon="9.1334">
        <ele>1966</ele>
        <time>2018-06-18T11:22:51Z</time>
      </trkpt>
      <trkpt lat="42.08485" lon="9.13341">
        <ele>1965</ele>
        <time>2018-06-18T11:23:06Z</time>
      </trkpt>
      <trkpt lat="42.08486" lon="9.13339">
        <ele>1964</ele>
        <time>2018-06-18T11:23:32Z</time>
      </trkpt>
      <trkpt lat="42.08488" lon="9.13341">
        <ele>1963</ele>
        <time>2018-06-18T11:23:56Z</time>
      </trkpt>
      <trkpt lat="42.08491" lon="9.13337">
        <ele>1959</ele>
        <time>2018-06-18T11:24:12Z</time>
      </trkpt>
      <trkpt lat="42.08488" lon="9.13335">
        <ele>1961</ele>
        <time>2018-06-18T11:24:29Z</time>
      </trkpt>
      <trkpt lat="42.08488" lon="9.13333">
        <ele>1944</ele>
        <time>2018-06-18T11:24:57Z</time>
      </trkpt>
      <trkpt lat="42.08489" lon="9.13332">
        <ele>1944</ele>
        <time>2018-06-18T11:25:24Z</time>
      </trkpt>
      <trkpt lat="42.08487" lon="9.13332">
        <ele>1944</ele>
        <time>2018-06-18T11:25:50Z</time>
      </trkpt>
      <trkpt lat="42.08489" lon="9.13332">
        <ele>1944</ele>
        <time>2018-06-18T11:26:21Z</time>
      </trkpt>
      <trkpt lat="42.08492" lon="9.13334">
        <ele>1958</ele>
        <time>2018-06-18T11:26:40Z</time>
      </trkpt>
      <trkpt lat="42.08491" lon="9.13341">
        <ele>1961</ele>
        <time>2018-06-18T11:26:56Z</time>
      </trkpt>
      <trkpt lat="42.08492" lon="9.13348">
        <ele>1965</ele>
        <time>2018-06-18T11:27:11Z</time>
      </trkpt>
      <trkpt lat="42.08495" lon="9.13352">
        <ele>1967</ele>
        <time>2018-06-18T11:27:33Z</time>
      </trkpt>
      <trkpt lat="42.08496" lon="9.13346">
        <ele>1962</ele>
        <time>2018-06-18T11:27:52Z</time>
      </trkpt>
      <trkpt lat="42.08495" lon="9.13348">
        <ele>1964</ele>
        <time>2018-06-18T11:28:14Z</time>
      </trkpt>
      <trkpt lat="42.08496" lon="9.13345">
        <ele>1962</ele>
        <time>2018-06-18T11:28:33Z</time>
      </trkpt>
      <trkpt lat="42.085" lon="9.1334">
        <ele>1948</ele>
        <time>2018-06-18T11:28:52Z</time>
      </trkpt>
      <trkpt lat="42.08502" lon="9.13339">
        <ele>1948</ele>
        <time>2018-06-18T11:29:11Z</time>
      </trkpt>
      <trkpt lat="42.08504" lon="9.13338">
        <ele>1948</ele>
        <time>2018-06-18T11:29:28Z</time>
      </trkpt>
      <trkpt lat="42.08507" lon="9.13338">
        <ele>1948</ele>
        <time>2018-06-18T11:29:56Z</time>
      </trkpt>
      <trkpt lat="42.08509" lon="9.13334">
        <ele>1947</ele>
        <time>2018-06-18T11:30:20Z</time>
      </trkpt>
      <trkpt lat="42.08513" lon="9.13342">
        <ele>1947</ele>
        <time>2018-06-18T11:30:39Z</time>
      </trkpt>
      <trkpt lat="42.08515" lon="9.13348">
        <ele>1948</ele>
        <time>2018-06-18T11:31:08Z</time>
      </trkpt>
      <trkpt lat="42.0852" lon="9.13351">
        <ele>1947</ele>
        <time>2018-06-18T11:31:28Z</time>
      </trkpt>
      <trkpt lat="42.08523" lon="9.13353">
        <ele>1947</ele>
        <time>2018-06-18T11:31:37Z</time>
      </trkpt>
      <trkpt lat="42.08535" lon="9.1336">
        <ele>1946</ele>
        <time>2018-06-18T11:31:54Z</time>
      </trkpt>
      <trkpt lat="42.08546" lon="9.13364">
        <ele>1945</ele>
        <time>2018-06-18T11:32:12Z</time>
      </trkpt>
      <trkpt lat="42.08557" lon="9.13369">
        <ele>1944</ele>
        <time>2018-06-18T11:32:27Z</time>
      </trkpt>
      <trkpt lat="42.08566" lon="9.13374">
        <ele>1944</ele>
        <time>2018-06-18T11:32:43Z</time>
      </trkpt>
      <trkpt lat="42.08575" lon="9.13385">
        <ele>1946</ele>
        <time>2018-06-18T11:32:59Z</time>
      </trkpt>
      <trkpt lat="42.08576" lon="9.13387">
        <ele>1946</ele>
        <time>2018-06-18T11:33:18Z</time>
      </trkpt>
      <trkpt lat="42.08574" lon="9.1339">
        <ele>1947</ele>
        <time>2018-06-18T11:33:44Z</time>
      </trkpt>
      <trkpt lat="42.08574" lon="9.1339">
        <ele>1947</ele>
        <time>2018-06-18T11:34:10Z</time>
      </trkpt>
      <trkpt lat="42.08576" lon="9.13393">
        <ele>1948</ele>
        <time>2018-06-18T11:34:36Z</time>
      </trkpt>
      <trkpt lat="42.0858" lon="9.13395">
        <ele>1948</ele>
        <time>2018-06-18T11:34:58Z</time>
      </trkpt>
      <trkpt lat="42.0859" lon="9.13397">
        <ele>1932</ele>
        <time>2018-06-18T11:35:15Z</time>
      </trkpt>
      <trkpt lat="42.08598" lon="9.13401">
        <ele>1931</ele>
        <time>2018-06-18T11:35:37Z</time>
      </trkpt>
      <trkpt lat="42.08601" lon="9.13403">
        <ele>1931</ele>
        <time>2018-06-18T11:35:54Z</time>
      </trkpt>
      <trkpt lat="42.08601" lon="9.13407">
        <ele>1932</ele>
        <time>2018-06-18T11:36:12Z</time>
      </trkpt>
      <trkpt lat="42.08602" lon="9.13408">
        <ele>1932</ele>
        <time>2018-06-18T11:36:35Z</time>
      </trkpt>
      <trkpt lat="42.08606" lon="9.13409">
        <ele>1930</ele>
        <time>2018-06-18T11:36:53Z</time>
      </trkpt>
      <trkpt lat="42.0861" lon="9.13409">
        <ele>1928</ele>
        <time>2018-06-18T11:37:09Z</time>
      </trkpt>
      <trkpt lat="42.08614" lon="9.13413">
        <ele>1927</ele>
        <time>2018-06-18T11:37:29Z</time>
      </trkpt>
      <trkpt lat="42.08615" lon="9.13416">
        <ele>1927</ele>
        <time>2018-06-18T11:37:51Z</time>
      </trkpt>
      <trkpt lat="42.08616" lon="9.13427">
        <ele>1940</ele>
        <time>2018-06-18T11:38:10Z</time>
      </trkpt>
      <trkpt lat="42.08618" lon="9.13424">
        <ele>1940</ele>
        <time>2018-06-18T11:38:28Z</time>
      </trkpt>
      <trkpt lat="42.08623" lon="9.13428">
        <ele>1939</ele>
        <time>2018-06-18T11:38:50Z</time>
      </trkpt>
      <trkpt lat="42.08626" lon="9.1343">
        <ele>1938</ele>
        <time>2018-06-18T11:39:05Z</time>
      </trkpt>
      <trkpt lat="42.0863" lon="9.13434">
        <ele>1937</ele>
        <time>2018-06-18T11:39:19Z</time>
      </trkpt>
      <trkpt lat="42.08635" lon="9.13433">
        <ele>1936</ele>
        <time>2018-06-18T11:39:37Z</time>
      </trkpt>
      <trkpt lat="42.08644" lon="9.13436">
        <ele>1935</ele>
        <time>2018-06-18T11:39:54Z</time>
      </trkpt>
      <trkpt lat="42.08646" lon="9.13452">
        <ele>1936</ele>
        <time>2018-06-18T11:40:14Z</time>
      </trkpt>
      <trkpt lat="42.0865" lon="9.13456">
        <ele>1936</ele>
        <time>2018-06-18T11:40:31Z</time>
      </trkpt>
      <trkpt lat="42.0865" lon="9.13454">
        <ele>1936</ele>
        <time>2018-06-18T11:40:48Z</time>
      </trkpt>
      <trkpt lat="42.0866" lon="9.13457">
        <ele>1935</ele>
        <time>2018-06-18T11:41:07Z</time>
      </trkpt>
      <trkpt lat="42.08674" lon="9.13456">
        <ele>1932</ele>
        <time>2018-06-18T11:41:23Z</time>
      </trkpt>
      <trkpt lat="42.08682" lon="9.13459">
        <ele>1932</ele>
        <time>2018-06-18T11:41:40Z</time>
      </trkpt>
      <trkpt lat="42.08685" lon="9.1346">
        <ele>1933</ele>
        <time>2018-06-18T11:42:04Z</time>
      </trkpt>
      <trkpt lat="42.08687" lon="9.13456">
        <ele>1932</ele>
        <time>2018-06-18T11:42:21Z</time>
      </trkpt>
      <trkpt lat="42.08692" lon="9.13451">
        <ele>1932</ele>
        <time>2018-06-18T11:42:38Z</time>
      </trkpt>
      <trkpt lat="42.08704" lon="9.1345">
        <ele>1932</ele>
        <time>2018-06-18T11:42:58Z</time>
      </trkpt>
      <trkpt lat="42.08712" lon="9.1345">
        <ele>1932</ele>
        <time>2018-06-18T11:43:13Z</time>
      </trkpt>
      <trkpt lat="42.08716" lon="9.13446">
        <ele>1932</ele>
        <time>2018-06-18T11:43:30Z</time>
      </trkpt>
      <trkpt lat="42.08719" lon="9.13445">
        <ele>1932</ele>
        <time>2018-06-18T11:43:49Z</time>
      </trkpt>
      <trkpt lat="42.08726" lon="9.13442">
        <ele>1932</ele>
        <time>2018-06-18T11:44:21Z</time>
      </trkpt>
      <trkpt lat="42.08735" lon="9.1344">
        <ele>1932</ele>
        <time>2018-06-18T11:44:39Z</time>
      </trkpt>
      <trkpt lat="42.08743" lon="9.13434">
        <ele>1931</ele>
        <time>2018-06-18T11:44:57Z</time>
      </trkpt>
      <trkpt lat="42.08747" lon="9.1343">
        <ele>1931</ele>
        <time>2018-06-18T11:45:15Z</time>
      </trkpt>
      <trkpt lat="42.08754" lon="9.13419">
        <ele>1932</ele>
        <time>2018-06-18T11:45:33Z</time>
      </trkpt>
      <trkpt lat="42.08761" lon="9.13406">
        <ele>1928</ele>
        <time>2018-06-18T11:45:51Z</time>
      </trkpt>
      <trkpt lat="42.08764" lon="9.13399">
        <ele>1927</ele>
        <time>2018-06-18T11:46:09Z</time>
      </trkpt>
      <trkpt lat="42.08771" lon="9.13392">
        <ele>1927</ele>
        <time>2018-06-18T11:46:24Z</time>
      </trkpt>
      <trkpt lat="42.08772" lon="9.13379">
        <ele>1924</ele>
        <time>2018-06-18T11:46:40Z</time>
      </trkpt>
      <trkpt lat="42.08775" lon="9.13375">
        <ele>1923</ele>
        <time>2018-06-18T11:47:01Z</time>
      </trkpt>
      <trkpt lat="42.08777" lon="9.13374">
        <ele>1924</ele>
        <time>2018-06-18T11:47:03Z</time>
      </trkpt>
      <trkpt lat="42.08788" lon="9.13369">
        <ele>1925</ele>
        <time>2018-06-18T11:47:21Z</time>
      </trkpt>
      <trkpt lat="42.08789" lon="9.13364">
        <ele>1924</ele>
        <time>2018-06-18T11:47:39Z</time>
      </trkpt>
      <trkpt lat="42.08788" lon="9.13363">
        <ele>1923</ele>
        <time>2018-06-18T11:48:01Z</time>
      </trkpt>
      <trkpt lat="42.0879" lon="9.13359">
        <ele>1923</ele>
        <time>2018-06-18T11:48:21Z</time>
      </trkpt>
      <trkpt lat="42.08793" lon="9.1335">
        <ele>1922</ele>
        <time>2018-06-18T11:48:41Z</time>
      </trkpt>
      <trkpt lat="42.08798" lon="9.13341">
        <ele>1922</ele>
        <time>2018-06-18T11:49:02Z</time>
      </trkpt>
      <trkpt lat="42.088" lon="9.13337">
        <ele>1922</ele>
        <time>2018-06-18T11:49:25Z</time>
      </trkpt>
      <trkpt lat="42.08798" lon="9.13332">
        <ele>1898</ele>
        <time>2018-06-18T11:49:40Z</time>
      </trkpt>
      <trkpt lat="42.08794" lon="9.13318">
        <ele>1895</ele>
        <time>2018-06-18T11:50:02Z</time>
      </trkpt>
      <trkpt lat="42.0879" lon="9.13313">
        <ele>1893</ele>
        <time>2018-06-18T11:50:14Z</time>
      </trkpt>
      <trkpt lat="42.08787" lon="9.13307">
        <ele>1891</ele>
        <time>2018-06-18T11:50:20Z</time>
      </trkpt>
      <trkpt lat="42.08788" lon="9.13308">
        <ele>1891</ele>
        <time>2018-06-18T11:50:39Z</time>
      </trkpt>
      <trkpt lat="42.08792" lon="9.13314">
        <ele>1893</ele>
        <time>2018-06-18T11:51:06Z</time>
      </trkpt>
      <trkpt lat="42.08798" lon="9.13324">
        <ele>1897</ele>
        <time>2018-06-18T11:51:21Z</time>
      </trkpt>
      <trkpt lat="42.088" lon="9.13329">
        <ele>1899</ele>
        <time>2018-06-18T11:51:24Z</time>
      </trkpt>
      <trkpt lat="42.08805" lon="9.13336">
        <ele>1924</ele>
        <time>2018-06-18T11:51:51Z</time>
      </trkpt>
      <trkpt lat="42.08804" lon="9.13339">
        <ele>1924</ele>
        <time>2018-06-18T11:52:17Z</time>
      </trkpt>
      <trkpt lat="42.08801" lon="9.13336">
        <ele>1923</ele>
        <time>2018-06-18T11:52:37Z</time>
      </trkpt>
      <trkpt lat="42.088" lon="9.13329">
        <ele>1899</ele>
        <time>2018-06-18T11:53:05Z</time>
      </trkpt>
      <trkpt lat="42.08799" lon="9.13328">
        <ele>1898</ele>
        <time>2018-06-18T11:53:12Z</time>
      </trkpt>
      <trkpt lat="42.08796" lon="9.1332">
        <ele>1896</ele>
        <time>2018-06-18T11:53:19Z</time>
      </trkpt>
      <trkpt lat="42.08797" lon="9.13324">
        <ele>1897</ele>
        <time>2018-06-18T11:53:26Z</time>
      </trkpt>
      <trkpt lat="42.08797" lon="9.1333">
        <ele>1898</ele>
        <time>2018-06-18T11:54:01Z</time>
      </trkpt>
      <trkpt lat="42.088" lon="9.13333">
        <ele>1899</ele>
        <time>2018-06-18T11:54:29Z</time>
      </trkpt>
      <trkpt lat="42.08799" lon="9.13329">
        <ele>1898</ele>
        <time>2018-06-18T11:54:32Z</time>
      </trkpt>
      <trkpt lat="42.08796" lon="9.13321">
        <ele>1896</ele>
        <time>2018-06-18T11:55:03Z</time>
      </trkpt>
      <trkpt lat="42.08799" lon="9.1333">
        <ele>1898</ele>
        <time>2018-06-18T11:55:28Z</time>
      </trkpt>
      <trkpt lat="42.088" lon="9.13333">
        <ele>1899</ele>
        <time>2018-06-18T11:55:57Z</time>
      </trkpt>
      <trkpt lat="42.08799" lon="9.13336">
        <ele>1922</ele>
        <time>2018-06-18T11:56:27Z</time>
      </trkpt>
      <trkpt lat="42.08799" lon="9.13339">
        <ele>1922</ele>
        <time>2018-06-18T11:57:03Z</time>
      </trkpt>
      <trkpt lat="42.08801" lon="9.13341">
        <ele>1923</ele>
        <time>2018-06-18T11:57:36Z</time>
      </trkpt>
      <trkpt lat="42.08801" lon="9.13342">
        <ele>1923</ele>
        <time>2018-06-18T11:58:10Z</time>
      </trkpt>
      <trkpt lat="42.08802" lon="9.13342">
        <ele>1923</ele>
        <time>2018-06-18T11:58:42Z</time>
      </trkpt>
      <trkpt lat="42.08799" lon="9.13337">
        <ele>1922</ele>
        <time>2018-06-18T11:59:13Z</time>
      </trkpt>
      <trkpt lat="42.08802" lon="9.13343">
        <ele>1924</ele>
        <time>2018-06-18T11:59:46Z</time>
      </trkpt>
      <trkpt lat="42.08802" lon="9.13341">
        <ele>1923</ele>
        <time>2018-06-18T12:00:17Z</time>
      </trkpt>
      <trkpt lat="42.08799" lon="9.13339">
        <ele>1922</ele>
        <time>2018-06-18T12:00:45Z</time>
      </trkpt>
      <trkpt lat="42.08804" lon="9.13346">
        <ele>1924</ele>
        <time>2018-06-18T12:01:11Z</time>
      </trkpt>
      <trkpt lat="42.08813" lon="9.13355">
        <ele>1927</ele>
        <time>2018-06-18T12:01:34Z</time>
      </trkpt>
      <trkpt lat="42.08813" lon="9.13364">
        <ele>1929</ele>
        <time>2018-06-18T12:02:03Z</time>
      </trkpt>
      <trkpt lat="42.08806" lon="9.13355">
        <ele>1926</ele>
        <time>2018-06-18T12:02:35Z</time>
      </trkpt>
      <trkpt lat="42.08804" lon="9.13347">
        <ele>1924</ele>
        <time>2018-06-18T12:03:03Z</time>
      </trkpt>
      <trkpt lat="42.08801" lon="9.13344">
        <ele>1923</ele>
        <time>2018-06-18T12:03:36Z</time>
      </trkpt>
      <trkpt lat="42.08802" lon="9.13345">
        <ele>1924</ele>
        <time>2018-06-18T12:04:09Z</time>
      </trkpt>
      <trkpt lat="42.08805" lon="9.13349">
        <ele>1925</ele>
        <time>2018-06-18T12:04:41Z</time>
      </trkpt>
      <trkpt lat="42.08815" lon="9.13353">
        <ele>1927</ele>
        <time>2018-06-18T12:05:11Z</time>
      </trkpt>
      <trkpt lat="42.08813" lon="9.13361">
        <ele>1928</ele>
        <time>2018-06-18T12:05:40Z</time>
      </trkpt>
      <trkpt lat="42.08817" lon="9.13374">
        <ele>1932</ele>
        <time>2018-06-18T12:06:09Z</time>
      </trkpt>
      <trkpt lat="42.08805" lon="9.13363">
        <ele>1927</ele>
        <time>2018-06-18T12:06:28Z</time>
      </trkpt>
      <trkpt lat="42.08799" lon="9.13353">
        <ele>1924</ele>
        <time>2018-06-18T12:07:00Z</time>
      </trkpt>
      <trkpt lat="42.08809" lon="9.1336">
        <ele>1927</ele>
        <time>2018-06-18T12:07:37Z</time>
      </trkpt>
      <trkpt lat="42.08803" lon="9.13345">
        <ele>1924</ele>
        <time>2018-06-18T12:08:18Z</time>
      </trkpt>
      <trkpt lat="42.08805" lon="9.13346">
        <ele>1925</ele>
        <time>2018-06-18T12:08:45Z</time>
      </trkpt>
      <trkpt lat="42.08807" lon="9.13355">
        <ele>1926</ele>
        <time>2018-06-18T12:09:11Z</time>
      </trkpt>
      <trkpt lat="42.0881" lon="9.13358">
        <ele>1927</ele>
        <time>2018-06-18T12:09:50Z</time>
      </trkpt>
      <trkpt lat="42.088" lon="9.13341">
        <ele>1923</ele>
        <time>2018-06-18T12:10:38Z</time>
      </trkpt>
      <trkpt lat="42.08798" lon="9.13339">
        <ele>1922</ele>
        <time>2018-06-18T12:11:08Z</time>
      </trkpt>
      <trkpt lat="42.08797" lon="9.13339">
        <ele>1922</ele>
        <time>2018-06-18T12:11:34Z</time>
      </trkpt>
      <trkpt lat="42.08797" lon="9.13335">
        <ele>1921</ele>
        <time>2018-06-18T12:11:58Z</time>
      </trkpt>
      <trkpt lat="42.08797" lon="9.13333">
        <ele>1898</ele>
        <time>2018-06-18T12:12:30Z</time>
      </trkpt>
      <trkpt lat="42.08796" lon="9.13338">
        <ele>1921</ele>
        <time>2018-06-18T12:12:55Z</time>
      </trkpt>
      <trkpt lat="42.08799" lon="9.13342">
        <ele>1923</ele>
        <time>2018-06-18T12:13:19Z</time>
      </trkpt>
      <trkpt lat="42.08799" lon="9.13339">
        <ele>1922</ele>
        <time>2018-06-18T12:13:39Z</time>
      </trkpt>
      <trkpt lat="42.08798" lon="9.13335">
        <ele>1922</ele>
        <time>2018-06-18T12:13:52Z</time>
      </trkpt>
      <trkpt lat="42.08797" lon="9.13336">
        <ele>1922</ele>
        <time>2018-06-18T12:14:18Z</time>
      </trkpt>
      <trkpt lat="42.08801" lon="9.13328">
        <ele>1899</ele>
        <time>2018-06-18T12:14:33Z</time>
      </trkpt>
      <trkpt lat="42.08806" lon="9.13327">
        <ele>1901</ele>
        <time>2018-06-18T12:14:50Z</time>
      </trkpt>
      <trkpt lat="42.08815" lon="9.1332">
        <ele>1904</ele>
        <time>2018-06-18T12:15:06Z</time>
      </trkpt>
      <trkpt lat="42.08826" lon="9.13314">
        <ele>1906</ele>
        <time>2018-06-18T12:15:24Z</time>
      </trkpt>
      <trkpt lat="42.08828" lon="9.13313">
        <ele>1906</ele>
        <time>2018-06-18T12:15:46Z</time>
      </trkpt>
      <trkpt lat="42.0883" lon="9.13297">
        <ele>1898</ele>
        <time>2018-06-18T12:16:04Z</time>
      </trkpt>
      <trkpt lat="42.08831" lon="9.13287">
        <ele>1895</ele>
        <time>2018-06-18T12:16:20Z</time>
      </trkpt>
      <trkpt lat="42.08833" lon="9.13282">
        <ele>1894</ele>
        <time>2018-06-18T12:16:41Z</time>
      </trkpt>
      <trkpt lat="42.0884" lon="9.13276">
        <ele>1922</ele>
        <time>2018-06-18T12:16:59Z</time>
      </trkpt>
      <trkpt lat="42.08845" lon="9.1327">
        <ele>1920</ele>
        <time>2018-06-18T12:17:15Z</time>
      </trkpt>
      <trkpt lat="42.08851" lon="9.13259">
        <ele>1918</ele>
        <time>2018-06-18T12:17:31Z</time>
      </trkpt>
      <trkpt lat="42.08857" lon="9.13261">
        <ele>1923</ele>
        <time>2018-06-18T12:17:49Z</time>
      </trkpt>
      <trkpt lat="42.08862" lon="9.13255">
        <ele>1925</ele>
        <time>2018-06-18T12:18:03Z</time>
      </trkpt>
      <trkpt lat="42.08862" lon="9.13243">
        <ele>1901</ele>
        <time>2018-06-18T12:18:20Z</time>
      </trkpt>
      <trkpt lat="42.08863" lon="9.13241">
        <ele>1901</ele>
        <time>2018-06-18T12:18:22Z</time>
      </trkpt>
      <trkpt lat="42.08861" lon="9.13228">
        <ele>1899</ele>
        <time>2018-06-18T12:18:37Z</time>
      </trkpt>
      <trkpt lat="42.08859" lon="9.13226">
        <ele>1899</ele>
        <time>2018-06-18T12:19:01Z</time>
      </trkpt>
      <trkpt lat="42.08858" lon="9.13224">
        <ele>1898</ele>
        <time>2018-06-18T12:19:17Z</time>
      </trkpt>
      <trkpt lat="42.08853" lon="9.13222">
        <ele>1896</ele>
        <time>2018-06-18T12:19:31Z</time>
      </trkpt>
      <trkpt lat="42.08856" lon="9.13217">
        <ele>1896</ele>
        <time>2018-06-18T12:19:51Z</time>
      </trkpt>
      <trkpt lat="42.08862" lon="9.13206">
        <ele>1895</ele>
        <time>2018-06-18T12:20:09Z</time>
      </trkpt>
      <trkpt lat="42.08868" lon="9.13199">
        <ele>1895</ele>
        <time>2018-06-18T12:20:23Z</time>
      </trkpt>
      <trkpt lat="42.08874" lon="9.13185">
        <ele>1893</ele>
        <time>2018-06-18T12:20:40Z</time>
      </trkpt>
      <trkpt lat="42.08881" lon="9.1318">
        <ele>1894</ele>
        <time>2018-06-18T12:20:56Z</time>
      </trkpt>
      <trkpt lat="42.08888" lon="9.13173">
        <ele>1895</ele>
        <time>2018-06-18T12:21:12Z</time>
      </trkpt>
      <trkpt lat="42.08898" lon="9.13163">
        <ele>1877</ele>
        <time>2018-06-18T12:21:32Z</time>
      </trkpt>
      <trkpt lat="42.08903" lon="9.13153">
        <ele>1876</ele>
        <time>2018-06-18T12:21:50Z</time>
      </trkpt>
      <trkpt lat="42.08907" lon="9.13143">
        <ele>1873</ele>
        <time>2018-06-18T12:22:06Z</time>
      </trkpt>
      <trkpt lat="42.08914" lon="9.13135">
        <ele>1870</ele>
        <time>2018-06-18T12:22:24Z</time>
      </trkpt>
      <trkpt lat="42.0892" lon="9.13128">
        <ele>1891</ele>
        <time>2018-06-18T12:22:41Z</time>
      </trkpt>
      <trkpt lat="42.08932" lon="9.13128">
        <ele>1892</ele>
        <time>2018-06-18T12:22:57Z</time>
      </trkpt>
      <trkpt lat="42.08942" lon="9.13121">
        <ele>1892</ele>
        <time>2018-06-18T12:23:15Z</time>
      </trkpt>
      <trkpt lat="42.08951" lon="9.1312">
        <ele>1894</ele>
        <time>2018-06-18T12:23:31Z</time>
      </trkpt>
      <trkpt lat="42.08958" lon="9.13116">
        <ele>1895</ele>
        <time>2018-06-18T12:23:44Z</time>
      </trkpt>
      <trkpt lat="42.08966" lon="9.13115">
        <ele>1897</ele>
        <time>2018-06-18T12:23:59Z</time>
      </trkpt>
      <trkpt lat="42.0897" lon="9.13106">
        <ele>1895</ele>
        <time>2018-06-18T12:24:18Z</time>
      </trkpt>
      <trkpt lat="42.08974" lon="9.13098">
        <ele>1895</ele>
        <time>2018-06-18T12:24:34Z</time>
      </trkpt>
      <trkpt lat="42.08977" lon="9.13092">
        <ele>1895</ele>
        <time>2018-06-18T12:24:50Z</time>
      </trkpt>
      <trkpt lat="42.08983" lon="9.13082">
        <ele>1879</ele>
        <time>2018-06-18T12:25:07Z</time>
      </trkpt>
      <trkpt lat="42.08993" lon="9.13074">
        <ele>1883</ele>
        <time>2018-06-18T12:25:24Z</time>
      </trkpt>
      <trkpt lat="42.09001" lon="9.13074">
        <ele>1896</ele>
        <time>2018-06-18T12:25:45Z</time>
      </trkpt>
      <trkpt lat="42.09004" lon="9.13071">
        <ele>1897</ele>
        <time>2018-06-18T12:26:03Z</time>
      </trkpt>
      <trkpt lat="42.0901" lon="9.1307">
        <ele>1898</ele>
        <time>2018-06-18T12:26:20Z</time>
      </trkpt>
      <trkpt lat="42.09013" lon="9.13058">
        <ele>1898</ele>
        <time>2018-06-18T12:26:39Z</time>
      </trkpt>
      <trkpt lat="42.09013" lon="9.13045">
        <ele>1897</ele>
        <time>2018-06-18T12:26:54Z</time>
      </trkpt>
      <trkpt lat="42.09017" lon="9.13032">
        <ele>1894</ele>
        <time>2018-06-18T12:27:11Z</time>
      </trkpt>
      <trkpt lat="42.0902" lon="9.13023">
        <ele>1893</ele>
        <time>2018-06-18T12:27:28Z</time>
      </trkpt>
      <trkpt lat="42.09021" lon="9.13015">
        <ele>1891</ele>
        <time>2018-06-18T12:27:46Z</time>
      </trkpt>
      <trkpt lat="42.09029" lon="9.13007">
        <ele>1892</ele>
        <time>2018-06-18T12:28:03Z</time>
      </trkpt>
      <trkpt lat="42.09034" lon="9.13009">
        <ele>1895</ele>
        <time>2018-06-18T12:28:17Z</time>
      </trkpt>
      <trkpt lat="42.09036" lon="9.1301">
        <ele>1895</ele>
        <time>2018-06-18T12:28:41Z</time>
      </trkpt>
      <trkpt lat="42.09037" lon="9.13018">
        <ele>1897</ele>
        <time>2018-06-18T12:28:57Z</time>
      </trkpt>
      <trkpt lat="42.09041" lon="9.1302">
        <ele>1898</ele>
        <time>2018-06-18T12:29:17Z</time>
      </trkpt>
      <trkpt lat="42.09041" lon="9.13031">
        <ele>1900</ele>
        <time>2018-06-18T12:29:33Z</time>
      </trkpt>
      <trkpt lat="42.09041" lon="9.13035">
        <ele>1900</ele>
        <time>2018-06-18T12:29:55Z</time>
      </trkpt>
      <trkpt lat="42.09041" lon="9.13049">
        <ele>1903</ele>
        <time>2018-06-18T12:30:19Z</time>
      </trkpt>
      <trkpt lat="42.09044" lon="9.13056">
        <ele>1905</ele>
        <time>2018-06-18T12:30:41Z</time>
      </trkpt>
      <trkpt lat="42.09046" lon="9.13052">
        <ele>1905</ele>
        <time>2018-06-18T12:30:57Z</time>
      </trkpt>
      <trkpt lat="42.09047" lon="9.13049">
        <ele>1904</ele>
        <time>2018-06-18T12:31:17Z</time>
      </trkpt>
      <trkpt lat="42.0905" lon="9.13041">
        <ele>1904</ele>
        <time>2018-06-18T12:31:37Z</time>
      </trkpt>
      <trkpt lat="42.09054" lon="9.13038">
        <ele>1904</ele>
        <time>2018-06-18T12:31:54Z</time>
      </trkpt>
      <trkpt lat="42.0906" lon="9.13037">
        <ele>1905</ele>
        <time>2018-06-18T12:32:09Z</time>
      </trkpt>
      <trkpt lat="42.09068" lon="9.13035">
        <ele>1906</ele>
        <time>2018-06-18T12:32:27Z</time>
      </trkpt>
      <trkpt lat="42.09072" lon="9.13023">
        <ele>1904</ele>
        <time>2018-06-18T12:32:42Z</time>
      </trkpt>
      <trkpt lat="42.09076" lon="9.13012">
        <ele>1904</ele>
        <time>2018-06-18T12:32:56Z</time>
      </trkpt>
      <trkpt lat="42.09079" lon="9.13007">
        <ele>1904</ele>
        <time>2018-06-18T12:33:11Z</time>
      </trkpt>
      <trkpt lat="42.09083" lon="9.13002">
        <ele>1904</ele>
        <time>2018-06-18T12:33:26Z</time>
      </trkpt>
      <trkpt lat="42.09088" lon="9.12996">
        <ele>1899</ele>
        <time>2018-06-18T12:33:39Z</time>
      </trkpt>
      <trkpt lat="42.09095" lon="9.13">
        <ele>1910</ele>
        <time>2018-06-18T12:33:59Z</time>
      </trkpt>
      <trkpt lat="42.09107" lon="9.13001">
        <ele>1914</ele>
        <time>2018-06-18T12:34:19Z</time>
      </trkpt>
      <trkpt lat="42.09113" lon="9.13015">
        <ele>1916</ele>
        <time>2018-06-18T12:34:37Z</time>
      </trkpt>
      <trkpt lat="42.09122" lon="9.13025">
        <ele>1919</ele>
        <time>2018-06-18T12:34:54Z</time>
      </trkpt>
      <trkpt lat="42.09134" lon="9.1303">
        <ele>1920</ele>
        <time>2018-06-18T12:35:13Z</time>
      </trkpt>
      <trkpt lat="42.09147" lon="9.13028">
        <ele>1918</ele>
        <time>2018-06-18T12:35:38Z</time>
      </trkpt>
      <trkpt lat="42.09154" lon="9.13026">
        <ele>1917</ele>
        <time>2018-06-18T12:36:00Z</time>
      </trkpt>
      <trkpt lat="42.09164" lon="9.1302">
        <ele>1913</ele>
        <time>2018-06-18T12:36:19Z</time>
      </trkpt>
      <trkpt lat="42.09171" lon="9.13021">
        <ele>1912</ele>
        <time>2018-06-18T12:36:34Z</time>
      </trkpt>
      <trkpt lat="42.09176" lon="9.13026">
        <ele>1915</ele>
        <time>2018-06-18T12:36:53Z</time>
      </trkpt>
      <trkpt lat="42.09186" lon="9.13026">
        <ele>1916</ele>
        <time>2018-06-18T12:37:11Z</time>
      </trkpt>
      <trkpt lat="42.09189" lon="9.13028">
        <ele>1917</ele>
        <time>2018-06-18T12:37:33Z</time>
      </trkpt>
      <trkpt lat="42.09199" lon="9.13026">
        <ele>1916</ele>
        <time>2018-06-18T12:37:49Z</time>
      </trkpt>
      <trkpt lat="42.09213" lon="9.13023">
        <ele>1915</ele>
        <time>2018-06-18T12:38:09Z</time>
      </trkpt>
      <trkpt lat="42.0922" lon="9.13018">
        <ele>1913</ele>
        <time>2018-06-18T12:38:29Z</time>
      </trkpt>
      <trkpt lat="42.09222" lon="9.13019">
        <ele>1913</ele>
        <time>2018-06-18T12:38:56Z</time>
      </trkpt>
      <trkpt lat="42.0923" lon="9.13024">
        <ele>1914</ele>
        <time>2018-06-18T12:39:16Z</time>
      </trkpt>
      <trkpt lat="42.09239" lon="9.13028">
        <ele>1914</ele>
        <time>2018-06-18T12:39:33Z</time>
      </trkpt>
      <trkpt lat="42.09251" lon="9.1303">
        <ele>1906</ele>
        <time>2018-06-18T12:39:51Z</time>
      </trkpt>
      <trkpt lat="42.09262" lon="9.13035">
        <ele>1907</ele>
        <time>2018-06-18T12:40:11Z</time>
      </trkpt>
      <trkpt lat="42.09272" lon="9.13035">
        <ele>1906</ele>
        <time>2018-06-18T12:40:26Z</time>
      </trkpt>
      <trkpt lat="42.09284" lon="9.13035">
        <ele>1905</ele>
        <time>2018-06-18T12:40:43Z</time>
      </trkpt>
      <trkpt lat="42.09293" lon="9.13033">
        <ele>1904</ele>
        <time>2018-06-18T12:40:59Z</time>
      </trkpt>
      <trkpt lat="42.09305" lon="9.13031">
        <ele>1903</ele>
        <time>2018-06-18T12:41:15Z</time>
      </trkpt>
      <trkpt lat="42.09314" lon="9.13026">
        <ele>1901</ele>
        <time>2018-06-18T12:41:31Z</time>
      </trkpt>
      <trkpt lat="42.09325" lon="9.13022">
        <ele>1898</ele>
        <time>2018-06-18T12:41:45Z</time>
      </trkpt>
      <trkpt lat="42.09336" lon="9.13017">
        <ele>1885</ele>
        <time>2018-06-18T12:42:03Z</time>
      </trkpt>
      <trkpt lat="42.09342" lon="9.13008">
        <ele>1885</ele>
        <time>2018-06-18T12:42:20Z</time>
      </trkpt>
      <trkpt lat="42.09353" lon="9.12999">
        <ele>1878</ele>
        <time>2018-06-18T12:42:37Z</time>
      </trkpt>
      <trkpt lat="42.09361" lon="9.12985">
        <ele>1874</ele>
        <time>2018-06-18T12:42:55Z</time>
      </trkpt>
      <trkpt lat="42.09366" lon="9.12974">
        <ele>1872</ele>
        <time>2018-06-18T12:43:10Z</time>
      </trkpt>
      <trkpt lat="42.09374" lon="9.12967">
        <ele>1870</ele>
        <time>2018-06-18T12:43:26Z</time>
      </trkpt>
      <trkpt lat="42.09378" lon="9.12962">
        <ele>1869</ele>
        <time>2018-06-18T12:43:39Z</time>
      </trkpt>
      <trkpt lat="42.09384" lon="9.12951">
        <ele>1868</ele>
        <time>2018-06-18T12:43:54Z</time>
      </trkpt>
      <trkpt lat="42.09392" lon="9.12946">
        <ele>1868</ele>
        <time>2018-06-18T12:44:15Z</time>
      </trkpt>
      <trkpt lat="42.09403" lon="9.12941">
        <ele>1868</ele>
        <time>2018-06-18T12:44:32Z</time>
      </trkpt>
      <trkpt lat="42.09407" lon="9.12933">
        <ele>1867</ele>
        <time>2018-06-18T12:44:50Z</time>
      </trkpt>
      <trkpt lat="42.09421" lon="9.12914">
        <ele>1863</ele>
        <time>2018-06-18T12:45:10Z</time>
      </trkpt>
      <trkpt lat="42.09422" lon="9.12911">
        <ele>1861</ele>
        <time>2018-06-18T12:45:13Z</time>
      </trkpt>
      <trkpt lat="42.09431" lon="9.12892">
        <ele>1854</ele>
        <time>2018-06-18T12:45:30Z</time>
      </trkpt>
      <trkpt lat="42.09435" lon="9.12875">
        <ele>1851</ele>
        <time>2018-06-18T12:45:46Z</time>
      </trkpt>
      <trkpt lat="42.0944" lon="9.12869">
        <ele>1850</ele>
        <time>2018-06-18T12:45:59Z</time>
      </trkpt>
      <trkpt lat="42.09442" lon="9.12864">
        <ele>1849</ele>
        <time>2018-06-18T12:46:04Z</time>
      </trkpt>
      <trkpt lat="42.09448" lon="9.12859">
        <ele>1849</ele>
        <time>2018-06-18T12:46:22Z</time>
      </trkpt>
      <trkpt lat="42.09453" lon="9.12859">
        <ele>1849</ele>
        <time>2018-06-18T12:46:40Z</time>
      </trkpt>
      <trkpt lat="42.09462" lon="9.12858">
        <ele>1849</ele>
        <time>2018-06-18T12:46:55Z</time>
      </trkpt>
      <trkpt lat="42.09472" lon="9.12856">
        <ele>1848</ele>
        <time>2018-06-18T12:47:10Z</time>
      </trkpt>
      <trkpt lat="42.09481" lon="9.12853">
        <ele>1848</ele>
        <time>2018-06-18T12:47:25Z</time>
      </trkpt>
      <trkpt lat="42.09488" lon="9.12845">
        <ele>1847</ele>
        <time>2018-06-18T12:47:42Z</time>
      </trkpt>
      <trkpt lat="42.09493" lon="9.12842">
        <ele>1847</ele>
        <time>2018-06-18T12:47:54Z</time>
      </trkpt>
      <trkpt lat="42.09497" lon="9.12835">
        <ele>1846</ele>
        <time>2018-06-18T12:48:09Z</time>
      </trkpt>
      <trkpt lat="42.09503" lon="9.12832">
        <ele>1843</ele>
        <time>2018-06-18T12:48:24Z</time>
      </trkpt>
      <trkpt lat="42.09509" lon="9.12821">
        <ele>1835</ele>
        <time>2018-06-18T12:48:41Z</time>
      </trkpt>
      <trkpt lat="42.09517" lon="9.12823">
        <ele>1833</ele>
        <time>2018-06-18T12:48:55Z</time>
      </trkpt>
      <trkpt lat="42.09525" lon="9.12815">
        <ele>1829</ele>
        <time>2018-06-18T12:49:11Z</time>
      </trkpt>
      <trkpt lat="42.09532" lon="9.12812">
        <ele>1827</ele>
        <time>2018-06-18T12:49:24Z</time>
      </trkpt>
      <trkpt lat="42.09535" lon="9.12805">
        <ele>1825</ele>
        <time>2018-06-18T12:49:36Z</time>
      </trkpt>
      <trkpt lat="42.09545" lon="9.12798">
        <ele>1824</ele>
        <time>2018-06-18T12:49:52Z</time>
      </trkpt>
      <trkpt lat="42.09553" lon="9.12794">
        <ele>1823</ele>
        <time>2018-06-18T12:50:07Z</time>
      </trkpt>
      <trkpt lat="42.0956" lon="9.12791">
        <ele>1822</ele>
        <time>2018-06-18T12:50:20Z</time>
      </trkpt>
      <trkpt lat="42.09567" lon="9.12784">
        <ele>1821</ele>
        <time>2018-06-18T12:50:36Z</time>
      </trkpt>
      <trkpt lat="42.0957" lon="9.12784">
        <ele>1821</ele>
        <time>2018-06-18T12:50:41Z</time>
      </trkpt>
      <trkpt lat="42.0958" lon="9.1278">
        <ele>1820</ele>
        <time>2018-06-18T12:50:56Z</time>
      </trkpt>
      <trkpt lat="42.09589" lon="9.12781">
        <ele>1816</ele>
        <time>2018-06-18T12:51:09Z</time>
      </trkpt>
      <trkpt lat="42.096" lon="9.12776">
        <ele>1816</ele>
        <time>2018-06-18T12:51:24Z</time>
      </trkpt>
      <trkpt lat="42.0961" lon="9.1277">
        <ele>1817</ele>
        <time>2018-06-18T12:51:39Z</time>
      </trkpt>
      <trkpt lat="42.09623" lon="9.12765">
        <ele>1817</ele>
        <time>2018-06-18T12:51:57Z</time>
      </trkpt>
      <trkpt lat="42.09633" lon="9.12763">
        <ele>1818</ele>
        <time>2018-06-18T12:52:12Z</time>
      </trkpt>
      <trkpt lat="42.09645" lon="9.12762">
        <ele>1820</ele>
        <time>2018-06-18T12:52:29Z</time>
      </trkpt>
      <trkpt lat="42.09659" lon="9.12756">
        <ele>1824</ele>
        <time>2018-06-18T12:52:49Z</time>
      </trkpt>
      <trkpt lat="42.09668" lon="9.12749">
        <ele>1827</ele>
        <time>2018-06-18T12:53:04Z</time>
      </trkpt>
      <trkpt lat="42.09677" lon="9.12742">
        <ele>1824</ele>
        <time>2018-06-18T12:53:19Z</time>
      </trkpt>
      <trkpt lat="42.09689" lon="9.12739">
        <ele>1821</ele>
        <time>2018-06-18T12:53:40Z</time>
      </trkpt>
      <trkpt lat="42.09698" lon="9.12734">
        <ele>1820</ele>
        <time>2018-06-18T12:54:06Z</time>
      </trkpt>
      <trkpt lat="42.09704" lon="9.12734">
        <ele>1819</ele>
        <time>2018-06-18T12:54:20Z</time>
      </trkpt>
      <trkpt lat="42.09713" lon="9.12734">
        <ele>1819</ele>
        <time>2018-06-18T12:54:37Z</time>
      </trkpt>
      <trkpt lat="42.09727" lon="9.12731">
        <ele>1818</ele>
        <time>2018-06-18T12:54:54Z</time>
      </trkpt>
      <trkpt lat="42.09735" lon="9.12726">
        <ele>1818</ele>
        <time>2018-06-18T12:55:05Z</time>
      </trkpt>
      <trkpt lat="42.09743" lon="9.12721">
        <ele>1818</ele>
        <time>2018-06-18T12:55:21Z</time>
      </trkpt>
      <trkpt lat="42.09746" lon="9.12719">
        <ele>1818</ele>
        <time>2018-06-18T12:55:26Z</time>
      </trkpt>
      <trkpt lat="42.09756" lon="9.12711">
        <ele>1805</ele>
        <time>2018-06-18T12:55:42Z</time>
      </trkpt>
      <trkpt lat="42.09766" lon="9.12701">
        <ele>1805</ele>
        <time>2018-06-18T12:55:58Z</time>
      </trkpt>
      <trkpt lat="42.09775" lon="9.12699">
        <ele>1803</ele>
        <time>2018-06-18T12:56:14Z</time>
      </trkpt>
      <trkpt lat="42.09782" lon="9.12699">
        <ele>1802</ele>
        <time>2018-06-18T12:56:32Z</time>
      </trkpt>
      <trkpt lat="42.09793" lon="9.12693">
        <ele>1800</ele>
        <time>2018-06-18T12:56:49Z</time>
      </trkpt>
      <trkpt lat="42.09801" lon="9.12686">
        <ele>1799</ele>
        <time>2018-06-18T12:57:04Z</time>
      </trkpt>
      <trkpt lat="42.0981" lon="9.1268">
        <ele>1798</ele>
        <time>2018-06-18T12:57:19Z</time>
      </trkpt>
      <trkpt lat="42.09818" lon="9.12668">
        <ele>1797</ele>
        <time>2018-06-18T12:57:38Z</time>
      </trkpt>
      <trkpt lat="42.09823" lon="9.12657">
        <ele>1797</ele>
        <time>2018-06-18T12:57:54Z</time>
      </trkpt>
      <trkpt lat="42.09825" lon="9.12642">
        <ele>1797</ele>
        <time>2018-06-18T12:58:11Z</time>
      </trkpt>
      <trkpt lat="42.09825" lon="9.12637">
        <ele>1797</ele>
        <time>2018-06-18T12:58:33Z</time>
      </trkpt>
      <trkpt lat="42.09827" lon="9.12636">
        <ele>1797</ele>
        <time>2018-06-18T12:59:12Z</time>
      </trkpt>
      <trkpt lat="42.09833" lon="9.12627">
        <ele>1797</ele>
        <time>2018-06-18T12:59:29Z</time>
      </trkpt>
      <trkpt lat="42.09838" lon="9.12616">
        <ele>1784</ele>
        <time>2018-06-18T12:59:43Z</time>
      </trkpt>
      <trkpt lat="42.09841" lon="9.12605">
        <ele>1785</ele>
        <time>2018-06-18T12:59:59Z</time>
      </trkpt>
      <trkpt lat="42.09844" lon="9.12594">
        <ele>1788</ele>
        <time>2018-06-18T13:00:15Z</time>
      </trkpt>
      <trkpt lat="42.09844" lon="9.12584">
        <ele>1790</ele>
        <time>2018-06-18T13:00:31Z</time>
      </trkpt>
      <trkpt lat="42.09849" lon="9.12574">
        <ele>1785</ele>
        <time>2018-06-18T13:00:46Z</time>
      </trkpt>
      <trkpt lat="42.09855" lon="9.12565">
        <ele>1781</ele>
        <time>2018-06-18T13:01:03Z</time>
      </trkpt>
      <trkpt lat="42.0986" lon="9.12562">
        <ele>1780</ele>
        <time>2018-06-18T13:01:20Z</time>
      </trkpt>
      <trkpt lat="42.09869" lon="9.12566">
        <ele>1778</ele>
        <time>2018-06-18T13:01:37Z</time>
      </trkpt>
      <trkpt lat="42.0988" lon="9.12568">
        <ele>1776</ele>
        <time>2018-06-18T13:01:53Z</time>
      </trkpt>
      <trkpt lat="42.09888" lon="9.12559">
        <ele>1774</ele>
        <time>2018-06-18T13:02:09Z</time>
      </trkpt>
      <trkpt lat="42.09895" lon="9.12555">
        <ele>1772</ele>
        <time>2018-06-18T13:02:21Z</time>
      </trkpt>
      <trkpt lat="42.09897" lon="9.12543">
        <ele>1771</ele>
        <time>2018-06-18T13:02:35Z</time>
      </trkpt>
      <trkpt lat="42.09902" lon="9.12535">
        <ele>1770</ele>
        <time>2018-06-18T13:02:48Z</time>
      </trkpt>
      <trkpt lat="42.0991" lon="9.12533">
        <ele>1769</ele>
        <time>2018-06-18T13:03:01Z</time>
      </trkpt>
      <trkpt lat="42.09919" lon="9.12538">
        <ele>1751</ele>
        <time>2018-06-18T13:03:17Z</time>
      </trkpt>
      <trkpt lat="42.09919" lon="9.12538">
        <ele>1751</ele>
        <time>2018-06-18T13:03:40Z</time>
      </trkpt>
      <trkpt lat="42.09919" lon="9.12538">
        <ele>1751</ele>
        <time>2018-06-18T13:04:48Z</time>
      </trkpt>
      <trkpt lat="42.09918" lon="9.12539">
        <ele>1751</ele>
        <time>2018-06-18T13:05:53Z</time>
      </trkpt>
      <trkpt lat="42.09918" lon="9.12539">
        <ele>1751</ele>
        <time>2018-06-18T13:07:16Z</time>
      </trkpt>
      <trkpt lat="42.09919" lon="9.12539">
        <ele>1751</ele>
        <time>2018-06-18T13:08:18Z</time>
      </trkpt>
      <trkpt lat="42.09918" lon="9.12538">
        <ele>1751</ele>
        <time>2018-06-18T13:10:09Z</time>
      </trkpt>
      <trkpt lat="42.0992" lon="9.12537">
        <ele>1750</ele>
        <time>2018-06-18T13:10:40Z</time>
      </trkpt>
      <trkpt lat="42.09929" lon="9.12533">
        <ele>1749</ele>
        <time>2018-06-18T13:10:58Z</time>
      </trkpt>
      <trkpt lat="42.09937" lon="9.12529">
        <ele>1748</ele>
        <time>2018-06-18T13:11:10Z</time>
      </trkpt>
      <trkpt lat="42.09939" lon="9.12529">
        <ele>1748</ele>
        <time>2018-06-18T13:11:13Z</time>
      </trkpt>
      <trkpt lat="42.09951" lon="9.12528">
        <ele>1746</ele>
        <time>2018-06-18T13:11:30Z</time>
      </trkpt>
      <trkpt lat="42.09959" lon="9.12532">
        <ele>1744</ele>
        <time>2018-06-18T13:11:44Z</time>
      </trkpt>
      <trkpt lat="42.09969" lon="9.12534">
        <ele>1743</ele>
        <time>2018-06-18T13:11:59Z</time>
      </trkpt>
      <trkpt lat="42.0997" lon="9.12525">
        <ele>1742</ele>
        <time>2018-06-18T13:12:12Z</time>
      </trkpt>
      <trkpt lat="42.09977" lon="9.12523">
        <ele>1740</ele>
        <time>2018-06-18T13:12:26Z</time>
      </trkpt>
      <trkpt lat="42.09979" lon="9.12515">
        <ele>1739</ele>
        <time>2018-06-18T13:12:39Z</time>
      </trkpt>
      <trkpt lat="42.09991" lon="9.12524">
        <ele>1738</ele>
        <time>2018-06-18T13:12:57Z</time>
      </trkpt>
      <trkpt lat="42.10001" lon="9.12528">
        <ele>1722</ele>
        <time>2018-06-18T13:13:13Z</time>
      </trkpt>
      <trkpt lat="42.10004" lon="9.12518">
        <ele>1723</ele>
        <time>2018-06-18T13:13:26Z</time>
      </trkpt>
      <trkpt lat="42.10017" lon="9.1252">
        <ele>1721</ele>
        <time>2018-06-18T13:13:44Z</time>
      </trkpt>
      <trkpt lat="42.10026" lon="9.12518">
        <ele>1720</ele>
        <time>2018-06-18T13:13:58Z</time>
      </trkpt>
      <trkpt lat="42.10036" lon="9.12515">
        <ele>1718</ele>
        <time>2018-06-18T13:14:13Z</time>
      </trkpt>
      <trkpt lat="42.10045" lon="9.1252">
        <ele>1717</ele>
        <time>2018-06-18T13:14:24Z</time>
      </trkpt>
      <trkpt lat="42.10056" lon="9.12515">
        <ele>1715</ele>
        <time>2018-06-18T13:14:40Z</time>
      </trkpt>
      <trkpt lat="42.10066" lon="9.12513">
        <ele>1713</ele>
        <time>2018-06-18T13:14:54Z</time>
      </trkpt>
      <trkpt lat="42.10076" lon="9.1251">
        <ele>1710</ele>
        <time>2018-06-18T13:15:07Z</time>
      </trkpt>
      <trkpt lat="42.10085" lon="9.12511">
        <ele>1700</ele>
        <time>2018-06-18T13:15:21Z</time>
      </trkpt>
      <trkpt lat="42.1009" lon="9.12509">
        <ele>1700</ele>
        <time>2018-06-18T13:15:43Z</time>
      </trkpt>
      <trkpt lat="42.10096" lon="9.12509">
        <ele>1698</ele>
        <time>2018-06-18T13:15:59Z</time>
      </trkpt>
      <trkpt lat="42.10106" lon="9.12508">
        <ele>1695</ele>
        <time>2018-06-18T13:16:13Z</time>
      </trkpt>
      <trkpt lat="42.10111" lon="9.12502">
        <ele>1694</ele>
        <time>2018-06-18T13:16:24Z</time>
      </trkpt>
      <trkpt lat="42.10111" lon="9.12496">
        <ele>1687</ele>
        <time>2018-06-18T13:16:37Z</time>
      </trkpt>
      <trkpt lat="42.10119" lon="9.12497">
        <ele>1684</ele>
        <time>2018-06-18T13:16:58Z</time>
      </trkpt>
      <trkpt lat="42.10131" lon="9.12499">
        <ele>1681</ele>
        <time>2018-06-18T13:17:12Z</time>
      </trkpt>
      <trkpt lat="42.10136" lon="9.12505">
        <ele>1687</ele>
        <time>2018-06-18T13:17:25Z</time>
      </trkpt>
      <trkpt lat="42.10142" lon="9.1251">
        <ele>1685</ele>
        <time>2018-06-18T13:17:39Z</time>
      </trkpt>
      <trkpt lat="42.10148" lon="9.12513">
        <ele>1684</ele>
        <time>2018-06-18T13:17:53Z</time>
      </trkpt>
      <trkpt lat="42.10154" lon="9.12513">
        <ele>1683</ele>
        <time>2018-06-18T13:18:07Z</time>
      </trkpt>
      <trkpt lat="42.1016" lon="9.12511">
        <ele>1681</ele>
        <time>2018-06-18T13:18:21Z</time>
      </trkpt>
      <trkpt lat="42.10162" lon="9.12506">
        <ele>1679</ele>
        <time>2018-06-18T13:18:34Z</time>
      </trkpt>
      <trkpt lat="42.10164" lon="9.12505">
        <ele>1678</ele>
        <time>2018-06-18T13:18:48Z</time>
      </trkpt>
      <trkpt lat="42.10169" lon="9.12505">
        <ele>1671</ele>
        <time>2018-06-18T13:19:06Z</time>
      </trkpt>
      <trkpt lat="42.10173" lon="9.12514">
        <ele>1665</ele>
        <time>2018-06-18T13:19:21Z</time>
      </trkpt>
      <trkpt lat="42.1018" lon="9.12517">
        <ele>1663</ele>
        <time>2018-06-18T13:19:38Z</time>
      </trkpt>
      <trkpt lat="42.10187" lon="9.12519">
        <ele>1660</ele>
        <time>2018-06-18T13:19:54Z</time>
      </trkpt>
      <trkpt lat="42.10187" lon="9.12521">
        <ele>1660</ele>
        <time>2018-06-18T13:20:20Z</time>
      </trkpt>
      <trkpt lat="42.10194" lon="9.12515">
        <ele>1658</ele>
        <time>2018-06-18T13:20:35Z</time>
      </trkpt>
      <trkpt lat="42.10201" lon="9.12521">
        <ele>1656</ele>
        <time>2018-06-18T13:20:49Z</time>
      </trkpt>
      <trkpt lat="42.10209" lon="9.12518">
        <ele>1653</ele>
        <time>2018-06-18T13:21:05Z</time>
      </trkpt>
      <trkpt lat="42.10214" lon="9.12521">
        <ele>1652</ele>
        <time>2018-06-18T13:21:20Z</time>
      </trkpt>
      <trkpt lat="42.10221" lon="9.12518">
        <ele>1650</ele>
        <time>2018-06-18T13:21:36Z</time>
      </trkpt>
      <trkpt lat="42.10223" lon="9.12518">
        <ele>1649</ele>
        <time>2018-06-18T13:21:58Z</time>
      </trkpt>
      <trkpt lat="42.10227" lon="9.12514">
        <ele>1648</ele>
        <time>2018-06-18T13:22:15Z</time>
      </trkpt>
      <trkpt lat="42.10237" lon="9.12513">
        <ele>1644</ele>
        <time>2018-06-18T13:22:30Z</time>
      </trkpt>
      <trkpt lat="42.10244" lon="9.12516">
        <ele>1643</ele>
        <time>2018-06-18T13:22:44Z</time>
      </trkpt>
      <trkpt lat="42.10248" lon="9.12513">
        <ele>1642</ele>
        <time>2018-06-18T13:22:56Z</time>
      </trkpt>
      <trkpt lat="42.10255" lon="9.12515">
        <ele>1627</ele>
        <time>2018-06-18T13:23:08Z</time>
      </trkpt>
      <trkpt lat="42.10265" lon="9.12513">
        <ele>1625</ele>
        <time>2018-06-18T13:23:24Z</time>
      </trkpt>
      <trkpt lat="42.1027" lon="9.12511">
        <ele>1624</ele>
        <time>2018-06-18T13:23:34Z</time>
      </trkpt>
      <trkpt lat="42.10279" lon="9.12518">
        <ele>1620</ele>
        <time>2018-06-18T13:23:49Z</time>
      </trkpt>
      <trkpt lat="42.10287" lon="9.12523">
        <ele>1618</ele>
        <time>2018-06-18T13:24:02Z</time>
      </trkpt>
      <trkpt lat="42.10297" lon="9.12521">
        <ele>1616</ele>
        <time>2018-06-18T13:24:17Z</time>
      </trkpt>
      <trkpt lat="42.10307" lon="9.1252">
        <ele>1614</ele>
        <time>2018-06-18T13:24:30Z</time>
      </trkpt>
      <trkpt lat="42.10316" lon="9.1252">
        <ele>1612</ele>
        <time>2018-06-18T13:24:43Z</time>
      </trkpt>
      <trkpt lat="42.10329" lon="9.1252">
        <ele>1610</ele>
        <time>2018-06-18T13:24:59Z</time>
      </trkpt>
      <trkpt lat="42.10341" lon="9.12517">
        <ele>1598</ele>
        <time>2018-06-18T13:25:15Z</time>
      </trkpt>
      <trkpt lat="42.10355" lon="9.12509">
        <ele>1596</ele>
        <time>2018-06-18T13:25:33Z</time>
      </trkpt>
      <trkpt lat="42.10356" lon="9.12509">
        <ele>1596</ele>
        <time>2018-06-18T13:25:48Z</time>
      </trkpt>
      <trkpt lat="42.10358" lon="9.1251">
        <ele>1596</ele>
        <time>2018-06-18T13:26:14Z</time>
      </trkpt>
      <trkpt lat="42.10366" lon="9.12507">
        <ele>1595</ele>
        <time>2018-06-18T13:26:28Z</time>
      </trkpt>
      <trkpt lat="42.10373" lon="9.12506">
        <ele>1594</ele>
        <time>2018-06-18T13:26:39Z</time>
      </trkpt>
      <trkpt lat="42.10386" lon="9.12514">
        <ele>1592</ele>
        <time>2018-06-18T13:26:55Z</time>
      </trkpt>
      <trkpt lat="42.10396" lon="9.12512">
        <ele>1591</ele>
        <time>2018-06-18T13:27:08Z</time>
      </trkpt>
      <trkpt lat="42.10411" lon="9.12505">
        <ele>1590</ele>
        <time>2018-06-18T13:27:26Z</time>
      </trkpt>
      <trkpt lat="42.10422" lon="9.12501">
        <ele>1588</ele>
        <time>2018-06-18T13:27:40Z</time>
      </trkpt>
      <trkpt lat="42.10428" lon="9.1249">
        <ele>1585</ele>
        <time>2018-06-18T13:27:54Z</time>
      </trkpt>
      <trkpt lat="42.10438" lon="9.12481">
        <ele>1582</ele>
        <time>2018-06-18T13:28:08Z</time>
      </trkpt>
      <trkpt lat="42.10443" lon="9.12474">
        <ele>1581</ele>
        <time>2018-06-18T13:28:24Z</time>
      </trkpt>
      <trkpt lat="42.1045" lon="9.12471">
        <ele>1580</ele>
        <time>2018-06-18T13:28:41Z</time>
      </trkpt>
      <trkpt lat="42.10456" lon="9.12464">
        <ele>1579</ele>
        <time>2018-06-18T13:28:55Z</time>
      </trkpt>
      <trkpt lat="42.10464" lon="9.12458">
        <ele>1579</ele>
        <time>2018-06-18T13:29:09Z</time>
      </trkpt>
      <trkpt lat="42.10472" lon="9.12452">
        <ele>1578</ele>
        <time>2018-06-18T13:29:25Z</time>
      </trkpt>
      <trkpt lat="42.10481" lon="9.12444">
        <ele>1577</ele>
        <time>2018-06-18T13:29:42Z</time>
      </trkpt>
      <trkpt lat="42.10487" lon="9.1243">
        <ele>1574</ele>
        <time>2018-06-18T13:29:58Z</time>
      </trkpt>
      <trkpt lat="42.10495" lon="9.1242">
        <ele>1572</ele>
        <time>2018-06-18T13:30:11Z</time>
      </trkpt>
      <trkpt lat="42.10501" lon="9.12409">
        <ele>1564</ele>
        <time>2018-06-18T13:30:29Z</time>
      </trkpt>
      <trkpt lat="42.10503" lon="9.12398">
        <ele>1558</ele>
        <time>2018-06-18T13:30:44Z</time>
      </trkpt>
      <trkpt lat="42.10506" lon="9.12389">
        <ele>1554</ele>
        <time>2018-06-18T13:30:57Z</time>
      </trkpt>
      <trkpt lat="42.10513" lon="9.12376">
        <ele>1550</ele>
        <time>2018-06-18T13:31:14Z</time>
      </trkpt>
      <trkpt lat="42.10515" lon="9.12373">
        <ele>1550</ele>
        <time>2018-06-18T13:31:17Z</time>
      </trkpt>
      <trkpt lat="42.10527" lon="9.12359">
        <ele>1547</ele>
        <time>2018-06-18T13:31:35Z</time>
      </trkpt>
      <trkpt lat="42.1053" lon="9.12349">
        <ele>1545</ele>
        <time>2018-06-18T13:31:50Z</time>
      </trkpt>
      <trkpt lat="42.10533" lon="9.12338">
        <ele>1545</ele>
        <time>2018-06-18T13:32:05Z</time>
      </trkpt>
      <trkpt lat="42.10531" lon="9.12339">
        <ele>1545</ele>
        <time>2018-06-18T13:32:24Z</time>
      </trkpt>
      <trkpt lat="42.10529" lon="9.12327">
        <ele>1531</ele>
        <time>2018-06-18T13:32:42Z</time>
      </trkpt>
      <trkpt lat="42.10535" lon="9.12316">
        <ele>1529</ele>
        <time>2018-06-18T13:32:58Z</time>
      </trkpt>
      <trkpt lat="42.10536" lon="9.1231">
        <ele>1528</ele>
        <time>2018-06-18T13:33:12Z</time>
      </trkpt>
      <trkpt lat="42.10541" lon="9.12304">
        <ele>1527</ele>
        <time>2018-06-18T13:33:31Z</time>
      </trkpt>
      <trkpt lat="42.10536" lon="9.12296">
        <ele>1526</ele>
        <time>2018-06-18T13:33:45Z</time>
      </trkpt>
      <trkpt lat="42.10537" lon="9.12287">
        <ele>1525</ele>
        <time>2018-06-18T13:33:58Z</time>
      </trkpt>
      <trkpt lat="42.1054" lon="9.12277">
        <ele>1523</ele>
        <time>2018-06-18T13:34:12Z</time>
      </trkpt>
      <trkpt lat="42.10549" lon="9.12271">
        <ele>1522</ele>
        <time>2018-06-18T13:34:30Z</time>
      </trkpt>
      <trkpt lat="42.10553" lon="9.12266">
        <ele>1522</ele>
        <time>2018-06-18T13:34:52Z</time>
      </trkpt>
      <trkpt lat="42.10562" lon="9.12259">
        <ele>1520</ele>
        <time>2018-06-18T13:35:10Z</time>
      </trkpt>
      <trkpt lat="42.10572" lon="9.12251">
        <ele>1517</ele>
        <time>2018-06-18T13:35:25Z</time>
      </trkpt>
      <trkpt lat="42.10574" lon="9.12249">
        <ele>1509</ele>
        <time>2018-06-18T13:35:28Z</time>
      </trkpt>
      <trkpt lat="42.1058" lon="9.12238">
        <ele>1508</ele>
        <time>2018-06-18T13:35:43Z</time>
      </trkpt>
      <trkpt lat="42.10588" lon="9.12229">
        <ele>1500</ele>
        <time>2018-06-18T13:35:59Z</time>
      </trkpt>
      <trkpt lat="42.10588" lon="9.12229">
        <ele>1500</ele>
        <time>2018-06-18T13:36:30Z</time>
      </trkpt>
      <trkpt lat="42.10587" lon="9.12229">
        <ele>1500</ele>
        <time>2018-06-18T13:37:05Z</time>
      </trkpt>
      <trkpt lat="42.10595" lon="9.1222">
        <ele>1496</ele>
        <time>2018-06-18T13:37:23Z</time>
      </trkpt>
      <trkpt lat="42.10595" lon="9.1221">
        <ele>1494</ele>
        <time>2018-06-18T13:37:35Z</time>
      </trkpt>
      <trkpt lat="42.10591" lon="9.12201">
        <ele>1493</ele>
        <time>2018-06-18T13:37:47Z</time>
      </trkpt>
      <trkpt lat="42.10587" lon="9.12193">
        <ele>1492</ele>
        <time>2018-06-18T13:38:01Z</time>
      </trkpt>
      <trkpt lat="42.1059" lon="9.12185">
        <ele>1491</ele>
        <time>2018-06-18T13:38:15Z</time>
      </trkpt>
      <trkpt lat="42.10592" lon="9.12178">
        <ele>1490</ele>
        <time>2018-06-18T13:38:37Z</time>
      </trkpt>
      <trkpt lat="42.10594" lon="9.1217">
        <ele>1490</ele>
        <time>2018-06-18T13:38:54Z</time>
      </trkpt>
      <trkpt lat="42.10595" lon="9.12161">
        <ele>1483</ele>
        <time>2018-06-18T13:39:09Z</time>
      </trkpt>
      <trkpt lat="42.10595" lon="9.12153">
        <ele>1481</ele>
        <time>2018-06-18T13:39:25Z</time>
      </trkpt>
      <trkpt lat="42.10595" lon="9.12143">
        <ele>1479</ele>
        <time>2018-06-18T13:39:40Z</time>
      </trkpt>
      <trkpt lat="42.10608" lon="9.12136">
        <ele>1477</ele>
        <time>2018-06-18T13:39:57Z</time>
      </trkpt>
      <trkpt lat="42.10616" lon="9.12126">
        <ele>1475</ele>
        <time>2018-06-18T13:40:13Z</time>
      </trkpt>
      <trkpt lat="42.10624" lon="9.12112">
        <ele>1474</ele>
        <time>2018-06-18T13:40:31Z</time>
      </trkpt>
      <trkpt lat="42.1063" lon="9.12101">
        <ele>1473</ele>
        <time>2018-06-18T13:40:47Z</time>
      </trkpt>
      <trkpt lat="42.10628" lon="9.1209">
        <ele>1472</ele>
        <time>2018-06-18T13:41:04Z</time>
      </trkpt>
      <trkpt lat="42.10629" lon="9.12078">
        <ele>1459</ele>
        <time>2018-06-18T13:41:18Z</time>
      </trkpt>
      <trkpt lat="42.10624" lon="9.12074">
        <ele>1458</ele>
        <time>2018-06-18T13:41:31Z</time>
      </trkpt>
      <trkpt lat="42.10618" lon="9.12064">
        <ele>1457</ele>
        <time>2018-06-18T13:41:45Z</time>
      </trkpt>
      <trkpt lat="42.1061" lon="9.12062">
        <ele>1457</ele>
        <time>2018-06-18T13:42:00Z</time>
      </trkpt>
      <trkpt lat="42.10604" lon="9.12056">
        <ele>1456</ele>
        <time>2018-06-18T13:42:14Z</time>
      </trkpt>
      <trkpt lat="42.10596" lon="9.12051">
        <ele>1455</ele>
        <time>2018-06-18T13:42:30Z</time>
      </trkpt>
      <trkpt lat="42.10592" lon="9.12042">
        <ele>1453</ele>
        <time>2018-06-18T13:42:50Z</time>
      </trkpt>
      <trkpt lat="42.10589" lon="9.12034">
        <ele>1451</ele>
        <time>2018-06-18T13:43:06Z</time>
      </trkpt>
      <trkpt lat="42.10581" lon="9.12025">
        <ele>1440</ele>
        <time>2018-06-18T13:43:24Z</time>
      </trkpt>
      <trkpt lat="42.10573" lon="9.12021">
        <ele>1439</ele>
        <time>2018-06-18T13:43:39Z</time>
      </trkpt>
      <trkpt lat="42.10567" lon="9.12014">
        <ele>1438</ele>
        <time>2018-06-18T13:43:57Z</time>
      </trkpt>
      <trkpt lat="42.10559" lon="9.12011">
        <ele>1437</ele>
        <time>2018-06-18T13:44:14Z</time>
      </trkpt>
      <trkpt lat="42.10554" lon="9.12004">
        <ele>1436</ele>
        <time>2018-06-18T13:44:29Z</time>
      </trkpt>
      <trkpt lat="42.10547" lon="9.12002">
        <ele>1435</ele>
        <time>2018-06-18T13:44:43Z</time>
      </trkpt>
      <trkpt lat="42.10542" lon="9.11993">
        <ele>1418</ele>
        <time>2018-06-18T13:44:59Z</time>
      </trkpt>
      <trkpt lat="42.10536" lon="9.11987">
        <ele>1417</ele>
        <time>2018-06-18T13:45:14Z</time>
      </trkpt>
      <trkpt lat="42.10533" lon="9.11979">
        <ele>1415</ele>
        <time>2018-06-18T13:45:28Z</time>
      </trkpt>
      <trkpt lat="42.10537" lon="9.11974">
        <ele>1415</ele>
        <time>2018-06-18T13:45:43Z</time>
      </trkpt>
      <trkpt lat="42.10538" lon="9.11978">
        <ele>1416</ele>
        <time>2018-06-18T13:46:12Z</time>
      </trkpt>
      <trkpt lat="42.10534" lon="9.11971">
        <ele>1415</ele>
        <time>2018-06-18T13:46:31Z</time>
      </trkpt>
      <trkpt lat="42.1053" lon="9.1196">
        <ele>1413</ele>
        <time>2018-06-18T13:46:46Z</time>
      </trkpt>
      <trkpt lat="42.10526" lon="9.11959">
        <ele>1412</ele>
        <time>2018-06-18T13:47:03Z</time>
      </trkpt>
      <trkpt lat="42.10518" lon="9.11959">
        <ele>1411</ele>
        <time>2018-06-18T13:47:17Z</time>
      </trkpt>
      <trkpt lat="42.10519" lon="9.11952">
        <ele>1410</ele>
        <time>2018-06-18T13:47:32Z</time>
      </trkpt>
      <trkpt lat="42.10516" lon="9.11949">
        <ele>1409</ele>
        <time>2018-06-18T13:47:53Z</time>
      </trkpt>
      <trkpt lat="42.10507" lon="9.11942">
        <ele>1406</ele>
        <time>2018-06-18T13:48:11Z</time>
      </trkpt>
      <trkpt lat="42.10502" lon="9.11934">
        <ele>1402</ele>
        <time>2018-06-18T13:48:28Z</time>
      </trkpt>
      <trkpt lat="42.10495" lon="9.1193">
        <ele>1396</ele>
        <time>2018-06-18T13:48:45Z</time>
      </trkpt>
      <trkpt lat="42.10483" lon="9.11923">
        <ele>1397</ele>
        <time>2018-06-18T13:49:01Z</time>
      </trkpt>
      <trkpt lat="42.10478" lon="9.1191">
        <ele>1387</ele>
        <time>2018-06-18T13:49:19Z</time>
      </trkpt>
      <trkpt lat="42.10487" lon="9.11895">
        <ele>1386</ele>
        <time>2018-06-18T13:49:37Z</time>
      </trkpt>
      <trkpt lat="42.10499" lon="9.1188">
        <ele>1384</ele>
        <time>2018-06-18T13:49:58Z</time>
      </trkpt>
      <trkpt lat="42.10506" lon="9.11863">
        <ele>1386</ele>
        <time>2018-06-18T13:50:19Z</time>
      </trkpt>
      <trkpt lat="42.10513" lon="9.11854">
        <ele>1385</ele>
        <time>2018-06-18T13:50:37Z</time>
      </trkpt>
      <trkpt lat="42.10515" lon="9.11835">
        <ele>1382</ele>
        <time>2018-06-18T13:51:00Z</time>
      </trkpt>
      <trkpt lat="42.10522" lon="9.11833">
        <ele>1374</ele>
        <time>2018-06-18T13:51:18Z</time>
      </trkpt>
      <trkpt lat="42.10519" lon="9.11826">
        <ele>1373</ele>
        <time>2018-06-18T13:51:46Z</time>
      </trkpt>
      <trkpt lat="42.10519" lon="9.11829">
        <ele>1374</ele>
        <time>2018-06-18T13:51:56Z</time>
      </trkpt>
      <trkpt lat="42.10519" lon="9.11835">
        <ele>1384</ele>
        <time>2018-06-18T13:52:19Z</time>
      </trkpt>
      <trkpt lat="42.10523" lon="9.11835">
        <ele>1385</ele>
        <time>2018-06-18T13:52:26Z</time>
      </trkpt>
      <trkpt lat="42.10526" lon="9.11829">
        <ele>1374</ele>
        <time>2018-06-18T13:52:58Z</time>
      </trkpt>
      <trkpt lat="42.1053" lon="9.1183">
        <ele>1374</ele>
        <time>2018-06-18T13:53:37Z</time>
      </trkpt>
      <trkpt lat="42.1053" lon="9.11842">
        <ele>1387</ele>
        <time>2018-06-18T13:54:20Z</time>
      </trkpt>
      <trkpt lat="42.10527" lon="9.11838">
        <ele>1386</ele>
        <time>2018-06-18T13:54:52Z</time>
      </trkpt>
      <trkpt lat="42.1052" lon="9.11828">
        <ele>1373</ele>
        <time>2018-06-18T13:55:16Z</time>
      </trkpt>
      <trkpt lat="42.1051" lon="9.11831">
        <ele>1374</ele>
        <time>2018-06-18T13:55:40Z</time>
      </trkpt>
      <trkpt lat="42.10518" lon="9.11842">
        <ele>1384</ele>
        <time>2018-06-18T13:56:12Z</time>
      </trkpt>
      <trkpt lat="42.10519" lon="9.11842">
        <ele>1384</ele>
        <time>2018-06-18T13:56:52Z</time>
      </trkpt>
      <trkpt lat="42.10515" lon="9.11835">
        <ele>1382</ele>
        <time>2018-06-18T13:57:33Z</time>
      </trkpt>
      <trkpt lat="42.10519" lon="9.11842">
        <ele>1384</ele>
        <time>2018-06-18T13:58:05Z</time>
      </trkpt>
      <trkpt lat="42.10517" lon="9.11834">
        <ele>1383</ele>
        <time>2018-06-18T13:58:57Z</time>
      </trkpt>
      <trkpt lat="42.10512" lon="9.11828">
        <ele>1374</ele>
        <time>2018-06-18T13:59:48Z</time>
      </trkpt>
      <trkpt lat="42.10512" lon="9.11831">
        <ele>1374</ele>
        <time>2018-06-18T14:00:22Z</time>
      </trkpt>
      <trkpt lat="42.10513" lon="9.11825">
        <ele>1373</ele>
        <time>2018-06-18T14:00:52Z</time>
      </trkpt>
      <trkpt lat="42.10511" lon="9.11833">
        <ele>1374</ele>
        <time>2018-06-18T14:01:25Z</time>
      </trkpt>
      <trkpt lat="42.10513" lon="9.11833">
        <ele>1374</ele>
        <time>2018-06-18T14:01:59Z</time>
      </trkpt>
      <trkpt lat="42.10521" lon="9.11835">
        <ele>1384</ele>
        <time>2018-06-18T14:02:30Z</time>
      </trkpt>
      <trkpt lat="42.10517" lon="9.11837">
        <ele>1383</ele>
        <time>2018-06-18T14:02:58Z</time>
      </trkpt>
      <trkpt lat="42.10509" lon="9.11842">
        <ele>1381</ele>
        <time>2018-06-18T14:03:26Z</time>
      </trkpt>
      <trkpt lat="42.10514" lon="9.11835">
        <ele>1382</ele>
        <time>2018-06-18T14:03:53Z</time>
      </trkpt>
      <trkpt lat="42.10519" lon="9.11835">
        <ele>1384</ele>
        <time>2018-06-18T14:04:26Z</time>
      </trkpt>
      <trkpt lat="42.10517" lon="9.11837">
        <ele>1383</ele>
        <time>2018-06-18T14:04:56Z</time>
      </trkpt>
      <trkpt lat="42.10514" lon="9.11828">
        <ele>1374</ele>
        <time>2018-06-18T14:05:28Z</time>
      </trkpt>
      <trkpt lat="42.10517" lon="9.11828">
        <ele>1373</ele>
        <time>2018-06-18T14:06:01Z</time>
      </trkpt>
      <trkpt lat="42.10517" lon="9.11832">
        <ele>1374</ele>
        <time>2018-06-18T14:06:31Z</time>
      </trkpt>
      <trkpt lat="42.10515" lon="9.11831">
        <ele>1374</ele>
        <time>2018-06-18T14:07:09Z</time>
      </trkpt>
      <trkpt lat="42.1051" lon="9.11827">
        <ele>1374</ele>
        <time>2018-06-18T14:07:46Z</time>
      </trkpt>
      <trkpt lat="42.10509" lon="9.11826">
        <ele>1374</ele>
        <time>2018-06-18T14:08:10Z</time>
      </trkpt>
      <trkpt lat="42.10505" lon="9.11821">
        <ele>1373</ele>
        <time>2018-06-18T14:08:17Z</time>
      </trkpt>
      <trkpt lat="42.10507" lon="9.11824">
        <ele>1373</ele>
        <time>2018-06-18T14:08:23Z</time>
      </trkpt>
      <trkpt lat="42.10522" lon="9.11839">
        <ele>1385</ele>
        <time>2018-06-18T14:08:52Z</time>
      </trkpt>
      <trkpt lat="42.10524" lon="9.1184">
        <ele>1385</ele>
        <time>2018-06-18T14:09:22Z</time>
      </trkpt>
      <trkpt lat="42.10517" lon="9.11835">
        <ele>1383</ele>
        <time>2018-06-18T14:09:51Z</time>
      </trkpt>
      <trkpt lat="42.10516" lon="9.11832">
        <ele>1374</ele>
        <time>2018-06-18T14:09:55Z</time>
      </trkpt>
      <trkpt lat="42.10516" lon="9.1183">
        <ele>1374</ele>
        <time>2018-06-18T14:09:57Z</time>
      </trkpt>
      <trkpt lat="42.10513" lon="9.1182">
        <ele>1373</ele>
        <time>2018-06-18T14:10:20Z</time>
      </trkpt>
      <trkpt lat="42.10517" lon="9.11806">
        <ele>1371</ele>
        <time>2018-06-18T14:10:41Z</time>
      </trkpt>
      <trkpt lat="42.10524" lon="9.11795">
        <ele>1370</ele>
        <time>2018-06-18T14:11:00Z</time>
      </trkpt>
      <trkpt lat="42.10534" lon="9.11787">
        <ele>1370</ele>
        <time>2018-06-18T14:11:17Z</time>
      </trkpt>
      <trkpt lat="42.10542" lon="9.11781">
        <ele>1369</ele>
        <time>2018-06-18T14:11:34Z</time>
      </trkpt>
      <trkpt lat="42.10547" lon="9.11769">
        <ele>1368</ele>
        <time>2018-06-18T14:11:49Z</time>
      </trkpt>
      <trkpt lat="42.10554" lon="9.11758">
        <ele>1367</ele>
        <time>2018-06-18T14:12:06Z</time>
      </trkpt>
      <trkpt lat="42.10562" lon="9.11748">
        <ele>1354</ele>
        <time>2018-06-18T14:12:23Z</time>
      </trkpt>
      <trkpt lat="42.10568" lon="9.11732">
        <ele>1353</ele>
        <time>2018-06-18T14:12:39Z</time>
      </trkpt>
      <trkpt lat="42.1058" lon="9.11718">
        <ele>1350</ele>
        <time>2018-06-18T14:12:59Z</time>
      </trkpt>
      <trkpt lat="42.10585" lon="9.11713">
        <ele>1347</ele>
        <time>2018-06-18T14:13:20Z</time>
      </trkpt>
      <trkpt lat="42.10584" lon="9.1171">
        <ele>1346</ele>
        <time>2018-06-18T14:13:41Z</time>
      </trkpt>
      <trkpt lat="42.10586" lon="9.11704">
        <ele>1344</ele>
        <time>2018-06-18T14:14:01Z</time>
      </trkpt>
      <trkpt lat="42.10595" lon="9.11699">
        <ele>1343</ele>
        <time>2018-06-18T14:14:21Z</time>
      </trkpt>
      <trkpt lat="42.10607" lon="9.11691">
        <ele>1341</ele>
        <time>2018-06-18T14:14:42Z</time>
      </trkpt>
      <trkpt lat="42.10614" lon="9.11687">
        <ele>1341</ele>
        <time>2018-06-18T14:14:59Z</time>
      </trkpt>
      <trkpt lat="42.10623" lon="9.11682">
        <ele>1340</ele>
        <time>2018-06-18T14:15:14Z</time>
      </trkpt>
      <trkpt lat="42.1064" lon="9.11668">
        <ele>1337</ele>
        <time>2018-06-18T14:15:33Z</time>
      </trkpt>
      <trkpt lat="42.10653" lon="9.11665">
        <ele>1320</ele>
        <time>2018-06-18T14:15:51Z</time>
      </trkpt>
      <trkpt lat="42.10664" lon="9.11664">
        <ele>1324</ele>
        <time>2018-06-18T14:16:08Z</time>
      </trkpt>
      <trkpt lat="42.10678" lon="9.11665">
        <ele>1316</ele>
        <time>2018-06-18T14:16:29Z</time>
      </trkpt>
      <trkpt lat="42.10687" lon="9.11664">
        <ele>1311</ele>
        <time>2018-06-18T14:16:46Z</time>
      </trkpt>
      <trkpt lat="42.10696" lon="9.11659">
        <ele>1307</ele>
        <time>2018-06-18T14:17:04Z</time>
      </trkpt>
      <trkpt lat="42.10708" lon="9.11655">
        <ele>1304</ele>
        <time>2018-06-18T14:17:21Z</time>
      </trkpt>
      <trkpt lat="42.10721" lon="9.11652">
        <ele>1303</ele>
        <time>2018-06-18T14:17:41Z</time>
      </trkpt>
      <trkpt lat="42.10734" lon="9.11651">
        <ele>1303</ele>
        <time>2018-06-18T14:18:00Z</time>
      </trkpt>
      <trkpt lat="42.10745" lon="9.11645">
        <ele>1302</ele>
        <time>2018-06-18T14:18:15Z</time>
      </trkpt>
      <trkpt lat="42.10758" lon="9.11644">
        <ele>1292</ele>
        <time>2018-06-18T14:18:31Z</time>
      </trkpt>
      <trkpt lat="42.10774" lon="9.11652">
        <ele>1291</ele>
        <time>2018-06-18T14:18:52Z</time>
      </trkpt>
      <trkpt lat="42.10789" lon="9.11655">
        <ele>1287</ele>
        <time>2018-06-18T14:19:11Z</time>
      </trkpt>
      <trkpt lat="42.10806" lon="9.11657">
        <ele>1284</ele>
        <time>2018-06-18T14:19:30Z</time>
      </trkpt>
      <trkpt lat="42.10818" lon="9.11661">
        <ele>1284</ele>
        <time>2018-06-18T14:19:47Z</time>
      </trkpt>
      <trkpt lat="42.10821" lon="9.11655">
        <ele>1284</ele>
        <time>2018-06-18T14:20:04Z</time>
      </trkpt>
      <trkpt lat="42.10825" lon="9.11655">
        <ele>1284</ele>
        <time>2018-06-18T14:20:20Z</time>
      </trkpt>
      <trkpt lat="42.10839" lon="9.11658">
        <ele>1277</ele>
        <time>2018-06-18T14:20:38Z</time>
      </trkpt>
      <trkpt lat="42.10844" lon="9.11658">
        <ele>1275</ele>
        <time>2018-06-18T14:20:59Z</time>
      </trkpt>
      <trkpt lat="42.10842" lon="9.11645">
        <ele>1270</ele>
        <time>2018-06-18T14:21:16Z</time>
      </trkpt>
      <trkpt lat="42.10837" lon="9.11635">
        <ele>1267</ele>
        <time>2018-06-18T14:21:36Z</time>
      </trkpt>
      <trkpt lat="42.10843" lon="9.11627">
        <ele>1264</ele>
        <time>2018-06-18T14:21:51Z</time>
      </trkpt>
      <trkpt lat="42.1085" lon="9.11623">
        <ele>1263</ele>
        <time>2018-06-18T14:22:03Z</time>
      </trkpt>
      <trkpt lat="42.10858" lon="9.11622">
        <ele>1262</ele>
        <time>2018-06-18T14:22:20Z</time>
      </trkpt>
      <trkpt lat="42.10871" lon="9.11627">
        <ele>1261</ele>
        <time>2018-06-18T14:22:36Z</time>
      </trkpt>
      <trkpt lat="42.10881" lon="9.11631">
        <ele>1260</ele>
        <time>2018-06-18T14:22:53Z</time>
      </trkpt>
      <trkpt lat="42.10885" lon="9.11624">
        <ele>1259</ele>
        <time>2018-06-18T14:23:11Z</time>
      </trkpt>
      <trkpt lat="42.10884" lon="9.11612">
        <ele>1257</ele>
        <time>2018-06-18T14:23:27Z</time>
      </trkpt>
      <trkpt lat="42.10882" lon="9.11591">
        <ele>1254</ele>
        <time>2018-06-18T14:23:47Z</time>
      </trkpt>
      <trkpt lat="42.10877" lon="9.11572">
        <ele>1237</ele>
        <time>2018-06-18T14:24:06Z</time>
      </trkpt>
      <trkpt lat="42.10886" lon="9.11564">
        <ele>1235</ele>
        <time>2018-06-18T14:24:25Z</time>
      </trkpt>
      <trkpt lat="42.10891" lon="9.1156">
        <ele>1235</ele>
        <time>2018-06-18T14:24:40Z</time>
      </trkpt>
      <trkpt lat="42.10892" lon="9.11556">
        <ele>1234</ele>
        <time>2018-06-18T14:24:48Z</time>
      </trkpt>
      <trkpt lat="42.10888" lon="9.11544">
        <ele>1232</ele>
        <time>2018-06-18T14:25:09Z</time>
      </trkpt>
      <trkpt lat="42.10885" lon="9.11531">
        <ele>1231</ele>
        <time>2018-06-18T14:25:29Z</time>
      </trkpt>
      <trkpt lat="42.10895" lon="9.11523">
        <ele>1229</ele>
        <time>2018-06-18T14:25:50Z</time>
      </trkpt>
      <trkpt lat="42.10904" lon="9.11516">
        <ele>1226</ele>
        <time>2018-06-18T14:26:07Z</time>
      </trkpt>
      <trkpt lat="42.10907" lon="9.11493">
        <ele>1213</ele>
        <time>2018-06-18T14:26:24Z</time>
      </trkpt>
      <trkpt lat="42.10903" lon="9.11479">
        <ele>1208</ele>
        <time>2018-06-18T14:26:42Z</time>
      </trkpt>
      <trkpt lat="42.109" lon="9.11478">
        <ele>1207</ele>
        <time>2018-06-18T14:26:44Z</time>
      </trkpt>
      <trkpt lat="42.109" lon="9.11476">
        <ele>1207</ele>
        <time>2018-06-18T14:27:06Z</time>
      </trkpt>
      <trkpt lat="42.10906" lon="9.11466">
        <ele>1204</ele>
        <time>2018-06-18T14:27:23Z</time>
      </trkpt>
      <trkpt lat="42.1092" lon="9.11456">
        <ele>1203</ele>
        <time>2018-06-18T14:27:39Z</time>
      </trkpt>
      <trkpt lat="42.1094" lon="9.11452">
        <ele>1202</ele>
        <time>2018-06-18T14:27:58Z</time>
      </trkpt>
      <trkpt lat="42.10952" lon="9.11448">
        <ele>1202</ele>
        <time>2018-06-18T14:28:10Z</time>
      </trkpt>
      <trkpt lat="42.10962" lon="9.11441">
        <ele>1202</ele>
        <time>2018-06-18T14:28:25Z</time>
      </trkpt>
      <trkpt lat="42.10968" lon="9.1143">
        <ele>1201</ele>
        <time>2018-06-18T14:28:42Z</time>
      </trkpt>
      <trkpt lat="42.1098" lon="9.11414">
        <ele>1192</ele>
        <time>2018-06-18T14:29:03Z</time>
      </trkpt>
      <trkpt lat="42.10989" lon="9.11395">
        <ele>1191</ele>
        <time>2018-06-18T14:29:22Z</time>
      </trkpt>
      <trkpt lat="42.11001" lon="9.11381">
        <ele>1194</ele>
        <time>2018-06-18T14:29:42Z</time>
      </trkpt>
      <trkpt lat="42.11014" lon="9.1137">
        <ele>1194</ele>
        <time>2018-06-18T14:30:00Z</time>
      </trkpt>
      <trkpt lat="42.11026" lon="9.11357">
        <ele>1193</ele>
        <time>2018-06-18T14:30:17Z</time>
      </trkpt>
      <trkpt lat="42.11043" lon="9.11344">
        <ele>1193</ele>
        <time>2018-06-18T14:30:39Z</time>
      </trkpt>
      <trkpt lat="42.11056" lon="9.11327">
        <ele>1186</ele>
        <time>2018-06-18T14:30:59Z</time>
      </trkpt>
      <trkpt lat="42.11071" lon="9.11313">
        <ele>1186</ele>
        <time>2018-06-18T14:31:20Z</time>
      </trkpt>
      <trkpt lat="42.11088" lon="9.11293">
        <ele>1181</ele>
        <time>2018-06-18T14:31:42Z</time>
      </trkpt>
      <trkpt lat="42.11107" lon="9.11289">
        <ele>1179</ele>
        <time>2018-06-18T14:32:02Z</time>
      </trkpt>
      <trkpt lat="42.11133" lon="9.11288">
        <ele>1177</ele>
        <time>2018-06-18T14:32:25Z</time>
      </trkpt>
      <trkpt lat="42.1115" lon="9.11264">
        <ele>1173</ele>
        <time>2018-06-18T14:32:45Z</time>
      </trkpt>
      <trkpt lat="42.11169" lon="9.1124">
        <ele>1165</ele>
        <time>2018-06-18T14:33:05Z</time>
      </trkpt>
      <trkpt lat="42.11179" lon="9.11239">
        <ele>1165</ele>
        <time>2018-06-18T14:33:17Z</time>
      </trkpt>
      <trkpt lat="42.11184" lon="9.11238">
        <ele>1165</ele>
        <time>2018-06-18T14:33:21Z</time>
      </trkpt>
      <trkpt lat="42.11196" lon="9.11239">
        <ele>1165</ele>
        <time>2018-06-18T14:33:31Z</time>
      </trkpt>
      <trkpt lat="42.11215" lon="9.11245">
        <ele>1165</ele>
        <time>2018-06-18T14:33:49Z</time>
      </trkpt>
      <trkpt lat="42.11228" lon="9.11256">
        <ele>1168</ele>
        <time>2018-06-18T14:34:05Z</time>
      </trkpt>
      <trkpt lat="42.11232" lon="9.11259">
        <ele>1168</ele>
        <time>2018-06-18T14:34:22Z</time>
      </trkpt>
      <trkpt lat="42.11231" lon="9.11255">
        <ele>1168</ele>
        <time>2018-06-18T14:34:43Z</time>
      </trkpt>
      <trkpt lat="42.11235" lon="9.11257">
        <ele>1168</ele>
        <time>2018-06-18T14:35:11Z</time>
      </trkpt>
      <trkpt lat="42.11238" lon="9.11263">
        <ele>1168</ele>
        <time>2018-06-18T14:35:41Z</time>
      </trkpt>
      <trkpt lat="42.11233" lon="9.11261">
        <ele>1168</ele>
        <time>2018-06-18T14:36:10Z</time>
      </trkpt>
      <trkpt lat="42.11232" lon="9.11262">
        <ele>1168</ele>
        <time>2018-06-18T14:36:30Z</time>
      </trkpt>
    </trkseg>
  </trk>
</gpx>